[[{"header":{"parameterUnit":"m.s-1","parameterCategory":1,"la1":31.0,"la2":29.5877,"lo1":-88.7671,"lo2":-86.6584,"dy":0.0162,"dx":0.0185,"nx":115,"ny":88,"refTime":"2024-03-07T06:00:00:Z","depth":0,"parameterNumber":2,"parameterNumberName":"U-component_of_WINDS"},"data":[0.0,0.0,0.0,0.0,0.0,0.0,0.0,0.0,0.0,0.0,0.0,0.0,0.0,0.0,0.0,0.0,0.0,0.0,0.0,0.0,0.0,0.0,0.0,0.0,0.0,0.0,0.0,0.0,0.0,0.0,0.0,0.0,0.0,0.0,0.0,0.0,0.0,0.0,0.0,0.0,0.0,0.0,0.0,0.0,0.0,0.0,0.0,0.0,0.0,0.0,0.0,0.0,0.0,0.0,0.0,0.0,0.0,0.0,0.0,0.0,0.0,0.0,0.0,0.0,0.0,0.0,0.0,0.0,0.0,0.0,0.0,0.0,0.0,0.0,0.0,0.0,0.0,0.0,0.0,0.0,0.0,0.0,0.0,0.0,0.0,0.0,0.0,0.0,0.0,0.0,0.0,0.0,0.0,0.0,0.0,0.0,0.0,0.0,0.0,0.0,0.0,0.0,0.0,0.0,0.0,0.0,0.0,0.0,0.0,0.0,0.0,0.0,0.0,0.0,0.0,0.0,0.0,0.0,0.0,0.0,0.0,0.0,0.0,0.0,0.0,0.0,0.0,0.0,0.0,0.0,0.0,0.0,0.0,0.0,0.0,0.0,0.0,0.0,0.0,0.0,0.0,0.0,0.0,0.0,0.0,0.0,0.0,0.0,0.0,0.0,0.0,0.0,0.0,0.0,0.0,0.0,0.0,0.0,0.0,0.0,0.0,0.0,0.0,0.0,0.0,0.0,0.0,0.0,0.0,0.0,0.0,0.0,0.0,0.0,0.0,0.0,0.0,0.0,0.0,0.0,0.0,0.0,0.0,0.0,0.0,0.0,0.0,0.0,0.0,0.0,0.0,0.0,0.0,0.0,0.0,0.0,0.0,0.0,0.0,0.0,0.0,0.0,0.0,0.0,0.0,0.0,0.0,0.0,0.0,0.0,0.0,0.0,0.0,0.0,0.0,0.0,0.0,0.0,0.0,0.0,0.0,0.0,0.0,0.0,0.0,0.0,0.0,0.0,0.0,0.0,0.0,0.0,0.0,0.0,0.0,0.0,0.0,0.0,0.0,0.0,0.0,0.0,0.0,0.0,0.0,0.0,0.0,0.0,0.0,0.0,0.0,0.0,0.0,0.0,0.0,0.0,0.0,0.0,0.0,0.0,0.0,0.0,0.0,0.0,0.0,0.0,0.0,0.0,0.0,0.0,0.0,0.0,0.0,0.0,0.0,0.0,0.0,0.0,0.0,0.0,0.0,0.0,0.0,0.0,0.0,0.0,0.0,0.0,0.0,0.0,0.0,0.0,0.0,0.0,0.0,0.0,0.0,0.0,0.0,0.0,0.0,0.0,0.0,0.0,0.0,0.0,0.0,0.0,0.0,0.0,0.0,0.0,0.0,0.0,0.0,0.0,0.0,0.0,0.0,0.0,0.0,0.0,0.0,0.0,0.0,0.0,0.0,0.0,0.0,0.0,0.0,0.0,0.0,0.0,0.0,0.0,0.0,0.0,0.0,0.0,0.0,0.0,0.0,0.0,0.0,0.0,0.0,0.0,0.0,0.0,0.0,0.0,0.0,0.0,0.0,0.0,0.0,0.0,0.0,0.0,0.0,0.0,0.0,0.0,0.0,0.0,0.0,0.0,0.0,0.0,0.0,0.0,0.0,0.0,0.0,0.0,0.0,0.0,0.0,0.0,0.0,0.0,0.0,0.0,0.0,0.0,0.0,0.0,0.0,0.0,0.0,0.0,0.0,0.0,0.0,0.0,0.0,0.0,0.0,0.0,0.0,0.0,0.0,0.0,0.0,0.0,0.0,0.0,0.0,0.0,0.0,0.0,0.0,0.0,0.0,0.0,0.0,0.0,0.0,0.0,0.0,0.0,0.0,0.0,0.0,0.0,0.0,0.0,0.0,0.0,0.0,0.0,0.0,0.0,0.0,0.0,0.0,0.0,0.0,0.0,0.0,0.0,0.0,0.0,0.0,0.0,0.0,0.0,0.0,0.0,0.0,0.0,0.0,0.0,0.0,0.0,0.0,0.0,0.0,0.0,0.0,0.0,0.0,0.0,0.0,0.0,0.0,0.0,0.0,0.0,0.0,0.0,0.0,0.0,0.0,0.0,0.0,0.0,0.0,0.0,0.0,0.0,0.0,0.0,0.0,0.0,0.0,0.0,0.0,0.0,0.0,0.0,0.0,0.0,0.0,0.0,0.0,0.0,0.0,0.0,0.0,0.0,0.0,0.0,0.0,0.0,0.0,0.0,0.0,0.0,0.0,0.0,0.0,0.0,0.0,0.0,0.0,0.0,0.0,0.0,0.0,0.0,0.0,0.0,0.0,0.0,0.0,0.0,0.0,0.0,0.0,0.0,0.0,0.0,0.0,0.0,0.0,0.0,0.0,0.0,0.0,0.0,0.0,0.0,0.0,0.0,0.0,0.0,0.0,0.0,0.0,0.0,0.0,0.0,0.0,0.0,0.0,0.0,0.0,0.0,0.0,0.0,0.0,0.0,0.0,0.0,0.0,0.0,0.0,0.0,0.0,0.0,0.0,0.0,0.0,0.0,0.0,0.0,0.0,0.0,0.0,0.0,0.0,0.0,0.0,0.0,0.0,0.0,0.0,0.0,0.0,0.0,0.0,0.0,0.0,0.0,0.0,0.0,0.0,0.0,0.0,0.0,0.0,0.0,0.0,0.0,0.0,0.0,0.0,0.0,0.0,0.0,0.0,0.0,0.0,0.0,0.0,0.0,0.0,0.0,0.0,0.0,0.0,0.0,0.0,0.0,0.0,0.0,0.0,0.0,0.0,0.0,0.0,0.0,0.0,0.0,0.0,0.0,0.0,0.0,0.0,0.0,0.0,0.0,0.0,0.0,0.0,0.0,0.0,0.0,0.0,0.0,0.0,0.0,0.0,0.0,0.0,0.0,0.0,0.0,0.0,0.0,0.0,0.0,0.0,0.0,0.0,0.0,0.0,0.0,0.0,0.0,0.0,0.0,0.0,0.0,0.0,0.0,0.0,0.0,0.0,0.0,0.0,0.0,0.0,0.0,0.0,0.0,0.0,0.0,0.0,0.0,0.0,0.0,0.0,0.0,0.0,0.0,0.0,0.0,0.0,0.0,0.0,0.0,0.0,0.0,0.0,0.0,0.0,0.0,0.0,0.0,0.0,0.0,0.0,0.0,0.0,0.0,0.0,0.0,0.0,0.0,0.0,0.0,0.0,0.0,0.0,0.0,0.0,0.0,0.0,0.0,0.0,0.0,0.0,0.0,0.0,0.0,0.0,0.0,0.0,0.0,0.0,0.0,0.0,0.0,0.0,0.0,0.0,0.0,0.0,0.0,0.0,0.0,0.0,0.0,0.0,0.0,0.0,0.0,0.0,0.0,0.0,0.0,0.0,0.0,0.0,0.0,0.0,0.0,0.0,0.0,0.0,0.0,0.0,0.0,0.0,0.0,0.0,0.0,0.0,0.0,0.0,0.0,0.0,0.0,0.0,0.0,0.0,0.0,0.0,0.0,0.0,0.0,0.0,0.0,0.0,0.0,0.0,0.0,0.0,0.0,0.0,0.0,0.0,0.0,0.0,0.0,0.0,0.0,0.0,0.0,0.0,0.0,0.0,0.0,0.0,0.0,0.0,0.0,0.0,0.0,0.0,0.0,0.0,0.0,0.0,0.0,0.0,0.0,0.0,0.0,0.0,0.0,0.0,0.0,0.0,0.0,0.0,0.0,0.0,0.0,0.0,0.0,0.0,0.0,0.0,0.0,0.0,0.0,0.0,0.0,0.0,0.0,0.0,0.0,0.0,0.0,0.0,0.0,0.0,0.0,0.0,0.0,0.0,0.0,0.0,0.0,0.0,0.0,0.0,0.0,0.0,0.0,0.0,0.0,0.0,0.0,0.0,0.0,0.0,0.0,0.0,0.0,0.0,0.0,0.0,0.0,0.0,0.0,0.0,0.0,0.0,0.0,0.0,0.0,0.0,0.0,0.0,0.0,0.0,0.0,0.0,0.0,0.0,0.0,0.0,0.0,0.0,0.0,0.0,0.0,0.0,0.0,0.0,0.0,0.0,0.0,0.0,0.0,0.0,0.0,0.0,0.0,0.0,0.0,0.0,0.0,0.0,0.0,0.0,0.0,0.0,0.0,0.0,0.0,0.0,0.0,0.0,0.0,0.0,0.0,0.0,0.0,0.0,0.0,0.0,0.0,0.0,0.0,0.0,0.0,0.0,0.0,0.0,0.0,0.0,0.0,0.0,0.0,0.0,0.0,0.0,0.0,0.0,0.0,2.9116,0.0,0.0,0.0,0.0,0.0,0.0,0.0,0.0,0.0,0.0,0.0,0.0,0.0,0.0,0.0,0.0,0.0,0.0,0.0,0.0,0.0,0.0,0.0,0.0,0.0,0.0,0.0,0.0,0.0,0.0,0.0,0.0,0.0,0.0,0.0,0.0,0.0,0.0,0.0,0.0,0.0,0.0,0.0,0.0,0.0,0.0,0.0,0.0,0.0,0.0,0.0,0.0,0.0,0.0,0.0,0.0,0.0,0.0,0.0,0.0,0.0,0.0,0.0,0.0,0.0,0.0,0.0,0.0,0.0,0.0,0.0,0.0,0.0,0.0,0.0,0.0,0.0,0.0,0.0,0.0,0.0,0.0,0.0,0.0,0.0,0.0,0.0,0.0,0.0,0.0,0.0,0.0,0.0,0.0,0.0,0.0,0.0,0.0,0.0,0.0,0.0,0.0,0.0,0.0,0.0,0.0,0.0,0.0,0.0,0.0,3.0668,3.0704,3.0365,2.9988,2.9489,0.0,0.0,0.0,0.0,0.0,0.0,0.0,0.0,0.0,0.0,0.0,0.0,0.0,0.0,0.0,0.0,0.0,0.0,0.0,0.0,0.0,0.0,0.0,0.0,0.0,0.0,0.0,0.0,0.0,0.0,0.0,0.0,0.0,0.0,0.0,0.0,0.0,0.0,0.0,0.0,0.0,0.0,0.0,0.0,0.0,0.0,0.0,0.0,0.0,0.0,0.0,0.0,0.0,0.0,0.0,0.0,0.0,0.0,0.0,0.0,0.0,0.0,0.0,0.0,0.0,0.0,0.0,0.0,0.0,0.0,0.0,0.0,0.0,0.0,0.0,0.0,0.0,0.0,0.0,0.0,0.0,0.0,0.0,0.0,0.0,0.0,0.0,0.0,0.0,0.0,0.0,0.0,0.0,0.0,0.0,0.0,0.0,0.0,0.0,0.0,0.0,0.0,0.0,0.0,0.0,0.0,0.0,0.0,0.0,0.0,0.0,0.0,3.0762,3.0272,2.9191,0.0,0.0,0.0,0.0,0.0,0.0,0.0,0.0,0.0,0.0,0.0,0.0,0.0,0.0,0.0,0.0,0.0,0.0,0.0,0.0,0.0,0.0,0.0,0.0,0.0,0.0,0.0,0.0,0.0,0.0,0.0,0.0,0.0,0.0,0.0,0.0,0.0,0.0,0.0,0.0,0.0,0.0,0.0,0.0,0.0,0.0,0.0,0.0,0.0,0.0,0.0,0.0,0.0,0.0,0.0,0.0,0.0,0.0,0.0,0.0,0.0,0.0,0.0,0.0,0.0,0.0,0.0,0.0,0.0,0.0,0.0,0.0,0.0,0.0,0.0,0.0,0.0,0.0,0.0,0.0,0.0,0.0,0.0,0.0,0.0,0.0,0.0,0.0,0.0,0.0,0.0,0.0,0.0,0.0,0.0,0.0,0.0,0.0,0.0,0.0,0.0,0.0,0.0,0.0,0.0,0.0,0.0,0.0,0.0,0.0,3.073,3.0785,3.0796,0.0,2.8371,0.0,0.0,0.0,0.0,0.0,0.0,0.0,0.0,0.0,0.0,0.0,0.0,0.0,0.0,0.0,0.0,0.0,0.0,0.0,0.0,0.0,0.0,0.0,0.0,0.0,0.0,0.0,0.0,0.0,0.0,0.0,0.0,0.0,0.0,0.0,0.0,0.0,0.0,0.0,0.0,0.0,0.0,0.0,0.0,0.0,0.0,0.0,0.0,0.0,0.0,0.0,0.0,0.0,0.0,0.0,0.0,0.0,0.0,0.0,0.0,0.0,0.0,0.0,0.0,0.0,0.0,0.0,0.0,0.0,0.0,0.0,0.0,0.0,0.0,0.0,0.0,0.0,0.0,0.0,0.0,0.0,0.0,0.0,0.0,0.0,0.0,0.0,0.0,0.0,0.0,0.0,0.0,0.0,0.0,0.0,0.0,0.0,0.0,0.0,0.0,0.0,0.0,0.0,0.0,0.0,0.0,0.0,0.0,0.0,0.0,3.0769,3.0784,3.0769,2.9893,0.0,0.0,0.0,0.0,0.0,0.0,0.0,0.0,0.0,0.0,0.0,0.0,0.0,0.0,0.0,0.0,0.0,0.0,0.0,0.0,0.0,0.0,0.0,0.0,0.0,0.0,0.0,0.0,0.0,0.0,0.0,0.0,0.0,0.0,0.0,0.0,0.0,0.0,0.0,0.0,0.0,0.0,0.0,0.0,0.0,0.0,0.0,0.0,0.0,0.0,0.0,0.0,0.0,0.0,0.0,0.0,0.0,0.0,0.0,0.0,0.0,0.0,0.0,0.0,0.0,0.0,0.0,0.0,0.0,0.0,0.0,0.0,0.0,0.0,0.0,0.0,0.0,0.0,0.0,0.0,0.0,0.0,0.0,0.0,0.0,0.0,0.0,0.0,0.0,0.0,0.0,0.0,0.0,0.0,0.0,0.0,0.0,0.0,0.0,0.0,0.0,0.0,0.0,0.0,0.0,0.0,0.0,0.0,0.0,0.0,3.0748,3.0785,3.0801,3.0711,2.9814,2.8036,0.0,0.0,0.0,0.0,0.0,0.0,0.0,0.0,0.0,0.0,0.0,0.0,0.0,0.0,0.0,0.0,0.0,0.0,0.0,0.0,0.0,0.0,0.0,0.0,0.0,0.0,0.0,0.0,0.0,0.0,0.0,0.0,0.0,0.0,0.0,0.0,0.0,0.0,0.0,0.0,0.0,0.0,0.0,0.0,0.0,0.0,0.0,0.0,0.0,0.0,0.0,0.0,0.0,0.0,0.0,0.0,0.0,0.0,0.0,0.0,0.0,0.0,0.0,0.0,0.0,0.0,0.0,0.0,0.0,0.0,0.0,0.0,0.0,0.0,0.0,0.0,0.0,0.0,0.0,0.0,0.0,0.0,0.0,0.0,0.0,0.0,0.0,0.0,0.0,0.0,0.0,0.0,0.0,0.0,0.0,0.0,0.0,0.0,0.0,0.0,0.0,0.0,0.0,0.0,0.0,0.0,0.0,0.0,3.0697,3.0754,3.0798,3.0785,3.067,2.9753,0.0,0.0,0.0,0.0,0.0,0.0,0.0,0.0,0.0,0.0,0.0,0.0,0.0,0.0,0.0,0.0,0.0,0.0,0.0,0.0,0.0,0.0,0.0,0.0,0.0,0.0,0.0,0.0,0.0,0.0,0.0,0.0,0.0,0.0,0.0,0.0,0.0,0.0,0.0,0.0,0.0,0.0,0.0,0.0,0.0,0.0,0.0,0.0,0.0,0.0,0.0,0.0,0.0,0.0,0.0,0.0,0.0,0.0,0.0,0.0,0.0,0.0,0.0,0.0,0.0,0.0,0.0,0.0,0.0,0.0,0.0,0.0,0.0,0.0,0.0,0.0,0.0,0.0,0.0,0.0,0.0,0.0,0.0,0.0,0.0,0.0,0.0,0.0,0.0,0.0,0.0,0.0,0.0,0.0,0.0,0.0,0.0,0.0,0.0,0.0,0.0,0.0,0.0,0.0,0.0,0.0,0.0,0.0,0.0,3.0761,3.079,3.0782,3.073,3.0599,2.9651,0.0,0.0,0.0,0.0,0.0,0.0,0.0,0.0,0.0,0.0,0.0,0.0,0.0,0.0,0.0,0.0,0.0,0.0,0.0,0.0,0.0,0.0,0.0,0.0,0.0,0.0,0.0,0.0,0.0,0.0,0.0,0.0,0.0,0.0,0.0,0.0,0.0,0.0,0.0,0.0,0.0,0.0,0.0,0.0,0.0,0.0,0.0,0.0,0.0,0.0,0.0,0.0,0.0,0.0,0.0,0.0,0.0,0.0,0.0,0.0,0.0,0.0,0.0,0.0,0.0,0.0,0.0,0.0,0.0,0.0,0.0,0.0,0.0,0.0,0.0,0.0,0.0,0.0,0.0,0.0,0.0,0.0,0.0,0.0,0.0,0.0,0.0,0.0,0.0,0.0,0.0,0.0,0.0,0.0,0.0,0.0,0.0,0.0,0.0,0.0,0.0,0.0,0.0,0.0,0.0,0.0,0.0,0.0,0.0,3.0774,0.0,3.0769,3.0661,3.0501,2.9506,0.0,0.0,0.0,0.0,0.0,0.0,0.0,0.0,0.0,0.0,0.0,0.0,0.0,0.0,0.0,0.0,0.0,0.0,0.0,0.0,0.0,0.0,0.0,0.0,0.0,0.0,0.0,0.0,0.0,0.0,0.0,0.0,0.0,0.0,0.0,0.0,0.0,0.0,0.0,0.0,0.0,0.0,0.0,0.0,0.0,0.0,0.0,0.0,0.0,0.0,0.0,0.0,0.0,0.0,0.0,0.0,0.0,0.0,0.0,0.0,0.0,0.0,0.0,0.0,0.0,0.0,0.0,0.0,0.0,0.0,0.0,0.0,0.0,0.0,0.0,0.0,0.0,0.0,0.0,0.0,0.0,0.0,0.0,0.0,0.0,0.0,0.0,0.0,0.0,0.0,0.0,0.0,0.0,0.0,0.0,0.0,0.0,0.0,0.0,0.0,0.0,0.0,0.0,0.0,0.0,0.0,0.0,0.0,2.9862,3.0742,3.0793,3.0749,3.0576,3.0334,2.9315,0.0,0.0,0.0,0.0,0.0,0.0,0.0,0.0,0.0,0.0,0.0,0.0,0.0,0.0,0.0,0.0,0.0,0.0,0.0,0.0,0.0,0.0,0.0,0.0,0.0,0.0,0.0,0.0,0.0,0.0,0.0,0.0,0.0,0.0,0.0,0.0,0.0,0.0,0.0,0.0,0.0,0.0,0.0,0.0,0.0,0.0,0.0,0.0,0.0,0.0,0.0,0.0,0.0,0.0,0.0,0.0,0.0,0.0,0.0,0.0,0.0,0.0,0.0,0.0,0.0,0.0,0.0,0.0,0.0,0.0,0.0,0.0,0.0,0.0,0.0,0.0,0.0,0.0,0.0,0.0,0.0,0.0,0.0,0.0,0.0,0.0,0.0,0.0,0.0,0.0,0.0,0.0,0.0,0.0,0.0,0.0,0.0,0.0,0.0,0.0,0.0,0.0,0.0,0.0,0.0,0.0,0.0,0.0,0.0,3.076,3.076,3.0661,3.0528,3.022,2.9136,0.0,0.0,0.0,0.0,0.0,0.0,0.0,0.0,0.0,0.0,0.0,0.0,0.0,0.0,0.0,0.0,0.0,0.0,0.0,0.0,0.0,0.0,0.0,0.0,0.0,0.0,0.0,0.0,0.0,0.0,0.0,0.0,0.0,0.0,0.0,0.0,0.0,0.0,0.0,0.0,0.0,0.0,0.0,0.0,0.0,0.0,0.0,0.0,0.0,0.0,0.0,0.0,0.0,0.0,0.0,0.0,0.0,0.0,0.0,0.0,0.0,0.0,0.0,0.0,0.0,0.0,0.0,0.0,0.0,0.0,0.0,0.0,0.0,0.0,0.0,0.0,0.0,0.0,0.0,0.0,0.0,0.0,0.0,0.0,0.0,0.0,0.0,0.0,0.0,0.0,0.0,0.0,0.0,0.0,0.0,0.0,0.0,0.0,0.0,0.0,0.0,0.0,0.0,0.0,0.0,0.0,0.0,0.0,0.0,3.0753,3.0714,3.0582,3.0433,3.0065,2.89,2.6916,0.0,0.0,0.0,0.0,0.0,0.0,0.0,0.0,0.0,0.0,0.0,0.0,0.0,0.0,0.0,0.0,0.0,0.0,0.0,0.0,0.0,0.0,0.0,0.0,0.0,0.0,0.0,0.0,0.0,0.0,0.0,0.0,0.0,0.0,0.0,0.0,0.0,0.0,0.0,0.0,0.0,0.0,0.0,0.0,0.0,0.0,0.0,0.0,0.0,0.0,0.0,0.0,0.0,0.0,0.0,0.0,0.0,0.0,0.0,0.0,0.0,0.0,0.0,0.0,0.0,0.0,0.0,0.0,0.0,0.0,0.0,0.0,0.0,0.0,0.0,0.0,0.0,0.0,0.0,0.0,0.0,0.0,0.0,0.0,0.0,0.0,0.0,0.0,0.0,0.0,0.0,0.0,0.0,0.0,0.0,0.0,0.0,0.0,0.0,0.0,0.0,0.0,0.0,0.0,0.0,0.0,0.0,0.0,3.0782,3.0659,3.0482,3.0294,2.982,2.8596,0.0,0.0,0.0,0.0,0.0,0.0,0.0,0.0,0.0,0.0,0.0,0.0,0.0,0.0,0.0,0.0,0.0,0.0,0.0,0.0,0.0,0.0,0.0,0.0,0.0,0.0,0.0,0.0,0.0,0.0,0.0,0.0,0.0,0.0,0.0,0.0,0.0,0.0,0.0,0.0,0.0,0.0,0.0,0.0,0.0,0.0,0.0,0.0,0.0,0.0,0.0,0.0,0.0,0.0,0.0,0.0,0.0,0.0,0.0,0.0,0.0,0.0,0.0,0.0,0.0,0.0,0.0,0.0,0.0,0.0,0.0,0.0,0.0,0.0,0.0,0.0,0.0,0.0,0.0,0.0,0.0,0.0,0.0,0.0,0.0,0.0,0.0,0.0,0.0,0.0,0.0,0.0,0.0,0.0,0.0,0.0,0.0,0.0,0.0,0.0,0.0,0.0,0.0,0.0,0.0,0.0,0.0,0.0,0.0,3.0638,3.0494,3.0282,3.0068,2.9584,2.8278,0.0,0.0,0.0,0.0,0.0,0.0,0.0,0.0,0.0,0.0,0.0,0.0,0.0,0.0,0.0,0.0,0.0,0.0,0.0,0.0,0.0,0.0,0.0,0.0,0.0,0.0,0.0,0.0,0.0,0.0,0.0,0.0,0.0,0.0,0.0,0.0,0.0,0.0,0.0,0.0,0.0,0.0,0.0,0.0,0.0,0.0,0.0,0.0,0.0,0.0,0.0,0.0,0.0,0.0,0.0,0.0,0.0,0.0,0.0,0.0,0.0,0.0,0.0,0.0,0.0,0.0,0.0,0.0,0.0,0.0,0.0,0.0,0.0,0.0,0.0,0.0,0.0,0.0,0.0,0.0,0.0,0.0,0.0,0.0,0.0,0.0,0.0,0.0,0.0,0.0,0.0,0.0,0.0,0.0,0.0,0.0,0.0,0.0,0.0,0.0,0.0,0.0,0.0,0.0,0.0,0.0,0.0,0.0,2.9233,3.0567,3.0352,3.0017,2.9595,2.9128,2.7885,0.0,0.0,0.0,0.0,0.0,0.0,0.0,0.0,0.0,0.0,0.0,0.0,0.0,0.0,0.0,0.0,0.0,0.0,0.0,0.0,0.0,0.0,0.0,0.0,0.0,0.0,0.0,0.0,0.0,0.0,0.0,0.0,0.0,0.0,0.0,0.0,0.0,0.0,0.0,0.0,0.0,0.0,0.0,0.0,0.0,0.0,0.0,0.0,0.0,0.0,0.0,0.0,0.0,0.0,0.0,0.0,0.0,0.0,0.0,0.0,0.0,0.0,0.0,0.0,0.0,0.0,0.0,0.0,0.0,0.0,0.0,0.0,0.0,0.0,0.0,0.0,0.0,0.0,0.0,0.0,0.0,0.0,0.0,0.0,0.0,0.0,0.0,0.0,0.0,0.0,0.0,0.0,0.0,0.0,0.0,0.0,0.0,0.0,0.0,0.0,0.0,0.0,0.0,0.0,0.0,0.0,0.0,0.0,2.9574,3.0431,3.0182,2.9699,2.8947,2.8602,2.7384,0.0,0.0,0.0,0.0,0.0,0.0,0.0,0.0,0.0,0.0,0.0,0.0,0.0,0.0,0.0,0.0,0.0,0.0,0.0,0.0,0.0,0.0,0.0,0.0,0.0,0.0,0.0,0.0,0.0,0.0,0.0,0.0,0.0,0.0,0.0,0.0,0.0,0.0,0.0,0.0,0.0,0.0,0.0,0.0,0.0,0.0,0.0,0.0,0.0,0.0,0.0,0.0,0.0,0.0,0.0,0.0,0.0,0.0,0.0,0.0,0.0,0.0,0.0,0.0,0.0,0.0,0.0,0.0,0.0,0.0,0.0,0.0,0.0,0.0,0.0,0.0,0.0,0.0,0.0,0.0,0.0,0.0,0.0,0.0,0.0,0.0,0.0,0.0,0.0,0.0,0.0,0.0,0.0,0.0,0.0,0.0,0.0,0.0,0.0,0.0,0.0,0.0,0.0,0.0,0.0,0.0,0.0,0.0,2.9283,3.0221,2.9863,2.9268,2.8547,2.8101,2.6782,0.0,0.0,0.0,0.0,0.0,0.0,0.0,0.0,0.0,0.0,0.0,0.0,0.0,0.0,0.0,0.0,0.0,0.0,0.0,0.0,0.0,0.0,0.0,0.0,0.0,0.0,0.0,0.0,0.0,0.0,0.0,0.0,0.0,0.0,0.0,0.0,0.0,0.0,0.0,0.0,0.0,0.0,0.0,0.0,0.0,0.0,0.0,0.0,2.3636,0.0,0.0,0.0,0.0,0.0,0.0,0.0,0.0,0.0,0.0,0.0,0.0,0.0,0.0,0.0,0.0,0.0,0.0,0.0,0.0,0.0,0.0,0.0,0.0,0.0,0.0,0.0,0.0,0.0,0.0,0.0,0.0,0.0,0.0,0.0,0.0,0.0,0.0,0.0,0.0,0.0,0.0,0.0,0.0,0.0,0.0,0.0,0.0,0.0,0.0,0.0,0.0,0.0,0.0,0.0,0.0,0.0,0.0,0.0,2.9338,2.9979,2.9564,2.8832,2.7808,2.6939,2.5611,0.0,0.0,0.0,0.0,0.0,0.0,0.0,0.0,0.0,0.0,0.0,0.0,0.0,0.0,0.0,0.0,0.0,0.0,0.0,0.0,0.0,0.0,0.0,0.0,0.0,0.0,0.0,0.0,0.0,0.0,0.0,0.0,0.0,0.0,0.0,0.0,0.0,0.0,0.0,0.0,0.0,0.0,0.0,0.0,0.0,0.0,0.0,0.0,0.0,0.0,0.0,0.0,0.0,0.0,0.0,0.0,0.0,0.0,0.0,0.0,0.0,0.0,0.0,0.0,0.0,0.0,0.0,0.0,0.0,0.0,0.0,0.0,0.0,0.0,0.0,0.0,0.0,0.0,0.0,0.0,0.0,0.0,0.0,0.0,0.0,0.0,0.0,0.0,0.0,0.0,0.0,0.0,0.0,0.0,0.0,0.0,0.0,0.0,0.0,0.0,0.0,0.0,0.0,0.0,0.0,0.0,0.0,2.7796,2.9357,2.9667,2.9224,2.8309,2.6953,2.5563,2.4084,2.2634,0.0,0.0,0.0,0.0,0.0,0.0,0.0,0.0,0.0,0.0,0.0,0.0,0.0,0.0,0.0,0.0,0.0,0.0,0.0,0.0,0.0,0.0,0.0,0.0,0.0,0.0,0.0,0.0,0.0,0.0,0.0,0.0,0.0,0.0,0.0,0.0,0.0,0.0,2.4859,2.56,0.0,0.0,0.0,0.0,0.0,0.0,0.0,0.0,2.0641,0.0,0.0,0.0,0.0,0.0,0.0,0.0,0.0,0.0,0.0,0.0,0.0,0.0,0.0,0.0,0.0,0.0,0.0,0.0,0.0,0.0,0.0,0.0,0.0,0.0,0.0,0.0,0.0,0.0,0.0,0.0,0.0,0.0,0.0,0.0,0.0,0.0,0.0,0.0,0.0,0.0,0.0,0.0,0.0,0.0,0.0,0.0,0.0,0.0,0.0,0.0,0.0,0.0,0.0,0.0,0.0,2.3652,2.6671,2.855,2.9188,2.8713,2.7689,2.6134,2.4469,2.253,2.0344,0.0,0.0,0.0,0.0,0.0,0.0,0.0,0.0,0.0,0.0,0.0,0.0,0.0,0.0,0.0,0.0,0.0,0.0,0.0,0.0,0.0,0.0,0.0,0.0,0.0,0.0,0.0,0.0,0.0,0.0,0.0,0.0,0.0,0.0,0.0,0.0,0.0,0.0,0.0,2.5695,2.5909,0.0,0.0,0.0,0.0,0.0,0.0,0.0,0.0,1.8537,0.0,0.0,0.0,0.0,0.0,0.0,0.0,0.0,0.0,0.0,0.0,0.0,0.0,0.0,0.0,0.0,0.0,0.0,0.0,0.0,0.0,0.0,0.0,0.0,0.0,0.0,0.0,0.0,0.0,0.0,0.0,0.0,0.0,0.0,0.0,0.0,0.0,0.0,0.0,0.0,0.0,0.0,0.0,0.0,0.0,0.0,0.0,0.0,0.0,0.0,0.0,0.0,0.0,0.0,0.0,2.176,2.5183,2.7523,2.8611,2.8297,2.7202,2.5368,2.3481,2.1209,0.0,0.0,0.0,0.0,0.0,0.0,0.0,0.0,0.0,0.0,0.0,0.0,0.0,0.0,0.0,0.0,0.0,0.0,0.0,0.0,0.0,0.0,0.0,0.0,0.0,0.0,0.0,0.0,0.0,0.0,0.0,0.0,0.0,0.0,0.0,0.0,0.0,0.0,0.0,0.0,2.536,2.5115,2.404,0.0,0.0,0.0,0.0,0.0,0.0,1.6581,1.6357,0.0,0.0,0.0,0.0,0.0,0.0,0.0,0.0,0.0,0.0,0.0,0.0,0.0,0.0,0.0,0.0,0.0,0.0,0.0,0.0,0.0,0.0,0.0,0.0,0.0,0.0,0.0,0.0,0.0,0.0,0.0,0.0,0.0,0.0,0.0,0.0,0.0,0.0,0.0,0.0,0.0,0.0,0.0,0.0,0.0,0.0,0.0,0.0,0.0,0.0,0.0,0.0,0.0,0.0,0.0,1.9368,2.3338,2.6221,2.7897,2.786,2.6767,2.4729,2.2542,2.0065,0.0,0.0,0.0,0.0,0.0,0.0,0.0,0.0,0.0,0.0,0.0,0.0,0.0,0.0,0.0,0.0,0.0,0.0,0.0,0.0,0.0,0.0,0.0,0.0,0.0,0.0,0.0,0.0,0.0,0.0,0.0,0.0,0.0,0.0,0.0,0.0,0.0,0.0,0.0,0.0,0.0,2.4015,2.2687,2.1254,0.0,0.0,0.0,0.0,1.4683,1.4187,0.0,0.0,0.0,0.0,0.0,0.0,0.0,0.0,0.0,0.0,0.0,0.0,0.0,0.0,0.0,0.0,0.0,0.0,0.0,0.0,0.0,0.0,0.0,0.0,0.0,0.0,0.0,0.0,0.0,0.0,0.0,0.0,0.0,0.0,0.0,0.0,0.0,0.0,0.0,0.0,0.0,0.0,0.0,0.0,0.0,0.0,0.0,0.0,0.0,0.0,0.0,0.0,0.0,0.0,0.0,0.0,1.6231,2.0848,2.449,2.6915,2.7257,2.6361,2.4217,2.1727,1.9083,0.0,0.0,0.0,0.0,0.0,0.0,0.0,0.0,0.0,0.0,0.0,0.0,0.0,0.0,0.0,0.0,0.0,0.0,0.0,0.0,0.0,0.0,0.0,0.0,0.0,0.0,0.0,0.0,0.0,0.0,0.0,0.0,0.0,0.0,0.0,0.0,0.0,0.0,0.0,0.0,0.0,2.2539,2.1002,1.9295,1.7603,0.0,0.0,1.304,1.2004,1.1323,0.0,0.0,0.0,0.0,0.0,0.0,0.0,0.0,0.0,0.0,0.0,0.0,0.0,0.0,0.0,0.0,0.0,0.0,0.0,0.0,0.0,0.0,0.0,0.0,0.0,0.0,0.0,0.0,0.0,0.0,0.0,0.0,0.0,0.0,0.0,0.0,0.0,0.0,0.0,0.0,0.0,0.0,0.0,0.0,0.0,0.0,0.0,0.0,0.0,0.0,0.0,0.0,0.0,0.0,0.0,0.7836,1.2878,1.812,2.2463,2.574,2.6625,2.605,2.409,2.136,1.8495,0.0,0.0,0.0,0.0,0.0,0.0,0.0,0.0,0.0,0.0,0.0,0.0,0.0,0.0,0.0,0.0,0.0,0.0,0.0,0.0,0.0,0.0,0.0,0.0,0.0,0.0,0.0,0.0,0.0,0.0,0.0,0.0,0.0,0.0,0.0,0.0,0.0,0.0,0.0,0.0,0.0,0.0,1.8718,1.6929,0.0,0.0,0.0,1.0168,0.9091,0.0,0.0,0.0,0.0,0.0,0.0,0.0,0.0,0.0,0.0,0.0,0.0,0.0,0.0,0.0,0.0,0.0,0.0,0.0,0.0,0.0,0.0,0.0,0.0,0.0,0.0,0.0,0.0,0.0,0.0,0.0,0.0,0.0,0.0,0.0,0.0,0.0,0.0,0.0,0.0,0.0,0.0,0.0,0.0,0.0,0.0,0.0,0.0,0.0,0.0,0.0,0.0,0.0,0.0,0.0,0.0,0.0,0.9334,1.5171,2.0242,2.4382,2.5947,2.585,2.4042,2.1133,0.0,0.0,0.0,0.0,0.0,0.0,0.0,0.0,0.0,0.0,0.0,0.0,0.0,0.0,0.0,0.0,0.0,0.0,0.0,0.0,0.0,0.0,0.0,0.0,0.0,0.0,0.0,1.7244,0.0,0.0,0.0,0.0,0.0,0.0,0.0,0.0,0.0,0.0,0.0,0.0,0.0,0.0,1.806,1.6171,1.4268,1.2312,0.0,0.0,0.7039,0.5895,0.5248,0.4919,0.0,0.0,0.0,0.0,0.0,0.0,0.0,0.0,0.0,0.0,0.0,0.0,0.0,0.0,0.0,0.0,0.0,0.0,0.0,0.0,0.0,0.0,0.0,0.0,0.0,0.0,0.0,0.0,0.0,0.0,0.0,0.0,0.0,0.0,0.0,0.0,0.0,0.0,0.0,0.0,0.0,0.0,0.0,0.0,0.0,0.0,0.0,0.0,0.0,0.0,0.0,0.0,0.0,0.0,0.0,0.5475,1.2022,1.7832,2.2788,2.5242,2.5693,2.4098,2.0999,1.7769,0.0,0.0,0.0,0.0,0.0,0.0,0.0,0.0,0.0,0.0,0.0,0.0,0.0,0.0,0.0,0.0,0.0,0.0,0.0,0.0,0.0,0.0,0.0,0.0,0.0,0.0,0.0,0.0,0.0,0.0,0.0,0.0,0.0,0.0,0.0,0.0,0.0,0.0,0.0,0.0,0.0,1.5481,1.3464,1.1319,0.9234,0.0,0.0,0.3579,0.2435,0.1828,0.1525,0.1522,0.0,0.0,0.0,0.0,0.0,0.0,0.0,0.0,0.0,0.0,0.0,0.0,0.0,0.0,0.0,0.0,0.0,0.0,0.0,0.0,0.0,0.0,0.0,0.0,0.0,0.0,0.0,0.0,0.0,0.0,0.0,0.0,0.0,0.0,0.0,0.0,0.0,0.0,0.0,0.0,0.0,0.0,0.0,0.0,0.0,0.0,0.0,0.0,0.0,0.0,0.0,0.0,0.0,-0.3691,0.2143,0.8889,1.5215,2.1011,2.4232,2.5355,2.4365,2.1269,1.7912,0.0,0.0,0.0,0.0,0.0,0.0,0.0,0.0,0.0,0.0,0.0,0.0,0.0,0.0,0.0,0.0,0.0,0.0,0.0,0.0,0.0,0.0,0.0,0.0,0.0,0.0,0.0,0.0,1.0062,1.1095,1.2707,0.0,0.0,0.0,0.0,0.0,0.0,0.0,0.0,0.0,0.0,1.2709,1.1711,0.8802,0.0,0.0,0.198,0.0442,-0.0663,-0.1244,-0.144,-0.1254,-0.0679,0.0,0.0,0.0,0.0,0.0,0.0,0.0,0.0,0.0,0.0,0.0,0.0,0.0,0.0,0.0,0.0,0.0,0.0,0.0,0.0,0.0,0.0,0.0,0.0,0.0,0.0,0.0,0.0,0.0,0.0,0.0,0.0,0.0,0.0,0.0,0.0,0.0,0.0,0.0,0.0,0.0,0.0,0.0,0.0,0.0,0.0,0.0,0.0,0.0,0.0,0.0,0.0,-0.6641,-0.0915,0.5965,1.2689,1.9337,2.3198,2.4979,2.4531,2.153,1.8139,0.0,0.0,0.0,0.0,0.0,0.0,0.0,0.0,0.0,0.0,0.0,0.0,0.0,0.0,0.0,0.0,0.0,0.0,0.0,0.0,0.0,0.0,0.0,0.0,0.0,0.0,0.0,0.0,0.4727,0.5799,0.7599,0.0,0.0,0.0,0.0,0.0,0.0,0.0,0.0,0.0,0.0,0.9102,0.8318,0.548,0.2623,0.0526,-0.1133,-0.2497,-0.3483,-0.3993,-0.4144,-0.3928,0.0,0.0,0.0,0.0,0.0,0.0,0.0,0.0,0.0,0.0,0.0,0.0,0.0,0.0,0.0,0.0,0.0,0.0,0.0,0.0,0.0,0.0,0.0,0.0,0.0,0.0,0.0,0.0,0.0,0.0,0.0,0.0,0.0,0.0,0.0,0.0,0.0,0.0,0.0,0.0,0.0,0.0,0.0,0.0,0.0,0.0,0.0,0.0,0.0,0.0,0.0,0.0,0.0,-0.9045,-0.3746,0.3296,1.0401,1.7568,2.2114,2.4529,2.4733,2.1774,1.8313,1.4544,0.0,0.0,0.0,0.0,0.0,0.0,0.0,0.0,0.0,0.0,0.0,0.0,0.0,0.0,0.0,0.0,0.0,0.0,0.0,0.0,0.0,0.0,0.0,0.0,0.0,0.0,-0.1763,-0.098,-0.0518,0.0,0.0,0.0,0.0,0.0,0.0,0.0,0.0,0.0,0.0,0.6089,0.4511,0.2783,0.0891,-0.0902,-0.2546,-0.4033,-0.52,-0.5979,-0.6396,-0.6667,0.0,0.0,0.0,0.0,0.0,0.0,0.0,0.0,0.0,0.0,0.0,0.0,0.0,0.0,0.0,0.0,0.0,0.0,0.0,0.0,0.0,0.0,0.0,0.0,0.0,0.0,0.0,-2.5139,-2.4647,0.0,0.0,0.0,0.0,0.0,0.0,0.0,0.0,0.0,0.0,0.0,-1.9404,-1.9293,0.0,0.0,0.0,0.0,0.0,0.0,0.0,0.0,0.0,0.0,0.0,0.0,-1.0453,-0.5285,0.1408,0.855,1.6082,2.1107,2.4102,2.4931,2.2139,1.8191,1.3003,0.0,0.0,0.0,0.0,0.0,0.0,0.0,0.0,0.0,0.0,0.0,0.0,0.0,0.0,0.0,0.0,0.0,0.0,0.0,0.0,0.0,0.0,0.0,0.0,0.0,-0.7256,0.0,0.0,0.0,0.0,0.0,0.0,0.0,0.0,0.0,0.0,0.0,0.3159,0.2271,0.1372,0.0354,-0.0882,-0.2703,-0.4738,0.0,0.0,0.0,0.0,0.0,0.0,0.0,0.0,0.0,0.0,0.0,0.0,0.0,0.0,0.0561,0.2826,0.3606,0.3968,0.4212,0.0,0.0,0.0,0.0,0.0,0.0,0.0,0.0,0.0,0.0,0.0,0.0,0.0,0.0,0.0,0.0,-2.3983,0.0,0.0,0.0,0.0,0.0,0.0,0.0,0.0,-2.0334,-2.0031,-1.9546,-1.9391,-1.8964,0.0,-1.8251,-1.7874,0.0,0.0,0.0,0.0,0.0,0.0,0.0,0.0,-1.1471,-0.6716,-0.0175,0.6972,1.4678,2.0158,2.3625,2.5019,2.1338,1.7014,1.2177,0.9856,0.7799,0.0,0.0,0.0,0.0,0.0,0.0,0.0,0.0,0.0,0.0,0.0,0.0,0.0,0.0,0.0,0.0,0.0,0.0,0.0,0.0,0.0,0.0,0.0,-1.2629,0.0,0.0,0.0,0.0,0.0,0.0,0.0,0.0,0.0,-0.3485,-0.2541,-0.2671,-0.3107,-0.3633,-0.4255,-0.5052,0.0,0.0,0.0,0.0,0.0,0.0,0.0,-0.9852,-0.9342,-0.902,-0.8453,-0.7367,-0.6173,-0.5208,-0.439,0.0,0.0,-0.0293,0.0585,0.0953,0.1034,0.1035,0.104,0.0755,0.0758,0.061,0.0,0.0,0.0,0.0,0.0,0.0,0.0,0.0,-2.5844,-2.5454,0.0,-2.4255,0.0,0.0,0.0,0.0,0.0,0.0,0.0,0.0,-2.0382,-2.0102,-1.9552,-1.9052,-1.8625,-1.8278,-1.8267,-1.8012,-1.7526,-1.7639,0.0,0.0,0.0,0.0,0.0,0.0,-1.2151,-0.7914,-0.1444,0.5737,1.347,1.9228,2.3137,2.4917,1.9549,1.5137,1.2172,1.006,0.7811,0.5445,0.5408,0.0,0.0,0.0,0.0,0.0,0.0,0.0,0.0,0.0,0.0,0.0,0.0,0.0,0.0,0.0,0.0,0.0,0.0,0.0,0.0,-1.6735,0.0,0.0,0.0,0.0,0.0,0.0,0.0,0.0,0.0,0.0,-1.0107,-0.908,-0.8857,-0.857,0.0,0.0,0.0,0.0,-1.0295,-1.0559,-1.0726,-1.0738,-1.0588,-1.0663,-1.0663,-1.0212,0.0,0.0,-0.8008,-0.7169,-0.6395,-0.5696,-0.4913,-0.4037,-0.2805,-0.2036,-0.167,-0.1625,-0.1631,-0.1792,-0.2105,-0.2024,-0.2029,-2.8327,0.0,0.0,0.0,0.0,-2.7557,-2.7228,-2.6832,-2.6038,-2.5507,-2.5191,-2.4261,0.0,0.0,0.0,0.0,0.0,0.0,-2.1069,-2.0571,-2.0066,-1.9542,-1.8999,-1.8452,-1.803,-1.7733,-1.7579,-1.7446,-1.7301,-1.7211,-1.7105,-1.6943,0.0,0.0,0.0,0.0,-1.1608,-0.7486,-0.1653,0.5106,1.2657,1.8555,2.2424,2.4085,2.0032,1.6213,1.2823,1.0597,0.8321,0.5856,0.5365,0.0,0.0,0.0,0.0,0.0,0.0,0.0,0.0,0.0,0.0,0.0,0.0,0.0,0.0,0.0,0.0,0.0,0.0,0.0,-1.9148,-2.0859,-2.1925,0.0,0.0,0.0,0.0,0.0,0.0,0.0,0.0,0.0,-2.0127,-1.6569,-1.4054,0.0,0.0,-1.3186,-1.3114,-1.2715,-1.2405,-1.2211,0.0,0.0,0.0,-1.1037,-1.0812,-1.0067,-0.9463,-0.878,-0.8174,-0.7488,-0.6795,-0.5938,-0.5479,-0.5076,-0.4426,-0.3793,-0.3413,-0.3513,-0.3595,-0.3675,-0.391,-0.3912,-0.3912,-2.7607,-2.7668,-2.7801,-2.7711,-2.7371,-2.7221,-2.6941,-2.6536,-2.581,-2.524,-2.4642,-2.3971,-2.3392,-2.2905,-2.2022,0.0,0.0,0.0,-2.0709,-2.0156,-1.9592,-1.8963,-1.841,-1.7833,-1.739,-1.7145,-1.6909,-1.674,-1.6673,-1.6446,-1.6245,-1.5978,0.0,0.0,-1.4405,-1.3138,-1.0696,-0.7092,-0.1563,0.4775,1.1938,1.9215,2.3403,2.416,2.1102,1.765,1.4066,1.1728,0.9199,0.6431,0.5658,0.5047,0.0,0.0,0.0,0.0,0.0,0.0,0.0,0.0,0.0,0.0,0.0,-1.0179,0.0,0.0,0.0,0.0,-1.8668,-2.0682,-2.2718,-2.41,0.0,0.0,0.0,0.0,0.0,0.0,0.0,-2.6512,-2.6198,-2.6038,-2.5986,-2.3053,-2.0219,-1.8309,-1.7466,-1.6665,-1.5661,0.0,-1.381,-1.3039,-1.2452,-1.1781,-1.1037,-1.0732,-1.0207,-0.9301,-0.8627,-0.8089,-0.7553,-0.7022,-0.6483,-0.5786,-0.5398,-0.509,-0.4937,-0.4462,-0.4226,-0.4696,-0.4854,-0.4932,-0.5012,-0.501,-0.501,-2.6534,-2.6791,-2.7215,-2.6995,-2.6351,-2.6275,-2.6031,-2.5659,-2.539,-2.4721,-2.3764,-2.3421,-2.2732,-2.1841,-2.1334,0.0,0.0,-2.0409,-2.0016,-1.95,-1.8939,-1.8405,-1.7799,-1.7255,-1.6804,-1.657,-1.6228,-1.5931,-1.5758,-1.54,-1.4982,-1.4542,-1.4983,-1.46,-1.3398,-1.1828,-0.9562,-0.6595,-0.1215,0.4994,1.2105,2.0802,2.5369,2.5299,2.2551,1.9357,1.5828,1.3279,1.0499,0.7363,0.6341,0.5359,0.4197,0.0,0.0,0.0,0.0,0.0,0.0,0.0,0.0,0.0,0.0,0.0,0.0,0.0,0.0,0.0,-2.2684,0.0,-2.5532,-2.664,0.0,0.0,0.0,-2.8803,-2.8862,-2.8911,-2.885,-2.8692,0.0,0.0,0.0,0.0,-2.6519,-2.283,-2.1296,-1.9641,-1.7464,-1.5913,-1.4522,-1.2806,-1.1922,-1.1025,-0.997,-0.9437,-0.8827,-0.7995,-0.7548,-0.7011,-0.6546,-0.6089,-0.5709,-0.5398,-0.4776,-0.4465,-0.4621,-0.4307,-0.4302,-0.4929,-0.5246,-0.5482,-0.5404,-0.5323,-0.5243,-2.5398,-2.5481,-2.5586,-2.6069,-2.6737,-2.6636,-2.6382,-2.6029,-2.5208,-2.4399,-2.3607,-2.2606,-2.1626,-2.0633,-2.0396,-2.008,-1.9734,-1.9527,-1.9174,-1.8602,-1.8267,-1.7776,-1.7179,-1.6673,-1.6343,-1.6046,-1.5642,-1.5225,-1.4824,-1.4323,-1.3708,-1.2862,-1.2235,-1.1989,-1.2079,-1.0263,-0.7914,-0.5062,-0.0259,0.7265,1.7562,2.2794,2.573,2.6384,2.4315,2.1686,1.8533,1.5624,1.2746,0.9888,0.818,0.6349,0.4219,0.2657,0.0,0.0,0.0,0.0,0.0,0.0,0.0,0.0,0.0,-1.488,-1.6407,0.0,-2.0289,0.0,-2.4764,-2.694,-2.749,-2.8502,0.0,0.0,-2.9537,-2.9683,-2.9652,-2.9647,-2.9602,-2.953,-2.9425,-2.9748,-3.0753,-3.0148,-2.8936,-2.7027,-2.3993,-2.0908,-1.8045,-1.5553,-1.3317,-1.1347,-0.9852,-0.8808,-0.7736,-0.6904,-0.6213,-0.5986,-0.5604,-0.5458,-0.5625,-0.5401,-0.5174,-0.5101,-0.4948,-0.4631,-0.4077,-0.3919,-0.3917,-0.4151,-0.4462,-0.4696,-0.4696,-0.454,-0.4382,-2.4137,-2.4137,-2.4137,-2.4513,-2.5093,-2.5604,-2.57,-2.5425,-2.4653,-2.3688,-2.2671,-2.1094,-2.0037,-1.9463,-1.9242,-1.8992,-1.8632,-1.8578,-1.8213,-1.7722,-1.7379,-1.7056,-1.656,-1.6036,-1.5633,-1.5352,-1.4756,-1.4222,-1.3734,-1.2992,-1.2181,-1.1253,-1.011,-0.9394,-0.9168,-0.8009,-0.6124,-0.3436,0.2991,1.0632,1.9335,2.3352,2.5934,2.7155,2.5841,2.3895,2.1495,1.8521,1.5739,1.321,1.1099,0.8794,0.6224,0.4836,0.3245,0.0,0.0,0.0,0.0,0.0,0.0,0.0,0.0,0.0,0.0,0.0,-2.31,0.0,0.0,0.0,-2.8969,-2.9516,-2.9857,-2.9843,-2.9814,-2.9745,-2.9672,-2.9566,-2.9407,-2.9357,-2.9224,-2.9653,-3.1014,-3.0812,-2.9682,-2.7469,-2.346,-1.9785,-1.7035,-1.3922,-1.0924,-0.8641,-0.7064,-0.5701,-0.4479,-0.3795,-0.3258,-0.3105,-0.2874,-0.2798,-0.2882,-0.273,-0.2577,-0.25,-0.2425,-0.2267,-0.1798,-0.1563,-0.1563,-0.1563,-0.1719,-0.2186,-0.3127,-0.3363,-0.3129,-2.2834,-2.2834,-2.2834,-2.2701,-2.2567,-2.3677,-2.4168,-2.415,-2.3728,-2.2738,-2.1299,-1.9341,-1.8405,-1.8244,-1.7984,-1.7699,-1.749,-1.7435,-1.7157,-1.6719,-1.6425,-1.6151,-1.5816,-1.5225,-1.4815,-1.441,-1.3683,-1.3009,-1.2512,-1.1516,-1.0564,-0.9666,-0.8249,-0.695,-0.5774,-0.5301,-0.3769,-0.1058,0.7083,1.3908,1.9229,2.3169,2.601,2.7708,2.7119,2.6021,2.4466,2.1599,1.9095,1.7014,1.4658,1.2131,0.9473,0.7941,0.6424,0.0,0.1771,0.0,0.0,0.0,0.0,0.0,0.0,0.0,0.0,-2.3813,-2.5875,-2.8082,-2.9071,-2.9634,-2.986,-2.9792,-2.9676,-2.9558,-2.936,-2.9178,-2.9063,-2.8711,-2.8458,-2.8368,-2.8073,-2.8466,-2.977,-2.9897,-2.8267,-2.3665,-1.8964,-1.4584,-1.2243,-0.9405,-0.6986,-0.4712,-0.3128,-0.1452,-0.046,-0.0077,0.0155,0.0464,0.0464,0.0543,0.0776,0.0854,0.1011,0.14,0.1635,0.1793,0.1717,0.1951,0.2106,0.2184,0.2105,0.1325,-0.0859,-0.1563,-0.1484,-2.1353,-2.1255,-2.1267,-2.1141,-2.1014,-2.098,-2.1545,-2.2518,-2.2274,-2.1199,-1.9598,-1.8036,-1.7268,-1.709,-1.6687,-1.6415,-1.6197,-1.6073,-1.5728,-1.5264,-1.5255,-1.4914,-1.4382,-1.4034,-1.3563,-1.313,-1.2451,-1.1703,-1.0892,-1.004,-0.9018,-0.7877,-0.6502,-0.512,-0.3732,0.0,0.0,0.0,0.9334,1.4265,1.8977,2.2869,2.5891,2.795,2.8062,0.0,2.7313,2.4547,2.2248,2.0535,1.8286,0.0,0.0,0.0,0.0,0.0,0.0,0.0,0.0,0.0,0.0,0.0,-2.1996,-2.4729,-2.4564,-2.6251,-2.7866,-2.9101,-2.932,-2.9303,-2.9206,-2.8974,-2.87,-2.8384,-2.8018,-2.7622,-2.7189,-2.6703,-2.6247,-2.5839,-2.5392,-2.5489,-2.6113,-2.4559,-2.0517,-1.4248,-0.9291,-0.355,0.3705,0.1057,-0.044,0.1495,0.3156,0.4169,0.4639,0.4654,0.4586,0.4602,0.438,0.4229,0.4153,0.4162,0.4714,0.5819,0.6224,0.6227,0.6234,0.6318,0.6153,0.6318,0.6234,0.5132,0.1713,0.1015,0.125,-1.9944,0.0,-1.9661,-1.953,0.0,-1.9069,-1.9236,-1.9673,-2.0213,-1.9506,-1.7901,-1.6519,-1.5833,-1.5583,-1.5303,-1.5021,-1.4728,-1.461,-1.4364,-1.3957,-1.3777,-1.3537,-1.3243,-1.2749,-1.2251,-1.1811,-1.0996,-1.0179,-0.9221,-0.8249,-0.721,-0.5978,-0.4662,-0.3268,-0.1734,0.1128,0.3964,0.6698,1.054,1.4625,1.883,2.2539,2.552,2.7752,0.0,0.0,0.0,0.0,0.0,0.0,0.0,0.0,0.0,0.0,0.0,1.4184,1.2346,0.9731,0.5918,-0.1563,-0.7898,-1.2141,-2.0301,-2.5628,-2.6568,-2.7529,-2.8142,-2.8427,-2.8171,-2.7846,-2.7537,-2.7051,-2.6566,-2.6202,-2.5618,-2.5017,-2.4425,-2.3651,-2.2937,-2.2295,-2.1447,-2.0995,-2.1069,-1.8686,-1.4234,-0.7519,-0.1911,0.4291,1.1035,0.9378,0.7112,0.8543,0.9206,0.9741,0.9774,0.9593,0.9406,0.9269,0.899,0.8709,0.8491,0.8431,0.8622,0.921,0.9301,0.9306,0.9241,0.9175,0.911,0.9105,0.9025,0.8543,0.6446,0.5092,0.4115,-1.8345,-1.8277,-1.8152,-1.7813,-1.7463,-1.7472,-1.7111,-1.6609,0.0,0.0,0.0,-1.5028,-1.4369,-1.4058,-1.3828,-1.3537,-1.3166,-1.3045,-1.2862,-1.2504,-1.2189,-1.2004,-1.1881,-1.1253,-1.0683,-1.0166,-0.9348,-0.8382,-0.7339,-0.6371,-0.5252,-0.3995,-0.2737,-0.1202,0.0799,0.4243,0.6733,0.8302,1.1465,1.5025,1.8808,2.2098,2.4962,2.7378,2.8427,2.8962,2.8897,2.827,2.7407,2.6286,2.5302,2.4194,2.2944,2.1909,2.0753,1.9484,1.7999,1.6059,1.3403,0.4964,-0.253,-0.7868,-1.7252,-2.4166,-2.7275,-2.7422,-2.7151,-2.6662,-2.6114,-2.5569,-2.5129,-2.4372,-2.3721,-2.3343,-2.2491,-2.1686,-2.0968,-1.9924,-1.8916,-1.8045,-1.67,-1.5531,-1.4712,-1.1966,-0.7539,-0.077,0.5713,1.1654,1.7136,1.6705,1.4753,1.5496,1.5498,1.5294,1.5061,1.4687,1.434,1.4202,1.3754,1.3457,1.3267,1.3013,1.2756,1.2469,1.2281,1.2215,1.2078,1.1946,1.1674,1.1674,1.1681,1.1767,1.1653,0.9909,0.8182,-1.6706,-1.6419,-1.6349,-1.6149,-1.5816,-1.5613,-1.518,-1.4506,-1.5515,-1.5526,-1.4815,-1.3691,-1.3032,-1.2749,-1.2128,-1.1819,-1.1757,-1.1322,-1.108,0.0,-1.0501,-1.0116,-0.9673,-0.9163,-0.8586,-0.7877,-0.7154,-0.6306,-0.5256,-0.4331,-0.3272,-0.2003,-0.0602,0.1534,0.4455,0.6555,0.8617,1.0705,1.2655,1.5332,1.8651,2.1549,2.4207,2.6623,2.7936,2.8833,2.9285,2.9191,2.8924,2.8384,2.7735,2.7036,2.6325,2.5614,2.495,2.4167,2.3123,2.0594,1.6206,0.9185,-0.0009,-1.1282,-1.5647,-1.9599,-2.4487,-2.4644,-2.4216,-2.3655,-2.2848,-2.2188,-2.1585,-2.0823,-2.006,-1.9416,-1.8499,-1.7538,-1.6432,-1.5258,-1.4011,-1.2782,-1.1199,-0.9498,-0.7694,-0.3843,0.2211,1.0337,1.5374,2.1129,2.6126,2.5235,2.2325,2.1898,2.1469,2.102,2.0486,1.998,1.9474,1.923,1.8638,1.8124,1.7841,1.7488,1.713,1.6701,1.6441,1.6197,1.6002,1.5704,1.5566,1.5566,1.5575,1.5514,1.5553,1.5068,1.4112,-1.4871,-1.4577,-1.4514,-1.4299,-1.3867,-1.3578,-1.3077,-1.2471,-1.2755,-1.2976,-1.2989,-1.2189,-1.1482,-1.0878,-1.0564,-1.0186,-0.9875,-0.9627,-0.9302,-0.8971,-0.865,-0.8259,-0.7797,-0.7214,-0.6559,-0.5774,-0.5117,-0.4193,-0.3068,-0.227,-0.1202,0.02,0.2132,0.4188,0.6371,0.8179,1.0027,1.1905,1.3493,1.5659,1.8458,2.1055,2.3473,2.5631,2.705,2.8177,2.8995,2.9261,2.9372,2.9298,2.9024,2.8722,2.8368,2.8001,2.7592,2.717,2.6593,2.5172,2.2699,1.4103,0.4426,-0.5983,-0.9353,-1.2078,-1.5233,-1.8202,-1.9731,-1.93,-1.8532,-1.7831,-1.7203,-1.6328,-1.5515,-1.4889,-1.3754,-1.2637,-1.1551,-1.0233,-0.8865,-0.733,-0.5488,-0.3411,-0.1205,0.3625,0.9223,1.6434,2.2514,2.8508,3.2409,3.1036,2.8702,2.7169,2.6243,2.5678,2.525,2.4647,2.4054,2.3729,2.3162,2.2649,2.2297,2.1866,2.1356,2.0897,2.0626,2.0353,2.0093,1.9783,1.9552,1.951,1.9457,1.9372,1.9339,1.935,1.8223,-1.3004,-1.2785,-1.2638,-1.2345,-1.197,-1.1446,-1.0995,-1.0559,-1.0179,-1.0294,-1.0571,-1.0356,-0.9892,-0.9133,-0.8877,-0.8533,-0.8027,-0.7832,-0.7497,-0.7093,-0.6645,-0.6244,-0.5771,-0.5114,-0.4455,-0.373,-0.3066,-0.2134,-0.1002,-0.0134,0.1069,0.2666,0.4788,0.6567,0.8001,0.9572,1.121,1.2838,1.4359,1.6146,1.8272,2.0603,2.2688,2.4576,2.6049,2.7297,2.8301,2.8868,2.9257,2.9494,2.9582,2.9565,2.9462,2.933,2.9157,2.898,2.8672,2.7749,2.5792,1.7537,0.8931,0.1439,-0.2102,-0.4433,-0.5982,-1.0036,-1.3271,-1.3951,-1.3523,-1.2857,-1.2323,-1.1426,-1.0576,-0.9912,-0.8807,-0.7619,-0.6533,-0.513,-0.3682,-0.203,0.0,0.2245,0.5265,0.9585,1.4902,2.0856,2.7722,3.2463,3.3868,3.4296,3.3388,3.176,3.0354,2.9587,2.9181,2.8582,2.8017,2.7729,2.7195,2.666,2.6234,2.5872,2.5469,2.4889,2.4598,2.4327,2.4052,2.3646,2.3376,2.3319,2.3147,2.3007,2.2837,2.2814,2.1765,-1.123,-1.1007,-1.0783,-1.0484,-1.004,-0.9357,-0.8978,-0.8827,-0.8143,-0.7572,-0.7436,-0.825,-0.8319,-0.7774,-0.7065,-0.6666,-0.6535,-0.5932,-0.5533,-0.5266,-0.4607,-0.4008,-0.3535,-0.2804,-0.2072,-0.1404,-0.0669,0.0134,0.107,0.2003,0.3529,0.5585,0.6898,0.8254,0.9717,1.1008,1.2421,1.4016,1.5419,1.6869,1.8377,2.0104,2.1885,2.3762,2.4992,2.6202,2.7285,2.794,2.8529,2.8952,2.9183,2.9349,2.9365,2.9379,2.93,2.9126,2.8655,2.6554,2.2118,1.7339,1.2593,0.8232,0.4662,0.2162,0.0577,-0.0584,-0.3363,-0.704,-0.7886,-0.7546,-0.7091,-0.6337,-0.5575,-0.4874,-0.3867,-0.2724,-0.1422,-0.013,0.1299,0.3033,0.4836,0.703,0.9538,1.3515,1.8954,2.5368,2.9278,3.2411,3.3658,3.4372,3.4715,3.4257,3.3522,3.2599,3.2083,3.1762,3.1188,3.089,3.0589,3.0023,2.9543,2.9182,2.8903,2.8268,2.8086,2.7751,2.7534,2.7342,2.6954,2.6713,2.6494,2.6258,2.6133,2.601,2.4773,-0.9281,-0.8974,-0.8822,-0.8371,-0.7838,-0.7375,-0.6992,-0.6608,-0.6224,-0.5653,-0.5056,-0.5297,-0.56,-0.5892,-0.5395,-0.4993,-0.4515,-0.411,-0.3678,-0.3278,-0.2676,-0.214,-0.1538,-0.0869,-0.0201,0.0536,0.1272,0.214,0.3205,0.459,0.6167,0.7543,0.8586,0.9742,1.1058,1.2188,1.3408,1.4619,1.6016,1.7313,1.8478,1.9978,2.1418,2.2819,2.4056,2.518,2.6134,2.6882,2.7469,2.7982,2.8294,2.8453,2.8566,2.8498,2.8364,2.8093,2.6795,2.4677,2.1522,1.8371,1.524,1.1929,0.9361,0.7228,0.5751,0.4919,0.3405,0.127,-0.1149,-0.2386,-0.2068,-0.1425,-0.0649,0.0065,0.0977,0.203,0.3177,0.4387,0.5747,0.7312,0.9256,1.1281,1.3761,1.7944,2.2764,2.7426,3.0032,3.1817,3.3136,3.3954,3.4523,3.4797,3.4539,3.427,3.3954,3.3688,3.3361,3.3123,3.282,3.242,3.2121,3.184,3.1535,3.1219,3.0817,3.0506,3.0277,3.0074,2.9772,2.9585,2.9333,2.9005,2.8806,2.8706,2.7844,-0.7374,-0.7053,-0.6707,-0.623,-0.569,-0.5452,-0.5065,-0.4525,-0.4292,-0.3746,-0.3041,-0.2683,-0.2788,-0.3318,-0.3432,-0.3242,-0.2672,-0.2263,-0.1828,-0.1287,-0.074,-0.0201,0.0401,0.107,0.174,0.2477,0.3209,0.4201,0.5453,0.6898,0.827,0.9227,1.0066,1.108,1.2266,1.3356,1.4305,1.5313,1.6539,1.7667,1.8632,1.9812,2.1002,2.2146,2.3288,2.4271,2.5109,2.5796,2.6387,2.6862,2.7174,2.735,2.7461,2.7368,2.7143,2.6629,2.5125,2.3351,2.1476,1.9383,1.7158,1.4811,1.2943,1.1476,1.0349,0.9536,0.9122,0.8544,0.5933,0.4014,0.2836,0.3434,0.4175,0.4803,0.5745,0.6713,0.7734,0.8857,1.004,1.1419,1.3141,1.5284,1.7712,2.1504,2.5254,2.7747,2.9685,3.1216,3.2364,3.3259,3.3956,3.4453,3.4726,3.4921,3.5009,3.4797,3.4699,3.4606,3.4293,3.4084,3.3979,3.3733,3.3548,3.3001,3.2936,3.2775,3.2423,3.2224,3.1973,3.1835,3.155,3.1253,3.1018,3.0939,3.0764,-0.5405,-0.5143,-0.4496,-0.4066,-0.3828,-0.3441,-0.2973,-0.2579,-0.2192,-0.1801,-0.1328,-0.0703,-0.0234,-0.0078,-0.089,-0.1234,-0.094,-0.0352,0.0139,0.0556,0.1156,0.1878,0.2544,0.3276,0.3946,0.4625,0.5338,0.6445,0.7941,0.872,0.9685,1.071,1.1392,1.2258,1.3373,1.4255,1.5196,1.6187,1.7157,1.8007,1.8786,1.9592,2.0633,2.1718,2.2634,2.3448,2.4236,2.4776,2.5265,2.5677,2.5969,2.6129,2.6183,2.6183,2.5815,2.4978,2.4092,2.2907,2.1445,2.0054,1.8478,1.6834,1.5888,1.5037,1.3834,1.3542,1.3276,1.3142,1.2495,1.0975,0.8363,0.8118,0.8671,0.9468,1.0282,1.1155,1.2223,1.2905,1.4204,1.5289,1.6678,1.8725,2.1863,2.3879,2.5872,2.7806,2.938,3.062,3.165,3.2553,3.3211,3.3771,3.4229,3.4694,3.5204,3.5191,3.523,3.5171,3.5037,3.5152,3.5088,3.4962,3.4793,3.4645,3.4401,3.4243,3.4225,3.4043,3.3659,3.3445,3.3272,3.3086,3.2723,3.2769,3.2545,-0.3447,-0.2995,-0.2488,-0.2141,-0.1879,-0.1487,-0.1096,-0.0704,-0.0391,0.0078,0.0704,0.1174,0.1565,0.211,0.215,0.1736,0.1188,0.1593,0.2075,0.2571,0.3184,0.3802,0.4421,0.5043,0.5677,0.6412,0.6973,0.8016,0.9494,1.0312,1.1128,1.2012,1.2687,1.3468,1.4382,1.5099,1.5864,1.6627,1.7446,1.8116,1.8798,1.9592,2.0346,2.0993,2.2002,2.283,2.3463,2.4051,2.4508,2.4816,2.498,2.5134,2.5265,2.5019,2.4505,2.3834,2.339,2.2752,2.178,2.1106,2.0202,1.9057,1.8195,1.7438,1.6778,1.6278,1.5914,1.5834,1.5706,1.4985,1.4391,1.3126,1.2482,1.2925,1.3549,1.4277,1.5136,1.5935,1.6825,1.7899,1.9556,2.1758,2.3619,2.5268,2.663,2.8036,2.9223,3.021,3.106,3.1899,3.2577,3.3057,3.3524,3.3966,3.4415,3.495,3.52,3.5308,3.5314,3.5315,3.5273,3.5291,3.5134,3.5094,3.5096,3.5059,3.487,3.4787,3.4588,3.4535,3.4414,3.424,3.4111,3.3919,3.3764,-0.1339,-0.0903,-0.041,-0.0081,0.0079,0.0396,0.0788,0.1175,0.1331,0.1879,0.2662,0.2973,0.3439,0.3988,0.4688,0.4645,0.3798,0.3786,0.3962,0.4613,0.5087,0.5708,0.6328,0.6863,0.7504,0.824,0.8981,1.0015,1.1196,1.2015,1.2727,1.3384,1.397,1.4561,1.5235,1.5806,1.6457,1.7088,1.7755,1.8356,1.8934,1.9592,2.0156,2.061,2.1396,2.217,2.2814,2.329,2.3726,2.4006,2.4101,2.4317,2.4647,2.4554,2.4194,2.3635,2.3382,2.2958,2.227,2.1856,2.1263,2.0595,1.9983,1.9442,1.8973,1.8644,1.8459,1.8406,1.8344,1.848,1.8542,1.7516,1.6567,1.6327,1.6725,1.7278,1.7981,1.867,1.9532,2.0674,2.2147,2.3817,2.5094,2.6158,2.7166,2.8207,2.9104,2.9908,3.0633,3.1266,3.1878,3.2435,3.2872,3.3259,3.3637,3.4116,3.4697,3.4889,3.5129,3.5243,3.5344,3.5398,3.5455,3.5469,3.5506,3.5523,3.549,3.5431,3.5352,3.5282,3.5176,3.4993,3.4917,3.4846,3.462,0.0942,0.1259,0.1677,0.1903,0.2028,0.2269,0.2721,0.3066,0.3139,0.3608,0.4382,0.4768,0.5231,0.5699,0.6468,0.6927,0.6801,0.6067,0.5932,0.6441,0.6901,0.7548,0.8255,0.879,0.9516,1.0266,1.1451,1.2393,1.3091,1.3786,1.4294,1.4693,1.5198,1.5708,1.5992,1.6535,1.7062,1.7779,1.8311,1.8797,1.9198,1.9728,2.0181,2.0552,2.1067,2.167,2.2283,2.2672,2.3065,2.3393,2.3526,2.3777,2.4462,2.4796,2.4859,2.4318,2.396,2.3475,2.2897,2.2317,2.1881,2.1398,2.1296,2.1128,2.0754,2.0923,2.1019,2.0791,2.0837,2.0991,2.1032,2.0963,2.0504,1.9792,1.9587,2.0106,2.0818,2.1461,2.2303,2.3531,2.4443,2.5231,2.5974,2.6654,2.7414,2.8207,2.8889,2.9589,3.0208,3.0788,3.13,3.1787,3.2283,3.2716,3.297,3.3266,3.387,3.4423,3.4715,3.4932,3.5053,3.5136,3.524,3.5281,3.5429,3.5466,3.5547,3.5508,3.558,3.5542,3.5588,3.5573,3.5443,3.5311,3.5268,0.28,0.2831,0.3514,0.389,0.3983,0.4229,0.4582,0.5042,0.5039,0.5469,0.6099,0.6391,0.6853,0.7314,0.7931,0.8385,0.8832,0.876,0.859,0.8346,0.8733,0.9364,1.0003,1.0581,1.1318,1.2255,1.3035,1.3776,1.4444,1.5033,1.5597,1.6084,1.6566,1.7114,1.7603,1.8051,1.8533,1.9068,1.9527,1.9969,2.0336,2.0722,2.1104,2.1427,2.1759,2.2179,2.2695,2.3014,2.3435,2.4019,2.4418,2.463,2.4573,2.4537,2.4341,2.4016,2.3939,2.3784,2.3512,2.3328,2.311,2.2799,2.2558,2.2333,2.208,2.2078,2.2051,2.2013,2.2063,2.2175,2.2322,2.2482,2.2139,2.1078,2.1467,2.191,2.2333,2.3007,2.3871,2.4681,2.5272,2.5879,2.6457,2.7034,2.766,2.8253,2.8811,2.9393,2.9881,3.0393,3.0804,3.1261,3.1731,3.2161,3.2437,3.2716,3.3183,3.3744,3.4097,3.4502,3.4642,3.4812,3.4931,3.5105,3.5264,3.5403,3.5491,3.5587,3.5622,3.5692,3.5659,3.5683,3.5728,3.5654,3.556,0.461,0.4816,0.5252,0.5703,0.5933,0.6182,0.6433,0.6877,0.6943,0.7255,0.7749,0.8108,0.8449,0.8856,0.9377,0.9825,1.0196,1.0732,1.0807,1.0501,1.0496,1.1025,1.1607,1.2387,1.313,1.3876,1.4519,1.5111,1.5855,1.6374,1.6831,1.7292,1.7779,1.8164,1.8577,1.8999,1.9417,1.976,2.0216,2.0632,2.0905,2.1313,2.1648,2.1898,2.2143,2.2641,2.3192,2.354,2.3825,2.4275,2.4884,2.5113,2.4862,2.4821,2.4741,2.4496,2.4368,2.424,2.4056,2.3979,2.3891,2.37,2.339,2.3138,2.3005,2.2896,2.2836,2.2969,2.3005,2.3173,2.3305,2.3518,2.3314,2.2761,2.2955,2.3359,2.3717,2.4399,2.4984,2.5494,2.592,2.6379,2.6803,2.7306,2.784,2.8284,2.8732,2.9182,2.9633,3.007,3.0477,3.0902,3.1334,3.1674,3.1894,3.2197,3.2537,3.2991,3.346,3.3876,3.4162,3.4338,3.4475,3.4756,3.4952,3.5113,3.5213,3.5392,3.5476,3.5568,3.5638,3.569,3.5698,3.5774,3.5703,0.6511,0.6956,0.7136,0.7483,0.7777,0.8033,0.8271,0.8617,0.8841,0.9048,0.9365,0.9849,1.0055,1.0279,1.0877,1.1228,1.1335,1.1996,1.2519,1.2586,1.2512,1.2586,1.3091,1.4053,1.4735,1.5246,1.5817,1.6462,1.7154,1.7629,1.8098,1.825,1.8722,1.8984,1.9166,1.9434,1.9861,2.0264,2.0604,2.0952,2.1227,2.1487,2.1837,2.2116,2.2363,2.286,2.3643,2.4,2.4147,2.4259,2.502,2.5365,2.5293,2.5652,2.5617,2.5315,2.5147,2.4838,2.4593,2.4305,2.4125,2.3995,2.3806,2.3628,2.3616,2.3616,2.3616,2.376,2.3878,2.3982,2.4131,2.435,2.4394,2.4509,2.4247,2.4464,2.5097,2.5508,2.5723,2.6076,2.651,2.6899,2.7041,2.7488,2.789,2.8186,2.8605,2.9059,2.9409,2.9826,3.0258,3.0634,3.0998,3.1312,3.1562,3.1821,3.2127,3.2468,3.288,3.3241,3.3707,3.391,3.4105,3.4379,3.4617,3.4775,3.4939,3.5101,3.5268,3.5335,3.5441,3.5573,3.5659,3.571,3.5763,0.8009,0.836,0.8794,0.9122,0.9338,0.9602,0.9913,1.0315,1.0445,1.0724,1.1169,1.1431,1.1707,1.2024,1.2246,1.2512,1.2868,1.3258,1.368,1.4106,1.433,1.4402,1.4689,1.5259,1.5895,1.6403,1.6821,1.7432,1.8172,1.8452,1.8859,1.9424,1.977,2.0198,2.0517,2.0823,2.1263,2.1594,2.1934,2.2198,2.2365,2.2543,2.2829,2.3122,2.3174,2.3469,2.4125,2.4536,2.4901,2.5107,2.5394,2.5546,2.5451,2.555,2.5522,2.53,2.5018,2.4848,2.4734,2.4563,2.4447,2.439,2.4203,2.4118,2.4118,2.4118,2.4118,2.4247,2.4376,2.4563,2.4664,2.4878,2.5104,2.5439,2.5229,2.5211,2.5604,2.5892,2.6131,2.6562,2.6811,2.7041,2.7299,2.7655,2.7989,2.8186,2.8525,2.892,2.9213,2.9576,3.0017,3.0316,3.0634,3.0918,3.1213,3.1466,3.1765,3.1985,3.2332,3.266,3.3148,3.3569,3.3823,3.4087,3.4237,3.4405,3.4614,3.4794,3.4924,3.5076,3.5234,3.5355,3.5496,3.5582,3.5674,0.9501,0.9937,1.0193,1.0544,1.0982,1.1235,1.1508,1.1905,1.2194,1.2459,1.2737,1.3008,1.3257,1.3565,1.3698,1.3899,1.4213,1.4483,1.484,1.5251,1.5824,1.5903,1.5912,1.6254,1.6881,1.7364,1.7706,1.825,1.8854,1.9198,1.9594,2.0107,2.0593,2.0914,2.1227,2.1726,2.1987,2.2247,2.2567,2.286,2.2909,2.3017,2.3258,2.3497,2.3543,2.3839,2.4363,2.4721,2.5075,2.53,2.5522,2.5592,2.5494,2.5439,2.5313,2.5174,2.5005,2.4835,2.4778,2.4721,2.4677,2.462,2.4478,2.4421,2.4421,2.4465,2.4523,2.4593,2.4821,2.4948,2.5131,2.5355,2.5674,2.5948,2.5937,2.5938,2.6131,2.6308,2.6547,2.6813,2.7056,2.7196,2.7386,2.7755,2.7955,2.8152,2.8508,2.8779,2.9029,2.9412,2.977,3.006,3.0375,3.0708,3.1002,3.1258,3.1684,3.1898,3.2334,3.2546,3.2879,3.334,3.3455,3.3662,3.385,3.4049,3.425,3.4454,3.4609,3.4774,3.4981,3.5136,3.5254,3.5425,3.5523,1.0895,1.1494,1.1494,1.1929,1.2448,1.279,1.2942,1.3294,1.3853,1.4054,1.4111,1.4543,1.4743,1.4884,1.5118,1.531,1.551,1.5815,1.6084,1.644,1.6927,1.7166,1.6742,1.7226,1.7638,1.8046,1.8442,1.8988,1.9528,1.9802,2.0194,2.0646,2.1031,2.1336,2.1588,2.1987,2.2185,2.2371,2.2678,2.2909,2.2957,2.3078,2.3271,2.3569,2.3688,2.3969,2.4434,2.4734,2.4905,2.5174,2.5369,2.5439,2.5439,2.53,2.523,2.5174,2.5061,2.4948,2.4835,2.4835,2.4848,2.4721,2.4721,2.4677,2.4734,2.4835,2.4948,2.5034,2.5174,2.5411,2.5578,2.5798,2.6056,2.6286,2.6465,2.6562,2.6601,2.6736,2.6894,2.7012,2.7306,2.7401,2.7503,2.7705,2.8005,2.8054,2.8411,2.8732,2.8951,2.9229,2.9531,2.9842,3.0162,3.0492,3.0808,3.1096,3.1579,3.1991,3.2527,3.2841,3.2967,3.3202,3.3136,3.3232,3.3465,3.3689,3.3895,3.4099,3.4325,3.4476,3.4653,3.4793,3.4943,3.5168,3.5321,1.2192,1.2613,1.2875,1.313,1.3476,1.3886,1.4139,1.4391,1.4894,1.5267,1.5539,1.5889,1.6188,1.641,1.6472,1.6679,1.7024,1.7186,1.7378,1.7713,1.8027,1.8192,1.8046,1.8279,1.8405,1.8731,1.9131,1.9594,1.9987,2.0313,2.0635,2.1094,2.1411,2.1726,2.1987,2.2235,2.2482,2.2726,2.286,2.2957,2.3017,2.3078,2.3271,2.3569,2.3819,2.4112,2.439,2.4563,2.4734,2.4892,2.5118,2.5244,2.5174,2.5174,2.5174,2.5118,2.5061,2.5005,2.5005,2.5061,2.5118,2.5061,2.5131,2.5271,2.5312,2.5341,2.5355,2.5425,2.5591,2.5839,2.6056,2.6258,2.6418,2.6621,2.6799,2.6977,2.7045,2.6989,2.7078,2.7232,2.7342,2.7437,2.7524,2.7806,2.797,2.8069,2.833,2.8652,2.8983,2.9217,2.9653,3.0132,3.0384,3.0838,3.1321,3.1616,3.2066,3.2371,3.2831,3.3208,3.331,3.3283,3.3277,3.3184,3.3129,3.3429,3.4032,3.4,3.4326,3.4328,3.4489,3.4861,3.5147,3.5173,3.5432,1.33,1.3808,1.3977,1.423,1.4566,1.4992,1.5242,1.5492,1.6064,1.6484,1.673,1.7009,1.7388,1.7732,1.7785,1.7986,1.8318,1.8527,1.8715,1.8987,1.9303,1.9387,1.9432,1.9458,1.9561,1.947,1.9736,2.0194,2.0571,2.0839,2.1094,2.1549,2.18,2.2049,2.2309,2.2482,2.2726,2.2848,2.2969,2.3017,2.3065,2.3138,2.3258,2.3569,2.3936,2.4229,2.4505,2.4563,2.4734,2.4892,2.5005,2.5061,2.5005,2.5061,2.5118,2.5118,2.5118,2.5188,2.5244,2.5313,2.5313,2.5355,2.5425,2.5536,2.5605,2.5647,2.5716,2.5812,2.5962,2.6165,2.6365,2.6539,2.6727,2.6928,2.7298,2.7587,2.7669,2.7462,2.721,2.7384,2.7429,2.7509,2.7625,2.7971,2.8046,2.8141,2.8832,2.9144,2.9576,2.9895,3.0386,3.0781,3.0932,3.1332,3.1874,3.2314,3.2723,3.3,3.3281,3.3539,3.3723,3.3621,3.3493,3.3511,3.3657,3.4121,3.4564,3.4492,3.459,3.5055,3.5373,3.5436,3.5591,3.5945,3.6228,1.4321,1.4908,1.4901,1.5151,1.565,1.6079,1.6252,1.6409,1.7147,1.7554,1.7635,1.804,1.8327,1.8727,1.8868,1.9141,1.9526,1.9738,1.9895,2.0164,2.0429,2.047,2.0525,2.0769,2.0851,2.0369,2.0455,2.0797,2.1094,2.1296,2.1549,2.1937,2.2111,2.2297,2.2482,2.2726,2.2909,2.2957,2.3017,2.3065,2.3125,2.3125,2.3258,2.3628,2.3936,2.4216,2.4447,2.4549,2.4734,2.4948,2.5005,2.4991,2.5005,2.5005,2.5118,2.523,2.5244,2.5313,2.5425,2.5494,2.5536,2.555,2.5605,2.5661,2.5813,2.5923,2.6016,2.6181,2.6386,2.672,2.6823,2.72,2.7345,2.7527,2.8033,2.8359,2.8464,2.8047,2.7958,2.7912,2.8173,2.8278,2.824,2.8387,2.8278,2.8369,2.9042,2.9647,3.0086,3.0459,3.086,3.1182,3.1292,3.1955,3.2583,3.3243,3.359,3.3785,3.3965,3.4116,3.4363,3.4547,3.4557,3.4351,3.4535,3.4818,3.4989,3.4954,3.525,3.5903,3.5967,3.5782,3.6125,3.6702,3.6921,1.5401,1.5839,1.5831,1.6072,1.6484,1.6984,1.7155,1.731,1.7959,1.8353,1.8505,1.8754,1.9082,1.9399,1.9627,2.011,2.0695,2.0825,2.099,2.1146,2.1378,2.1452,2.1563,2.1978,2.2207,2.2069,2.1655,2.136,2.1504,2.1663,2.1957,2.2159,2.2297,2.2543,2.2726,2.2921,2.2969,2.3017,2.3078,2.3125,2.3125,2.3138,2.3258,2.3628,2.3923,2.4255,2.4416,2.4576,2.4677,2.4835,2.5048,2.5145,2.5297,2.531,2.5382,2.5411,2.5425,2.5494,2.555,2.5647,2.5743,2.5839,2.5964,2.6129,2.624,2.6335,2.6554,2.6687,2.7126,2.7748,2.8448,2.8429,2.8724,2.8934,2.9049,2.9236,2.9319,2.9292,2.9171,2.9227,2.925,2.9086,2.8959,2.8907,2.8996,2.913,2.9672,3.0161,3.0525,3.0807,3.1102,3.1353,3.155,3.2445,3.3337,3.4041,3.4605,3.4762,3.4935,3.505,3.5292,3.5728,3.5732,3.5253,3.4961,3.5027,3.5173,3.5419,3.5661,3.6146,3.6118,3.6079,3.6607,3.7137,3.711,1.6229,1.6648,1.6738,1.6984,1.7302,1.7716,1.7951,1.8184,1.8674,1.8993,1.9231,1.9548,1.9863,2.0098,2.042,2.0964,2.1497,2.1901,2.1988,2.2209,2.2382,2.2528,2.2514,2.2933,2.3064,2.3012,2.2686,2.245,2.2492,2.2448,2.2543,2.2648,2.2714,2.2726,2.2909,2.2969,2.3055,2.3103,2.3163,2.3163,2.3163,2.3283,2.3463,2.3641,2.3988,2.4373,2.4858,2.4944,2.5306,2.5783,2.6085,2.6175,2.6263,2.6238,2.6145,2.5758,2.5689,2.573,2.5771,2.5921,2.6143,2.6578,2.6716,2.7006,2.7328,2.7527,2.7541,2.7831,2.7973,2.855,2.891,2.9182,2.9302,2.9451,2.9704,2.9962,3.0102,3.0398,3.0443,3.0347,2.9894,2.9579,2.9445,2.9537,2.9696,3.0023,3.0342,3.07,3.0973,3.1306,3.1571,3.2029,3.2364,3.2967,3.3806,3.4358,3.4899,3.5198,3.5475,3.5594,3.5728,3.5871,3.5934,3.5721,3.5526,3.5374,3.5922,3.6358,3.6399,3.6434,3.6728,3.6997,3.7239,3.7466,3.7478,1.6968,1.7383,1.7554,1.7716,1.8023,1.8434,1.8674,1.8904,1.9301,1.9618,1.9872,2.0264,2.0576,2.0886,2.1272,2.1731,2.2338,2.2606,2.2883,2.3106,2.3327,2.3503,2.3632,2.3729,2.385,2.3973,2.4066,2.3953,2.3514,2.3369,2.3353,2.3448,2.3294,2.3244,2.3393,2.3554,2.3416,2.3403,2.3464,2.3477,2.3538,2.3781,2.3961,2.4022,2.4333,2.4892,2.5502,2.5615,2.6055,2.6579,2.6955,2.7175,2.7322,2.7499,2.7141,2.6344,2.6162,2.6259,2.6411,2.6578,2.6972,2.7481,2.751,2.7929,2.8323,2.8531,2.8795,2.9219,2.9345,2.9478,2.9684,2.9792,2.9863,3.0033,3.0393,3.0709,3.0835,3.1027,3.1155,3.0941,3.0372,3.0193,3.0193,3.0323,3.0528,3.0724,3.1031,3.125,3.1613,3.2037,3.2391,3.294,3.3387,3.3709,3.4154,3.4396,3.4804,3.5041,3.5291,3.5475,3.5611,3.5728,3.5778,3.5831,3.5958,3.5942,3.6626,3.7009,3.6832,3.693,3.7488,3.7755,3.7618,3.7794,3.7911,1.7781,1.8273,1.8282,1.8514,1.8834,1.9063,1.9311,1.9548,1.9951,2.0255,2.0489,2.0886,2.1195,2.1502,2.2025,2.2478,2.2852,2.315,2.3457,2.3751,2.3982,2.4154,2.4374,2.4767,2.4767,2.4903,2.5126,2.4772,2.4341,2.4181,2.4202,2.4347,2.4325,2.4389,2.433,2.4305,2.4619,2.4594,2.4569,2.4608,2.4773,2.4937,2.5062,2.5275,2.5572,2.5858,2.6161,2.635,2.6715,2.7072,2.7267,2.7391,2.7513,2.7792,2.788,2.7782,2.774,2.774,2.7698,2.7712,2.7911,2.8281,2.8396,2.8552,2.8953,2.9214,2.9491,2.9938,3.0066,3.033,3.0743,3.1066,3.1213,3.1108,3.1091,3.1252,3.1387,3.1207,3.148,3.1437,3.0926,3.1046,3.115,3.124,3.1372,3.1558,3.1728,3.1835,3.2057,3.2376,3.2742,3.3187,3.3503,3.3848,3.4184,3.4448,3.4659,3.4899,3.5135,3.5337,3.5475,3.5611,3.5728,3.5837,3.6019,3.6191,3.6426,3.6713,3.693,3.7126,3.7372,3.754,3.7667,3.7949,3.8153,1.8665,1.8763,1.8834,1.9073,1.9399,1.9706,1.9942,2.0186,2.0489,2.0799,2.1108,2.1425,2.1797,2.2327,2.2777,2.315,2.3457,2.3677,2.397,2.4261,2.4467,2.4671,2.4886,2.5063,2.5252,2.5535,2.5734,2.5783,2.5253,2.4932,2.4942,2.4971,2.48,2.4705,2.4933,2.4845,2.4808,2.4795,2.4808,2.4859,2.5065,2.5256,2.5383,2.5586,2.5975,2.6396,2.6796,2.7112,2.7501,2.794,2.8326,2.8558,2.868,2.8923,2.9089,2.9223,2.9268,2.8984,2.8441,2.8369,2.8727,2.9145,2.9361,2.9622,3.0029,3.0249,3.0424,3.0832,3.0919,3.1155,3.1349,3.1467,3.1467,3.1467,3.1467,3.1467,3.1467,3.1467,3.1467,3.1467,3.1467,3.1467,3.1467,3.1495,3.145,3.1492,3.1721,3.186,3.2069,3.2351,3.2742,3.3096,3.3361,3.3607,3.4,3.43,3.4546,3.4739,3.4994,3.5228,3.5354,3.5475,3.5656,3.5728,3.5861,3.6019,3.6233,3.6426,3.6632,3.6851,3.7066,3.7241,3.7466,3.7649,3.7915,1.939,1.932,1.9469,1.9627,1.9882,2.0264,2.0566,2.0799,2.1031,2.1339,2.1645,2.1959,2.2488,2.3075,2.3372,2.3677,2.397,2.4273,2.449,2.4683,2.4802,2.5016,2.5229,2.5392,2.5545,2.5758,2.5992,2.6126,2.6096,2.5872,2.5622,2.5622,2.5494,2.5347,2.5272,2.5335,2.5385,2.5385,2.536,2.5466,2.5637,2.5742,2.5936,2.6167,2.6422,2.6821,2.737,2.7769,2.8307,2.8702,2.9101,2.9233,2.9496,2.9638,2.9775,2.9958,3.0079,2.9911,2.9435,2.9291,2.9508,2.9871,3.025,3.0469,3.0997,3.1349,3.1392,3.1377,3.1392,3.1407,3.1467,3.1482,3.1467,3.1467,3.1467,3.1467,3.1467,3.1467,3.1467,3.1467,3.1467,3.1467,3.1467,3.1467,3.1524,3.1524,3.164,3.1868,3.2079,3.2342,3.2633,3.2989,3.3256,3.3503,3.3797,3.4151,3.4349,3.4594,3.4835,3.5088,3.5245,3.54,3.5566,3.5656,3.5745,3.5861,3.5975,3.6174,3.6385,3.6568,3.6771,3.697,3.7203,3.7392,3.7649,2.002,2.0186,1.9942,2.0098,2.0489,2.0557,2.0876,2.1425,2.1645,2.1873,2.2101,2.2628,2.315,2.3593,2.3897,2.4116,2.4189,2.4574,2.4849,2.5052,2.517,2.537,2.5523,2.5746,2.5886,2.6062,2.6213,2.6339,2.6396,2.6308,2.6327,2.6352,2.6113,2.6251,2.6282,2.605,2.6076,2.6088,2.6101,2.6354,2.6582,2.6729,2.6876,2.7222,2.7683,2.7986,2.8078,2.8387,2.8707,2.9035,2.9275,2.9526,2.9775,2.996,3.0144,3.0266,3.0462,3.0393,3.0294,3.0265,3.0557,3.0793,3.0925,3.1072,3.1336,3.1424,3.1482,3.1467,3.1467,3.1467,3.1467,3.1467,3.1467,3.1467,3.1467,3.1467,3.1467,3.1467,3.1467,3.1467,3.1467,3.1467,3.1467,3.1467,3.1467,3.1524,3.164,3.1868,3.2094,3.2358,3.2594,3.2881,3.315,3.3398,3.3642,3.3899,3.4201,3.4448,3.4691,3.4883,3.5088,3.5245,3.5429,3.5537,3.5611,3.5684,3.58,3.6019,3.6174,3.6318,3.6527,3.6771,3.7009,3.7241,3.7521,2.0489,2.0664,2.0654,2.0731,2.0809,2.1185,2.1492,2.1731,2.2025,2.2327,2.2703,2.3361,2.3824,2.4043,2.4345,2.4634,2.4766,2.4909,2.5123,2.5336,2.5453,2.5606,2.5758,2.598,2.6119,2.6201,2.6339,2.6396,2.6452,2.6521,2.6521,2.6521,2.6521,2.6508,2.6508,2.6521,2.6521,2.6521,2.6521,2.6671,2.6956,2.7024,2.7146,2.7469,2.7881,2.8079,2.8197,2.8716,2.8972,2.9149,2.9449,2.9699,2.9898,3.0083,3.0266,3.0447,3.0642,3.0762,3.0836,3.0836,3.0881,3.1132,3.1264,3.1395,3.1409,3.1467,3.1467,3.1467,3.1467,3.1467,3.1467,3.1467,3.1467,3.1467,3.1467,3.1467,3.1467,3.1467,3.1467,3.1467,3.1467,3.1467,3.1467,3.1467,3.1467,3.1524,3.1697,3.1868,3.2038,3.2262,3.2484,3.2718,3.2989,3.3203,3.345,3.3745,3.4034,3.43,3.4546,3.4739,3.4947,3.5088,3.5245,3.5383,3.5537,3.5611,3.5684,3.5844,3.6019,3.6165,3.636,3.6509,3.6794,3.7087,3.7279,2.0809,2.0984,2.1282,2.1292,2.1205,2.1655,2.1949,2.2176,2.2467,2.2852,2.3372,2.397,2.4273,2.4418,2.4694,2.4992,2.5123,2.5265,2.5394,2.5606,2.5758,2.5828,2.598,2.6201,2.6339,2.6339,2.6396,2.6521,2.6521,2.6521,2.6521,2.6521,2.6521,2.6521,2.6521,2.6521,2.6521,2.6521,2.6521,2.6671,2.6956,2.7024,2.7146,2.7536,2.7868,2.8079,2.8276,2.8651,2.9049,2.9212,2.9512,2.9898,3.0097,3.0219,3.0387,3.0568,3.0747,3.0821,3.094,3.0999,3.1058,3.1292,3.1424,3.1482,3.1467,3.1467,3.1467,3.1467,3.1467,3.1467,3.1467,3.1467,3.1467,3.1467,3.1467,3.1467,3.1467,3.1467,3.1467,3.1467,3.1467,3.1467,3.1467,3.1467,3.1467,3.1524,3.1655,3.1826,3.194,3.2094,3.2302,3.2539,3.2773,3.3043,3.3256,3.3591,3.3899,3.4151,3.4399,3.4594,3.4804,3.4947,3.5105,3.5245,3.5383,3.5475,3.5611,3.5728,3.5861,3.6036,3.6191,3.6426,3.6609,3.6851,3.7009,2.1091,2.1205,2.1706,2.1859,2.1901,2.1807,2.2273,2.2939,2.3121,2.3579,2.4203,2.4399,2.4629,2.4931,2.5302,2.5457,2.5636,2.5717,2.5859,2.6156,2.6288,2.628,2.6382,2.6502,2.664,2.6502,2.6533,2.6521,2.6521,2.6521,2.6521,2.6521,2.6521,2.6521,2.6521,2.6521,2.6521,2.6521,2.6521,2.6671,2.6956,2.7024,2.7201,2.7523,2.7868,2.8079,2.8276,2.8716,2.9113,2.9162,2.9588,2.9898,3.0111,3.028,3.0447,3.0747,3.0762,3.094,3.1234,3.1292,3.1351,3.1409,3.1482,3.1467,3.1467,3.1467,3.1467,3.1467,3.1467,3.1467,3.1467,3.1467,3.1467,3.1467,3.1467,3.1467,3.1467,3.1467,3.1467,3.1467,3.1467,3.1467,3.1467,3.1467,3.1467,3.1524,3.1655,3.1784,3.1841,3.1996,3.2206,3.2413,3.2648,3.2881,3.315,3.345,3.3745,3.4,3.425,3.4448,3.4643,3.4804,3.4947,3.5105,3.5291,3.5429,3.552,3.5566,3.5728,3.5905,3.6131,3.6343,3.6485,3.6626,3.6771,2.2046,2.2539,2.2797,2.3182,2.3477,2.2875,2.295,2.3655,2.4388,2.4926,2.5252,2.5564,2.5938,2.6222,2.631,2.6505,2.6663,2.6785,2.6943,2.7135,2.717,2.7341,2.7385,2.7085,2.7087,2.6904,2.6728,2.654,2.6521,2.6647,2.6571,2.6521,2.6615,2.6521,2.6521,2.6521,2.6521,2.6521,2.6521,2.6671,2.6956,2.7024,2.7146,2.7536,2.7881,2.8079,2.8145,2.878,2.9035,2.9162,2.9588,2.9974,3.0172,3.028,3.0568,3.0821,3.0895,3.1132,3.1366,3.1424,3.1467,3.1511,3.1482,3.1482,3.1467,3.1467,3.1467,3.1467,3.1467,3.1467,3.1467,3.1467,3.1467,3.1467,3.1467,3.1467,3.1467,3.1467,3.1467,3.1467,3.1467,3.1601,3.1704,3.1928,3.1958,3.1869,3.1957,3.1832,3.1814,3.1955,3.2094,3.2302,3.2468,3.2773,3.3043,3.3293,3.3539,3.3745,3.405,3.43,3.4497,3.4643,3.4851,3.5011,3.5198,3.5383,3.5475,3.5566,3.5639,3.5817,3.6002,3.6131,3.6276,3.6402,3.6485,2.2814,2.3314,2.3727,2.4057,2.4344,2.3766,2.3842,2.4524,2.5455,2.59,2.613,2.651,2.68,2.7025,2.7198,2.7409,2.7619,2.7619,2.7693,2.7865,2.7925,2.7923,2.7811,2.7783,2.7607,2.7457,2.7268,2.7067,2.7143,2.7067,2.7105,2.713,2.7005,2.7143,2.7017,2.6816,2.6521,2.6521,2.6521,2.6658,2.6875,2.7024,2.7146,2.7536,2.7815,2.8079,2.8276,2.8651,2.9099,2.9303,2.9617,3.0064,3.0187,3.0416,3.0702,3.0895,3.1132,3.1426,3.178,3.187,3.2004,3.2317,3.181,3.1511,3.1467,3.1467,3.1467,3.1467,3.1526,3.1526,3.1614,3.1599,3.1644,3.1644,3.1586,3.1601,3.1644,3.1659,3.1916,3.1856,3.2034,3.2064,3.2123,3.2287,3.2497,3.2392,3.2273,3.2062,3.1908,3.2007,3.2163,3.2333,3.2496,3.2717,3.2959,3.315,3.3346,3.3555,3.3813,3.4101,3.43,3.4497,3.4707,3.4947,3.5088,3.5291,3.5429,3.5566,3.5639,3.5711,3.5783,3.5915,3.6079,3.6191,3.6276,2.3346,2.3629,2.4259,2.4609,2.4577,2.4667,2.5105,2.5704,2.5981,2.6347,2.6716,2.7004,2.7291,2.7407,2.752,2.7817,2.8027,2.8015,2.8188,2.8249,2.8387,2.8373,2.8323,2.821,2.8134,2.8122,2.7959,2.7733,2.8034,2.7833,2.7858,2.7934,2.783,2.7843,2.7532,2.7256,2.6854,2.6854,2.6911,2.7063,2.7378,2.7306,2.7562,2.7915,2.8239,2.8439,2.8611,2.895,2.9233,2.9497,2.982,3.004,3.0273,3.0488,3.0849,3.1191,3.15,3.2049,3.2422,3.2542,3.2751,3.2931,3.2317,3.1839,3.1764,3.1958,3.2018,3.1988,3.2018,3.1869,3.1764,3.1824,3.1884,3.1884,3.181,3.1869,3.1912,3.2108,3.2437,3.2675,3.3005,3.308,3.308,3.3155,3.3051,3.2976,3.2841,3.2617,3.248,3.2314,3.2473,3.2543,3.268,3.2721,3.2967,3.331,3.3486,3.3794,3.367,3.3848,3.4101,3.4333,3.4546,3.4739,3.4947,3.5182,3.5429,3.552,3.5577,3.5667,3.5694,3.58,3.5949,3.6079,3.6148,2.4261,2.4796,2.5315,2.5727,2.6043,2.6426,2.6565,2.6549,2.7223,2.7715,2.7975,2.8186,2.8297,2.8716,2.8882,2.9011,2.9112,2.9226,2.9251,2.9264,2.9126,2.9252,2.9151,2.8888,2.875,2.8561,2.8398,2.826,2.8147,2.816,2.8185,2.8072,2.8306,2.8195,2.8097,2.7813,2.7711,2.7607,2.757,2.7695,2.8004,2.8062,2.8273,2.8621,2.894,2.9158,2.9281,2.9833,3.0179,3.0353,3.0997,3.1425,3.1425,3.1772,3.2101,3.2458,3.2733,3.3066,3.3185,3.3215,3.3365,3.3574,3.3155,3.3051,3.2931,3.2841,3.2796,3.2632,3.2647,3.2572,3.2557,3.2587,3.2587,3.2587,3.2557,3.2571,3.2661,3.2856,3.3183,3.3458,3.3791,3.3844,3.3814,3.3724,3.3619,3.3559,3.3455,3.3305,3.3036,3.2916,3.2839,3.2912,3.3102,3.3299,3.3501,3.3836,3.3897,3.3981,3.3943,3.3998,3.4223,3.4477,3.4431,3.4742,3.5297,3.5402,3.5446,3.5588,3.5723,3.5611,3.5622,3.5711,3.5817,3.5905,3.6036,2.4955,2.5527,2.5968,2.6479,2.6951,2.7522,2.7658,2.7573,2.806,2.8419,2.8657,2.8846,2.9184,2.9291,2.9447,2.9549,2.9716,2.9666,2.9679,2.9679,2.9779,2.9716,2.9591,2.9465,2.9327,2.9114,2.8988,2.8913,2.8725,2.875,2.8812,2.8837,2.8747,2.8785,2.8787,2.8838,2.8838,2.8562,2.8459,2.8404,2.8584,2.8728,2.899,2.9327,2.9667,2.9807,2.9947,3.0665,3.1005,3.1098,3.1712,3.2133,3.2206,3.2405,3.2674,3.2978,3.3225,3.3513,3.3799,3.3873,3.4023,3.4188,3.4247,3.4292,3.3988,3.3743,3.3555,3.3348,3.3363,3.344,3.3469,3.3484,3.3469,3.3455,3.3441,3.3442,3.3562,3.3712,3.3991,3.4258,3.4382,3.4394,3.4352,3.4262,3.4322,3.4457,3.4532,3.4472,3.4038,3.3606,3.3472,3.3367,3.3696,3.3979,3.4143,3.4287,3.4343,3.4438,3.4534,3.4584,3.4615,3.4907,3.531,3.5563,3.5844,3.5904,3.5911,3.5887,3.595,3.5857,3.5717,3.5774,3.583,3.5817,3.5905,2.5454,2.5906,2.6479,2.6962,2.7592,2.8018,2.8315,2.851,2.8578,2.8645,2.887,2.9263,2.9419,2.9509,2.9689,2.9702,2.9779,2.9779,2.9779,2.9779,2.9779,2.9779,2.9779,2.9754,2.9628,2.9716,2.9691,2.944,2.9654,2.9578,2.9503,2.9779,2.9641,2.9528,2.9503,2.9541,2.9503,2.9365,2.8963,2.8659,2.8864,2.898,2.9047,2.951,2.9808,3.0064,3.0288,3.0787,3.1334,3.1604,3.198,3.2571,3.2775,3.2961,3.3201,3.3391,3.3776,3.411,3.4457,3.4562,3.4846,3.5145,3.5474,3.5265,3.4822,3.4486,3.4193,3.414,3.4203,3.4203,3.4218,3.4218,3.4203,3.4203,3.4235,3.4205,3.4265,3.4445,3.4681,3.4892,3.4986,3.4981,3.4981,3.4906,3.4846,3.522,3.528,3.5235,3.4966,3.4337,3.4145,3.4014,3.4364,3.4638,3.4698,3.4801,3.4821,3.494,3.5059,3.5078,3.5036,3.5551,3.6263,3.628,3.6172,3.634,3.6405,3.6402,3.6363,3.6206,3.6097,3.5891,3.5881,3.6056,3.5936,2.5812,2.5979,2.6704,2.7429,2.8007,2.8339,2.8578,2.8724,2.904,2.9184,2.9263,2.9341,2.9509,2.9689,2.9702,2.9779,2.9779,2.9779,2.9779,2.9779,2.9779,2.9779,2.9779,2.9779,2.9779,2.9779,2.9779,2.9779,2.9779,2.9779,2.9779,2.9779,2.9779,2.9779,2.9779,2.9779,2.9767,2.9741,2.949,2.9403,2.9717,2.9982,3.0196,3.0529,3.0871,3.0963,3.1267,3.1796,3.2205,3.2458,3.3194,3.3618,3.3845,3.4186,3.4383,3.4528,3.4654,3.4887,3.504,3.513,3.528,3.537,3.5489,3.5489,3.535,3.515,3.5016,3.4946,3.4936,3.4921,3.4921,3.4906,3.4891,3.4906,3.4906,3.4906,3.4921,3.51,3.531,3.5385,3.5474,3.5489,3.5489,3.5489,3.5489,3.5474,3.5459,3.5429,3.54,3.504,3.4951,3.4913,3.5175,3.5332,3.5307,3.5324,3.5336,3.5298,3.5377,3.5404,3.5458,3.6023,3.6615,3.6474,3.646,3.6765,3.6985,3.7037,3.6936,3.6666,3.6726,3.6606,3.6851,3.7081,3.6547,2.6146,2.655,2.7348,2.7926,2.8339,2.8578,2.8803,2.9106,2.9341,2.9509,2.9599,2.9611,2.9702,2.9779,2.9779,2.9779,2.9779,2.9779,2.9779,2.9779,2.9779,2.9779,2.9779,2.9779,2.9779,2.9779,2.9779,2.9779,2.9779,2.9779,2.9779,2.9779,2.9779,2.9792,2.9792,2.9792,2.9817,2.9779,2.9842,2.9984,3.0356,3.0394,3.0533,3.0911,3.1211,3.1447,3.1743,3.2155,3.2489,3.2846,3.3451,3.3879,3.4177,3.4499,3.4758,3.4876,3.5073,3.5374,3.5439,3.5489,3.5489,3.5489,3.5489,3.5489,3.5489,3.5305,3.5305,3.5265,3.5265,3.525,3.525,3.525,3.525,3.525,3.525,3.525,3.525,3.5325,3.5429,3.5444,3.5489,3.5489,3.5489,3.5489,3.5489,3.5489,3.5489,3.5489,3.5489,3.5489,3.5489,3.5489,3.5589,3.5688,3.5574,3.5674,3.5799,3.5767,3.5685,3.6103,3.6379,3.6676,3.695,3.7025,3.7161,3.7339,3.7535,3.7546,3.7302,3.6987,3.7169,3.7399,3.7698,3.793,3.7486,2.655,2.736,2.8007,2.8339,2.8578,2.8803,2.9106,2.9341,2.9419,2.9599,2.9779,2.9779,2.9779,2.9779,2.9779,2.9779,2.9779,2.9779,2.9779,2.9779,2.9779,2.9779,2.9779,2.9779,2.9779,2.9779,2.9779,2.9779,2.9779,2.9779,2.9779,2.9779,2.9804,2.9842,2.988,2.993,3.0018,3.0168,3.0218,3.0171,3.0278,3.0356,3.0546,3.0761,3.1061,3.1373,3.1669,3.195,3.2372,3.286,3.3368,3.3799,3.4142,3.4481,3.4683,3.4868,3.5082,3.5294,3.5439,3.5439,3.5504,3.5489,3.5504,3.5519,3.5549,3.5549,3.5549,3.5549,3.5549,3.5534,3.5534,3.5549,3.5549,3.5534,3.5534,3.5549,3.5549,3.5549,3.5549,3.5549,3.5549,3.5549,3.5549,3.5549,3.5549,3.5534,3.5534,3.5504,3.5489,3.5489,3.5489,3.5489,3.5539,3.5653,3.5703,3.5804,3.5919,3.6153,3.6137,3.6765,3.716,3.7171,3.738,3.7874,3.7979,3.7942,3.7976,3.8027,3.7689,3.7397,3.7851,3.8186,3.8288,3.8505,3.8368,2.7138,2.7788,2.8271,2.8578,2.8803,2.9106,2.9341,2.9419,2.9599,2.9779,2.9779,2.9779,2.9779,2.9792,2.9779,2.9779,2.9779,2.9779,2.9779,2.9779,2.988,2.9842,2.9892,3.0055,2.9842,2.9892,2.9967,2.9842,3.0093,2.998,2.9829,2.9905,2.9867,3.0055,3.0444,3.0495,3.0595,3.0746,3.0896,3.0964,3.0842,3.0788,3.0522,3.0761,3.1061,3.1373,3.1669,3.1963,3.2372,3.2789,3.3396,3.3872,3.4261,3.4524,3.4797,3.5072,3.5326,3.5429,3.5606,3.5687,3.5783,3.5789,3.5789,3.5729,3.5759,3.5774,3.5774,3.5744,3.5729,3.5684,3.5684,3.5729,3.5744,3.5714,3.5699,3.5714,3.5729,3.5744,3.5744,3.5744,3.5744,3.5759,3.5759,3.5759,3.5759,3.5774,3.5804,3.5789,3.5848,3.5714,3.5609,3.5654,3.5764,3.5604,3.5703,3.5688,3.5867,3.618,3.6461,3.6769,3.7074,3.7314,3.761,3.786,3.8164,3.8141,3.8267,3.8231,3.8379,3.8262,3.8755,3.9063,3.9054,3.9024,3.8959]},{"header":{"parameterUnit":"m.s-1","parameterCategory":1,"la1":31.0,"la2":29.5877,"lo1":-88.7671,"lo2":-86.6584,"dy":0.0162,"dx":0.0185,"nx":115,"ny":88,"refTime":"2024-03-07T06:00:00:Z","depth":0,"parameterNumber":3,"parameterNumberName":"V-component_of_WINDS"},"data":[0.0,0.0,0.0,0.0,0.0,0.0,0.0,0.0,0.0,0.0,0.0,0.0,0.0,0.0,0.0,0.0,0.0,0.0,0.0,0.0,0.0,0.0,0.0,0.0,0.0,0.0,0.0,0.0,0.0,0.0,0.0,0.0,0.0,0.0,0.0,0.0,0.0,0.0,0.0,0.0,0.0,0.0,0.0,0.0,0.0,0.0,0.0,0.0,0.0,0.0,0.0,0.0,0.0,0.0,0.0,0.0,0.0,0.0,0.0,0.0,0.0,0.0,0.0,0.0,0.0,0.0,0.0,0.0,0.0,0.0,0.0,0.0,0.0,0.0,0.0,0.0,0.0,0.0,0.0,0.0,0.0,0.0,0.0,0.0,0.0,0.0,0.0,0.0,0.0,0.0,0.0,0.0,0.0,0.0,0.0,0.0,0.0,0.0,0.0,0.0,0.0,0.0,0.0,0.0,0.0,0.0,0.0,0.0,0.0,0.0,0.0,0.0,0.0,0.0,0.0,0.0,0.0,0.0,0.0,0.0,0.0,0.0,0.0,0.0,0.0,0.0,0.0,0.0,0.0,0.0,0.0,0.0,0.0,0.0,0.0,0.0,0.0,0.0,0.0,0.0,0.0,0.0,0.0,0.0,0.0,0.0,0.0,0.0,0.0,0.0,0.0,0.0,0.0,0.0,0.0,0.0,0.0,0.0,0.0,0.0,0.0,0.0,0.0,0.0,0.0,0.0,0.0,0.0,0.0,0.0,0.0,0.0,0.0,0.0,0.0,0.0,0.0,0.0,0.0,0.0,0.0,0.0,0.0,0.0,0.0,0.0,0.0,0.0,0.0,0.0,0.0,0.0,0.0,0.0,0.0,0.0,0.0,0.0,0.0,0.0,0.0,0.0,0.0,0.0,0.0,0.0,0.0,0.0,0.0,0.0,0.0,0.0,0.0,0.0,0.0,0.0,0.0,0.0,0.0,0.0,0.0,0.0,0.0,0.0,0.0,0.0,0.0,0.0,0.0,0.0,0.0,0.0,0.0,0.0,0.0,0.0,0.0,0.0,0.0,0.0,0.0,0.0,0.0,0.0,0.0,0.0,0.0,0.0,0.0,0.0,0.0,0.0,0.0,0.0,0.0,0.0,0.0,0.0,0.0,0.0,0.0,0.0,0.0,0.0,0.0,0.0,0.0,0.0,0.0,0.0,0.0,0.0,0.0,0.0,0.0,0.0,0.0,0.0,0.0,0.0,0.0,0.0,0.0,0.0,0.0,0.0,0.0,0.0,0.0,0.0,0.0,0.0,0.0,0.0,0.0,0.0,0.0,0.0,0.0,0.0,0.0,0.0,0.0,0.0,0.0,0.0,0.0,0.0,0.0,0.0,0.0,0.0,0.0,0.0,0.0,0.0,0.0,0.0,0.0,0.0,0.0,0.0,0.0,0.0,0.0,0.0,0.0,0.0,0.0,0.0,0.0,0.0,0.0,0.0,0.0,0.0,0.0,0.0,0.0,0.0,0.0,0.0,0.0,0.0,0.0,0.0,0.0,0.0,0.0,0.0,0.0,0.0,0.0,0.0,0.0,0.0,0.0,0.0,0.0,0.0,0.0,0.0,0.0,0.0,0.0,0.0,0.0,0.0,0.0,0.0,0.0,0.0,0.0,0.0,0.0,0.0,0.0,0.0,0.0,0.0,0.0,0.0,0.0,0.0,0.0,0.0,0.0,0.0,0.0,0.0,0.0,0.0,0.0,0.0,0.0,0.0,0.0,0.0,0.0,0.0,0.0,0.0,0.0,0.0,0.0,0.0,0.0,0.0,0.0,0.0,0.0,0.0,0.0,0.0,0.0,0.0,0.0,0.0,0.0,0.0,0.0,0.0,0.0,0.0,0.0,0.0,0.0,0.0,0.0,0.0,0.0,0.0,0.0,0.0,0.0,0.0,0.0,0.0,0.0,0.0,0.0,0.0,0.0,0.0,0.0,0.0,0.0,0.0,0.0,0.0,0.0,0.0,0.0,0.0,0.0,0.0,0.0,0.0,0.0,0.0,0.0,0.0,0.0,0.0,0.0,0.0,0.0,0.0,0.0,0.0,0.0,0.0,0.0,0.0,0.0,0.0,0.0,0.0,0.0,0.0,0.0,0.0,0.0,0.0,0.0,0.0,0.0,0.0,0.0,0.0,0.0,0.0,0.0,0.0,0.0,0.0,0.0,0.0,0.0,0.0,0.0,0.0,0.0,0.0,0.0,0.0,0.0,0.0,0.0,0.0,0.0,0.0,0.0,0.0,0.0,0.0,0.0,0.0,0.0,0.0,0.0,0.0,0.0,0.0,0.0,0.0,0.0,0.0,0.0,0.0,0.0,0.0,0.0,0.0,0.0,0.0,0.0,0.0,0.0,0.0,0.0,0.0,0.0,0.0,0.0,0.0,0.0,0.0,0.0,0.0,0.0,0.0,0.0,0.0,0.0,0.0,0.0,0.0,0.0,0.0,0.0,0.0,0.0,0.0,0.0,0.0,0.0,0.0,0.0,0.0,0.0,0.0,0.0,0.0,0.0,0.0,0.0,0.0,0.0,0.0,0.0,0.0,0.0,0.0,0.0,0.0,0.0,0.0,0.0,0.0,0.0,0.0,0.0,0.0,0.0,0.0,0.0,0.0,0.0,0.0,0.0,0.0,0.0,0.0,0.0,0.0,0.0,0.0,0.0,0.0,0.0,0.0,0.0,0.0,0.0,0.0,0.0,0.0,0.0,0.0,0.0,0.0,0.0,0.0,0.0,0.0,0.0,0.0,0.0,0.0,0.0,0.0,0.0,0.0,0.0,0.0,0.0,0.0,0.0,0.0,0.0,0.0,0.0,0.0,0.0,0.0,0.0,0.0,0.0,0.0,0.0,0.0,0.0,0.0,0.0,0.0,0.0,0.0,0.0,0.0,0.0,0.0,0.0,0.0,0.0,0.0,0.0,0.0,0.0,0.0,0.0,0.0,0.0,0.0,0.0,0.0,0.0,0.0,0.0,0.0,0.0,0.0,0.0,0.0,0.0,0.0,0.0,0.0,0.0,0.0,0.0,0.0,0.0,0.0,0.0,0.0,0.0,0.0,0.0,0.0,0.0,0.0,0.0,0.0,0.0,0.0,0.0,0.0,0.0,0.0,0.0,0.0,0.0,0.0,0.0,0.0,0.0,0.0,0.0,0.0,0.0,0.0,0.0,0.0,0.0,0.0,0.0,0.0,0.0,0.0,0.0,0.0,0.0,0.0,0.0,0.0,0.0,0.0,0.0,0.0,0.0,0.0,0.0,0.0,0.0,0.0,0.0,0.0,0.0,0.0,0.0,0.0,0.0,0.0,0.0,0.0,0.0,0.0,0.0,0.0,0.0,0.0,0.0,0.0,0.0,0.0,0.0,0.0,0.0,0.0,0.0,0.0,0.0,0.0,0.0,0.0,0.0,0.0,0.0,0.0,0.0,0.0,0.0,0.0,0.0,0.0,0.0,0.0,0.0,0.0,0.0,0.0,0.0,0.0,0.0,0.0,0.0,0.0,0.0,0.0,0.0,0.0,0.0,0.0,0.0,0.0,0.0,0.0,0.0,0.0,0.0,0.0,0.0,0.0,0.0,0.0,0.0,0.0,0.0,0.0,0.0,0.0,0.0,0.0,0.0,0.0,0.0,0.0,0.0,0.0,0.0,0.0,0.0,0.0,0.0,0.0,0.0,0.0,0.0,0.0,0.0,0.0,0.0,0.0,0.0,0.0,0.0,0.0,0.0,0.0,0.0,0.0,0.0,0.0,0.0,0.0,0.0,0.0,0.0,0.0,0.0,0.0,0.0,0.0,0.0,0.0,0.0,0.0,0.0,0.0,0.0,0.0,0.0,0.0,0.0,0.0,0.0,0.0,0.0,0.0,0.0,0.0,0.0,0.0,0.0,0.0,0.0,0.0,0.0,0.0,0.0,0.0,0.0,0.0,0.0,0.0,0.0,0.0,0.0,0.0,0.0,0.0,0.0,0.0,0.0,0.0,0.0,0.0,0.0,0.0,0.0,0.0,0.0,0.0,0.0,0.0,0.0,0.0,0.0,0.0,0.0,0.0,0.0,0.0,0.0,0.0,0.0,0.0,0.0,0.0,0.0,0.0,0.0,0.0,0.0,0.0,0.0,0.0,0.0,0.0,0.0,0.0,0.0,0.0,0.0,0.0,0.0,0.0,0.0,0.0,0.0,0.0,0.0,0.0,0.0,0.0,0.0,0.0,0.0,0.0,0.0,0.0,0.0,0.0,0.0,0.0,0.1208,0.0,0.0,0.0,0.0,0.0,0.0,0.0,0.0,0.0,0.0,0.0,0.0,0.0,0.0,0.0,0.0,0.0,0.0,0.0,0.0,0.0,0.0,0.0,0.0,0.0,0.0,0.0,0.0,0.0,0.0,0.0,0.0,0.0,0.0,0.0,0.0,0.0,0.0,0.0,0.0,0.0,0.0,0.0,0.0,0.0,0.0,0.0,0.0,0.0,0.0,0.0,0.0,0.0,0.0,0.0,0.0,0.0,0.0,0.0,0.0,0.0,0.0,0.0,0.0,0.0,0.0,0.0,0.0,0.0,0.0,0.0,0.0,0.0,0.0,0.0,0.0,0.0,0.0,0.0,0.0,0.0,0.0,0.0,0.0,0.0,0.0,0.0,0.0,0.0,0.0,0.0,0.0,0.0,0.0,0.0,0.0,0.0,0.0,0.0,0.0,0.0,0.0,0.0,0.0,0.0,0.0,0.0,0.0,0.0,0.0,0.3426,0.3092,0.2257,0.1375,0.045,0.0,0.0,0.0,0.0,0.0,0.0,0.0,0.0,0.0,0.0,0.0,0.0,0.0,0.0,0.0,0.0,0.0,0.0,0.0,0.0,0.0,0.0,0.0,0.0,0.0,0.0,0.0,0.0,0.0,0.0,0.0,0.0,0.0,0.0,0.0,0.0,0.0,0.0,0.0,0.0,0.0,0.0,0.0,0.0,0.0,0.0,0.0,0.0,0.0,0.0,0.0,0.0,0.0,0.0,0.0,0.0,0.0,0.0,0.0,0.0,0.0,0.0,0.0,0.0,0.0,0.0,0.0,0.0,0.0,0.0,0.0,0.0,0.0,0.0,0.0,0.0,0.0,0.0,0.0,0.0,0.0,0.0,0.0,0.0,0.0,0.0,0.0,0.0,0.0,0.0,0.0,0.0,0.0,0.0,0.0,0.0,0.0,0.0,0.0,0.0,0.0,0.0,0.0,0.0,0.0,0.0,0.0,0.0,0.0,0.0,0.0,0.0,0.1545,0.033,-0.0701,0.0,0.0,0.0,0.0,0.0,0.0,0.0,0.0,0.0,0.0,0.0,0.0,0.0,0.0,0.0,0.0,0.0,0.0,0.0,0.0,0.0,0.0,0.0,0.0,0.0,0.0,0.0,0.0,0.0,0.0,0.0,0.0,0.0,0.0,0.0,0.0,0.0,0.0,0.0,0.0,0.0,0.0,0.0,0.0,0.0,0.0,0.0,0.0,0.0,0.0,0.0,0.0,0.0,0.0,0.0,0.0,0.0,0.0,0.0,0.0,0.0,0.0,0.0,0.0,0.0,0.0,0.0,0.0,0.0,0.0,0.0,0.0,0.0,0.0,0.0,0.0,0.0,0.0,0.0,0.0,0.0,0.0,0.0,0.0,0.0,0.0,0.0,0.0,0.0,0.0,0.0,0.0,0.0,0.0,0.0,0.0,0.0,0.0,0.0,0.0,0.0,0.0,0.0,0.0,0.0,0.0,0.0,0.0,0.0,0.0,0.2351,0.1479,0.0538,0.0,-0.2669,0.0,0.0,0.0,0.0,0.0,0.0,0.0,0.0,0.0,0.0,0.0,0.0,0.0,0.0,0.0,0.0,0.0,0.0,0.0,0.0,0.0,0.0,0.0,0.0,0.0,0.0,0.0,0.0,0.0,0.0,0.0,0.0,0.0,0.0,0.0,0.0,0.0,0.0,0.0,0.0,0.0,0.0,0.0,0.0,0.0,0.0,0.0,0.0,0.0,0.0,0.0,0.0,0.0,0.0,0.0,0.0,0.0,0.0,0.0,0.0,0.0,0.0,0.0,0.0,0.0,0.0,0.0,0.0,0.0,0.0,0.0,0.0,0.0,0.0,0.0,0.0,0.0,0.0,0.0,0.0,0.0,0.0,0.0,0.0,0.0,0.0,0.0,0.0,0.0,0.0,0.0,0.0,0.0,0.0,0.0,0.0,0.0,0.0,0.0,0.0,0.0,0.0,0.0,0.0,0.0,0.0,0.0,0.0,0.0,0.0,0.2084,0.1008,-0.0873,-0.2287,0.0,0.0,0.0,0.0,0.0,0.0,0.0,0.0,0.0,0.0,0.0,0.0,0.0,0.0,0.0,0.0,0.0,0.0,0.0,0.0,0.0,0.0,0.0,0.0,0.0,0.0,0.0,0.0,0.0,0.0,0.0,0.0,0.0,0.0,0.0,0.0,0.0,0.0,0.0,0.0,0.0,0.0,0.0,0.0,0.0,0.0,0.0,0.0,0.0,0.0,0.0,0.0,0.0,0.0,0.0,0.0,0.0,0.0,0.0,0.0,0.0,0.0,0.0,0.0,0.0,0.0,0.0,0.0,0.0,0.0,0.0,0.0,0.0,0.0,0.0,0.0,0.0,0.0,0.0,0.0,0.0,0.0,0.0,0.0,0.0,0.0,0.0,0.0,0.0,0.0,0.0,0.0,0.0,0.0,0.0,0.0,0.0,0.0,0.0,0.0,0.0,0.0,0.0,0.0,0.0,0.0,0.0,0.0,0.0,0.0,0.2622,0.1479,0.0067,-0.208,-0.3331,-0.3567,0.0,0.0,0.0,0.0,0.0,0.0,0.0,0.0,0.0,0.0,0.0,0.0,0.0,0.0,0.0,0.0,0.0,0.0,0.0,0.0,0.0,0.0,0.0,0.0,0.0,0.0,0.0,0.0,0.0,0.0,0.0,0.0,0.0,0.0,0.0,0.0,0.0,0.0,0.0,0.0,0.0,0.0,0.0,0.0,0.0,0.0,0.0,0.0,0.0,0.0,0.0,0.0,0.0,0.0,0.0,0.0,0.0,0.0,0.0,0.0,0.0,0.0,0.0,0.0,0.0,0.0,0.0,0.0,0.0,0.0,0.0,0.0,0.0,0.0,0.0,0.0,0.0,0.0,0.0,0.0,0.0,0.0,0.0,0.0,0.0,0.0,0.0,0.0,0.0,0.0,0.0,0.0,0.0,0.0,0.0,0.0,0.0,0.0,0.0,0.0,0.0,0.0,0.0,0.0,0.0,0.0,0.0,0.0,0.3159,0.2016,0.0403,-0.1479,-0.2616,-0.3522,0.0,0.0,0.0,0.0,0.0,0.0,0.0,0.0,0.0,0.0,0.0,0.0,0.0,0.0,0.0,0.0,0.0,0.0,0.0,0.0,0.0,0.0,0.0,0.0,0.0,0.0,0.0,0.0,0.0,0.0,0.0,0.0,0.0,0.0,0.0,0.0,0.0,0.0,0.0,0.0,0.0,0.0,0.0,0.0,0.0,0.0,0.0,0.0,0.0,0.0,0.0,0.0,0.0,0.0,0.0,0.0,0.0,0.0,0.0,0.0,0.0,0.0,0.0,0.0,0.0,0.0,0.0,0.0,0.0,0.0,0.0,0.0,0.0,0.0,0.0,0.0,0.0,0.0,0.0,0.0,0.0,0.0,0.0,0.0,0.0,0.0,0.0,0.0,0.0,0.0,0.0,0.0,0.0,0.0,0.0,0.0,0.0,0.0,0.0,0.0,0.0,0.0,0.0,0.0,0.0,0.0,0.0,0.0,0.0,0.2691,0.0806,-0.1075,-0.2824,-0.3689,-0.4431,0.0,0.0,0.0,0.0,0.0,0.0,0.0,0.0,0.0,0.0,0.0,0.0,0.0,0.0,0.0,0.0,0.0,0.0,0.0,0.0,0.0,0.0,0.0,0.0,0.0,0.0,0.0,0.0,0.0,0.0,0.0,0.0,0.0,0.0,0.0,0.0,0.0,0.0,0.0,0.0,0.0,0.0,0.0,0.0,0.0,0.0,0.0,0.0,0.0,0.0,0.0,0.0,0.0,0.0,0.0,0.0,0.0,0.0,0.0,0.0,0.0,0.0,0.0,0.0,0.0,0.0,0.0,0.0,0.0,0.0,0.0,0.0,0.0,0.0,0.0,0.0,0.0,0.0,0.0,0.0,0.0,0.0,0.0,0.0,0.0,0.0,0.0,0.0,0.0,0.0,0.0,0.0,0.0,0.0,0.0,0.0,0.0,0.0,0.0,0.0,0.0,0.0,0.0,0.0,0.0,0.0,0.0,0.0,0.0,0.168,0.0,-0.2354,-0.3493,-0.4422,-0.5203,0.0,0.0,0.0,0.0,0.0,0.0,0.0,0.0,0.0,0.0,0.0,0.0,0.0,0.0,0.0,0.0,0.0,0.0,0.0,0.0,0.0,0.0,0.0,0.0,0.0,0.0,0.0,0.0,0.0,0.0,0.0,0.0,0.0,0.0,0.0,0.0,0.0,0.0,0.0,0.0,0.0,0.0,0.0,0.0,0.0,0.0,0.0,0.0,0.0,0.0,0.0,0.0,0.0,0.0,0.0,0.0,0.0,0.0,0.0,0.0,0.0,0.0,0.0,0.0,0.0,0.0,0.0,0.0,0.0,0.0,0.0,0.0,0.0,0.0,0.0,0.0,0.0,0.0,0.0,0.0,0.0,0.0,0.0,0.0,0.0,0.0,0.0,0.0,0.0,0.0,0.0,0.0,0.0,0.0,0.0,0.0,0.0,0.0,0.0,0.0,0.0,0.0,0.0,0.0,0.0,0.0,0.0,0.0,0.1892,0.0067,-0.2018,-0.3232,-0.3551,-0.4872,-0.5898,0.0,0.0,0.0,0.0,0.0,0.0,0.0,0.0,0.0,0.0,0.0,0.0,0.0,0.0,0.0,0.0,0.0,0.0,0.0,0.0,0.0,0.0,0.0,0.0,0.0,0.0,0.0,0.0,0.0,0.0,0.0,0.0,0.0,0.0,0.0,0.0,0.0,0.0,0.0,0.0,0.0,0.0,0.0,0.0,0.0,0.0,0.0,0.0,0.0,0.0,0.0,0.0,0.0,0.0,0.0,0.0,0.0,0.0,0.0,0.0,0.0,0.0,0.0,0.0,0.0,0.0,0.0,0.0,0.0,0.0,0.0,0.0,0.0,0.0,0.0,0.0,0.0,0.0,0.0,0.0,0.0,0.0,0.0,0.0,0.0,0.0,0.0,0.0,0.0,0.0,0.0,0.0,0.0,0.0,0.0,0.0,0.0,0.0,0.0,0.0,0.0,0.0,0.0,0.0,0.0,0.0,0.0,0.0,0.0,-0.0336,-0.2218,-0.3493,-0.4087,-0.5533,-0.6727,0.0,0.0,0.0,0.0,0.0,0.0,0.0,0.0,0.0,0.0,0.0,0.0,0.0,0.0,0.0,0.0,0.0,0.0,0.0,0.0,0.0,0.0,0.0,0.0,0.0,0.0,0.0,0.0,0.0,0.0,0.0,0.0,0.0,0.0,0.0,0.0,0.0,0.0,0.0,0.0,0.0,0.0,0.0,0.0,0.0,0.0,0.0,0.0,0.0,0.0,0.0,0.0,0.0,0.0,0.0,0.0,0.0,0.0,0.0,0.0,0.0,0.0,0.0,0.0,0.0,0.0,0.0,0.0,0.0,0.0,0.0,0.0,0.0,0.0,0.0,0.0,0.0,0.0,0.0,0.0,0.0,0.0,0.0,0.0,0.0,0.0,0.0,0.0,0.0,0.0,0.0,0.0,0.0,0.0,0.0,0.0,0.0,0.0,0.0,0.0,0.0,0.0,0.0,0.0,0.0,0.0,0.0,0.0,0.0,-0.0738,-0.2552,-0.3823,-0.4616,-0.6322,-0.7676,-0.8487,0.0,0.0,0.0,0.0,0.0,0.0,0.0,0.0,0.0,0.0,0.0,0.0,0.0,0.0,0.0,0.0,0.0,0.0,0.0,0.0,0.0,0.0,0.0,0.0,0.0,0.0,0.0,0.0,0.0,0.0,0.0,0.0,0.0,0.0,0.0,0.0,0.0,0.0,0.0,0.0,0.0,0.0,0.0,0.0,0.0,0.0,0.0,0.0,0.0,0.0,0.0,0.0,0.0,0.0,0.0,0.0,0.0,0.0,0.0,0.0,0.0,0.0,0.0,0.0,0.0,0.0,0.0,0.0,0.0,0.0,0.0,0.0,0.0,0.0,0.0,0.0,0.0,0.0,0.0,0.0,0.0,0.0,0.0,0.0,0.0,0.0,0.0,0.0,0.0,0.0,0.0,0.0,0.0,0.0,0.0,0.0,0.0,0.0,0.0,0.0,0.0,0.0,0.0,0.0,0.0,0.0,0.0,0.0,-0.1075,-0.2952,-0.442,-0.5342,-0.7228,-0.8675,0.0,0.0,0.0,0.0,0.0,0.0,0.0,0.0,0.0,0.0,0.0,0.0,0.0,0.0,0.0,0.0,0.0,0.0,0.0,0.0,0.0,0.0,0.0,0.0,0.0,0.0,0.0,0.0,0.0,0.0,0.0,0.0,0.0,0.0,0.0,0.0,0.0,0.0,0.0,0.0,0.0,0.0,0.0,0.0,0.0,0.0,0.0,0.0,0.0,0.0,0.0,0.0,0.0,0.0,0.0,0.0,0.0,0.0,0.0,0.0,0.0,0.0,0.0,0.0,0.0,0.0,0.0,0.0,0.0,0.0,0.0,0.0,0.0,0.0,0.0,0.0,0.0,0.0,0.0,0.0,0.0,0.0,0.0,0.0,0.0,0.0,0.0,0.0,0.0,0.0,0.0,0.0,0.0,0.0,0.0,0.0,0.0,0.0,0.0,0.0,0.0,0.0,0.0,0.0,0.0,0.0,0.0,0.0,0.0,-0.1271,-0.3407,-0.5067,-0.6117,-0.8066,-0.9599,0.0,0.0,0.0,0.0,0.0,0.0,0.0,0.0,0.0,0.0,0.0,0.0,0.0,0.0,0.0,0.0,0.0,0.0,0.0,0.0,0.0,0.0,0.0,0.0,0.0,0.0,0.0,0.0,0.0,0.0,0.0,0.0,0.0,0.0,0.0,0.0,0.0,0.0,0.0,0.0,0.0,0.0,0.0,0.0,0.0,0.0,0.0,0.0,0.0,0.0,0.0,0.0,0.0,0.0,0.0,0.0,0.0,0.0,0.0,0.0,0.0,0.0,0.0,0.0,0.0,0.0,0.0,0.0,0.0,0.0,0.0,0.0,0.0,0.0,0.0,0.0,0.0,0.0,0.0,0.0,0.0,0.0,0.0,0.0,0.0,0.0,0.0,0.0,0.0,0.0,0.0,0.0,0.0,0.0,0.0,0.0,0.0,0.0,0.0,0.0,0.0,0.0,0.0,0.0,0.0,0.0,0.0,0.0,0.0574,-0.1535,-0.3929,-0.5971,-0.7723,-0.9394,-1.0634,0.0,0.0,0.0,0.0,0.0,0.0,0.0,0.0,0.0,0.0,0.0,0.0,0.0,0.0,0.0,0.0,0.0,0.0,0.0,0.0,0.0,0.0,0.0,0.0,0.0,0.0,0.0,0.0,0.0,0.0,0.0,0.0,0.0,0.0,0.0,0.0,0.0,0.0,0.0,0.0,0.0,0.0,0.0,0.0,0.0,0.0,0.0,0.0,0.0,0.0,0.0,0.0,0.0,0.0,0.0,0.0,0.0,0.0,0.0,0.0,0.0,0.0,0.0,0.0,0.0,0.0,0.0,0.0,0.0,0.0,0.0,0.0,0.0,0.0,0.0,0.0,0.0,0.0,0.0,0.0,0.0,0.0,0.0,0.0,0.0,0.0,0.0,0.0,0.0,0.0,0.0,0.0,0.0,0.0,0.0,0.0,0.0,0.0,0.0,0.0,0.0,0.0,0.0,0.0,0.0,0.0,0.0,0.0,0.0968,-0.1861,-0.4443,-0.7062,-0.9756,-1.0836,-1.1765,0.0,0.0,0.0,0.0,0.0,0.0,0.0,0.0,0.0,0.0,0.0,0.0,0.0,0.0,0.0,0.0,0.0,0.0,0.0,0.0,0.0,0.0,0.0,0.0,0.0,0.0,0.0,0.0,0.0,0.0,0.0,0.0,0.0,0.0,0.0,0.0,0.0,0.0,0.0,0.0,0.0,0.0,0.0,0.0,0.0,0.0,0.0,0.0,0.0,0.0,0.0,0.0,0.0,0.0,0.0,0.0,0.0,0.0,0.0,0.0,0.0,0.0,0.0,0.0,0.0,0.0,0.0,0.0,0.0,0.0,0.0,0.0,0.0,0.0,0.0,0.0,0.0,0.0,0.0,0.0,0.0,0.0,0.0,0.0,0.0,0.0,0.0,0.0,0.0,0.0,0.0,0.0,0.0,0.0,0.0,0.0,0.0,0.0,0.0,0.0,0.0,0.0,0.0,0.0,0.0,0.0,0.0,0.0,0.1407,-0.1782,-0.5199,-0.8255,-1.0816,-1.1928,-1.299,0.0,0.0,0.0,0.0,0.0,0.0,0.0,0.0,0.0,0.0,0.0,0.0,0.0,0.0,0.0,0.0,0.0,0.0,0.0,0.0,0.0,0.0,0.0,0.0,0.0,0.0,0.0,0.0,0.0,0.0,0.0,0.0,0.0,0.0,0.0,0.0,0.0,0.0,0.0,0.0,0.0,0.0,0.0,0.0,0.0,0.0,0.0,0.0,-1.9658,0.0,0.0,0.0,0.0,0.0,0.0,0.0,0.0,0.0,0.0,0.0,0.0,0.0,0.0,0.0,0.0,0.0,0.0,0.0,0.0,0.0,0.0,0.0,0.0,0.0,0.0,0.0,0.0,0.0,0.0,0.0,0.0,0.0,0.0,0.0,0.0,0.0,0.0,0.0,0.0,0.0,0.0,0.0,0.0,0.0,0.0,0.0,0.0,0.0,0.0,0.0,0.0,0.0,0.0,0.0,0.0,0.0,0.0,0.0,0.2116,-0.1899,-0.5747,-0.9229,-1.2308,-1.4024,-1.4936,0.0,0.0,0.0,0.0,0.0,0.0,0.0,0.0,0.0,0.0,0.0,0.0,0.0,0.0,0.0,0.0,0.0,0.0,0.0,0.0,0.0,0.0,0.0,0.0,0.0,0.0,0.0,0.0,0.0,0.0,0.0,0.0,0.0,0.0,0.0,0.0,0.0,0.0,0.0,0.0,0.0,0.0,0.0,0.0,0.0,0.0,0.0,0.0,0.0,0.0,0.0,0.0,0.0,0.0,0.0,0.0,0.0,0.0,0.0,0.0,0.0,0.0,0.0,0.0,0.0,0.0,0.0,0.0,0.0,0.0,0.0,0.0,0.0,0.0,0.0,0.0,0.0,0.0,0.0,0.0,0.0,0.0,0.0,0.0,0.0,0.0,0.0,0.0,0.0,0.0,0.0,0.0,0.0,0.0,0.0,0.0,0.0,0.0,0.0,0.0,0.0,0.0,0.0,0.0,0.0,0.0,0.0,0.7189,0.3021,-0.1879,-0.6145,-1.0164,-1.3956,-1.6364,-1.7258,-1.6596,0.0,0.0,0.0,0.0,0.0,0.0,0.0,0.0,0.0,0.0,0.0,0.0,0.0,0.0,0.0,0.0,0.0,0.0,0.0,0.0,0.0,0.0,0.0,0.0,0.0,0.0,0.0,0.0,0.0,0.0,0.0,0.0,0.0,0.0,0.0,0.0,0.0,0.0,-1.0616,-1.2694,0.0,0.0,0.0,0.0,0.0,0.0,0.0,0.0,-2.2624,0.0,0.0,0.0,0.0,0.0,0.0,0.0,0.0,0.0,0.0,0.0,0.0,0.0,0.0,0.0,0.0,0.0,0.0,0.0,0.0,0.0,0.0,0.0,0.0,0.0,0.0,0.0,0.0,0.0,0.0,0.0,0.0,0.0,0.0,0.0,0.0,0.0,0.0,0.0,0.0,0.0,0.0,0.0,0.0,0.0,0.0,0.0,0.0,0.0,0.0,0.0,0.0,0.0,0.0,0.0,0.0,1.2842,0.8989,0.4267,-0.1338,-0.6563,-1.1187,-1.5164,-1.7859,-1.9242,-1.9306,0.0,0.0,0.0,0.0,0.0,0.0,0.0,0.0,0.0,0.0,0.0,0.0,0.0,0.0,0.0,0.0,0.0,0.0,0.0,0.0,0.0,0.0,0.0,0.0,0.0,0.0,0.0,0.0,0.0,0.0,0.0,0.0,0.0,0.0,0.0,0.0,0.0,0.0,0.0,-1.4316,-1.6033,0.0,0.0,0.0,0.0,0.0,0.0,0.0,0.0,-2.4378,0.0,0.0,0.0,0.0,0.0,0.0,0.0,0.0,0.0,0.0,0.0,0.0,0.0,0.0,0.0,0.0,0.0,0.0,0.0,0.0,0.0,0.0,0.0,0.0,0.0,0.0,0.0,0.0,0.0,0.0,0.0,0.0,0.0,0.0,0.0,0.0,0.0,0.0,0.0,0.0,0.0,0.0,0.0,0.0,0.0,0.0,0.0,0.0,0.0,0.0,0.0,0.0,0.0,0.0,0.0,1.5166,1.1146,0.5976,-0.0375,-0.6273,-1.1546,-1.6161,-1.9015,-2.0661,0.0,0.0,0.0,0.0,0.0,0.0,0.0,0.0,0.0,0.0,0.0,0.0,0.0,0.0,0.0,0.0,0.0,0.0,0.0,0.0,0.0,0.0,0.0,0.0,0.0,0.0,0.0,0.0,0.0,0.0,0.0,0.0,0.0,0.0,0.0,0.0,0.0,0.0,0.0,0.0,-1.577,-1.7423,-1.8782,0.0,0.0,0.0,0.0,0.0,0.0,-2.5655,-2.5799,0.0,0.0,0.0,0.0,0.0,0.0,0.0,0.0,0.0,0.0,0.0,0.0,0.0,0.0,0.0,0.0,0.0,0.0,0.0,0.0,0.0,0.0,0.0,0.0,0.0,0.0,0.0,0.0,0.0,0.0,0.0,0.0,0.0,0.0,0.0,0.0,0.0,0.0,0.0,0.0,0.0,0.0,0.0,0.0,0.0,0.0,0.0,0.0,0.0,0.0,0.0,0.0,0.0,0.0,0.0,1.7515,1.3406,0.7892,0.0852,-0.5605,-1.1569,-1.6916,-2.0031,-2.1801,0.0,0.0,0.0,0.0,0.0,0.0,0.0,0.0,0.0,0.0,0.0,0.0,0.0,0.0,0.0,0.0,0.0,0.0,0.0,0.0,0.0,0.0,0.0,0.0,0.0,0.0,0.0,0.0,0.0,0.0,0.0,0.0,0.0,0.0,0.0,0.0,0.0,0.0,0.0,0.0,0.0,-1.8847,-2.0338,-2.1722,0.0,0.0,0.0,0.0,-2.6764,-2.6964,0.0,0.0,0.0,0.0,0.0,0.0,0.0,0.0,0.0,0.0,0.0,0.0,0.0,0.0,0.0,0.0,0.0,0.0,0.0,0.0,0.0,0.0,0.0,0.0,0.0,0.0,0.0,0.0,0.0,0.0,0.0,0.0,0.0,0.0,0.0,0.0,0.0,0.0,0.0,0.0,0.0,0.0,0.0,0.0,0.0,0.0,0.0,0.0,0.0,0.0,0.0,0.0,0.0,0.0,0.0,0.0,1.9955,1.5853,1.0082,0.271,-0.4684,-1.1326,-1.7274,-2.0799,-2.2742,0.0,0.0,0.0,0.0,0.0,0.0,0.0,0.0,0.0,0.0,0.0,0.0,0.0,0.0,0.0,0.0,0.0,0.0,0.0,0.0,0.0,0.0,0.0,0.0,0.0,0.0,0.0,0.0,0.0,0.0,0.0,0.0,0.0,0.0,0.0,0.0,0.0,0.0,0.0,0.0,0.0,-2.0473,-2.1939,-2.3303,-2.4678,0.0,0.0,-2.7494,-2.7941,-2.8202,0.0,0.0,0.0,0.0,0.0,0.0,0.0,0.0,0.0,0.0,0.0,0.0,0.0,0.0,0.0,0.0,0.0,0.0,0.0,0.0,0.0,0.0,0.0,0.0,0.0,0.0,0.0,0.0,0.0,0.0,0.0,0.0,0.0,0.0,0.0,0.0,0.0,0.0,0.0,0.0,0.0,0.0,0.0,0.0,0.0,0.0,0.0,0.0,0.0,0.0,0.0,0.0,0.0,0.0,0.0,2.4664,2.1973,1.812,1.2452,0.4945,-0.3033,-1.0393,-1.6946,-2.0899,-2.3147,0.0,0.0,0.0,0.0,0.0,0.0,0.0,0.0,0.0,0.0,0.0,0.0,0.0,0.0,0.0,0.0,0.0,0.0,0.0,0.0,0.0,0.0,0.0,0.0,0.0,0.0,0.0,0.0,0.0,0.0,0.0,0.0,0.0,0.0,0.0,0.0,0.0,0.0,0.0,0.0,0.0,0.0,-2.3744,-2.498,0.0,0.0,0.0,-2.9322,-2.9735,0.0,0.0,0.0,0.0,0.0,0.0,0.0,0.0,0.0,0.0,0.0,0.0,0.0,0.0,0.0,0.0,0.0,0.0,0.0,0.0,0.0,0.0,0.0,0.0,0.0,0.0,0.0,0.0,0.0,0.0,0.0,0.0,0.0,0.0,0.0,0.0,0.0,0.0,0.0,0.0,0.0,0.0,0.0,0.0,0.0,0.0,0.0,0.0,0.0,0.0,0.0,0.0,0.0,0.0,0.0,0.0,0.0,2.3697,2.0042,1.4572,0.7222,-0.1246,-0.9091,-1.6293,-2.0767,0.0,0.0,0.0,0.0,0.0,0.0,0.0,0.0,0.0,0.0,0.0,0.0,0.0,0.0,0.0,0.0,0.0,0.0,0.0,0.0,0.0,0.0,0.0,0.0,0.0,0.0,0.0,-1.7857,0.0,0.0,0.0,0.0,0.0,0.0,0.0,0.0,0.0,0.0,0.0,0.0,0.0,0.0,-2.4296,-2.5754,-2.6833,-2.8148,0.0,0.0,-3.1108,-3.1424,-3.1361,-3.1058,0.0,0.0,0.0,0.0,0.0,0.0,0.0,0.0,0.0,0.0,0.0,0.0,0.0,0.0,0.0,0.0,0.0,0.0,0.0,0.0,0.0,0.0,0.0,0.0,0.0,0.0,0.0,0.0,0.0,0.0,0.0,0.0,0.0,0.0,0.0,0.0,0.0,0.0,0.0,0.0,0.0,0.0,0.0,0.0,0.0,0.0,0.0,0.0,0.0,0.0,0.0,0.0,0.0,0.0,0.0,2.4953,2.1249,1.6127,0.9497,0.0771,-0.7611,-1.55,-2.0457,-2.3367,0.0,0.0,0.0,0.0,0.0,0.0,0.0,0.0,0.0,0.0,0.0,0.0,0.0,0.0,0.0,0.0,0.0,0.0,0.0,0.0,0.0,0.0,0.0,0.0,0.0,0.0,0.0,0.0,0.0,0.0,0.0,0.0,0.0,0.0,0.0,0.0,0.0,0.0,0.0,0.0,0.0,-2.6152,-2.8071,-2.9107,-3.0202,0.0,0.0,-3.2676,-3.2761,-3.2194,-3.1741,-3.1682,0.0,0.0,0.0,0.0,0.0,0.0,0.0,0.0,0.0,0.0,0.0,0.0,0.0,0.0,0.0,0.0,0.0,0.0,0.0,0.0,0.0,0.0,0.0,0.0,0.0,0.0,0.0,0.0,0.0,0.0,0.0,0.0,0.0,0.0,0.0,0.0,0.0,0.0,0.0,0.0,0.0,0.0,0.0,0.0,0.0,0.0,0.0,0.0,0.0,0.0,0.0,0.0,0.0,2.5851,2.579,2.3157,1.854,1.1767,0.2975,-0.5737,-1.4281,-1.9748,-2.3134,0.0,0.0,0.0,0.0,0.0,0.0,0.0,0.0,0.0,0.0,0.0,0.0,0.0,0.0,0.0,0.0,0.0,0.0,0.0,0.0,0.0,0.0,0.0,0.0,0.0,0.0,0.0,0.0,-2.1578,-2.1088,-2.0434,0.0,0.0,0.0,0.0,0.0,0.0,0.0,0.0,0.0,0.0,-2.8378,-2.9541,-3.0696,0.0,0.0,-3.3574,-3.3728,-3.3763,-3.3532,-3.2976,-3.1909,-3.1125,0.0,0.0,0.0,0.0,0.0,0.0,0.0,0.0,0.0,0.0,0.0,0.0,0.0,0.0,0.0,0.0,0.0,0.0,0.0,0.0,0.0,0.0,0.0,0.0,0.0,0.0,0.0,0.0,0.0,0.0,0.0,0.0,0.0,0.0,0.0,0.0,0.0,0.0,0.0,0.0,0.0,0.0,0.0,0.0,0.0,0.0,0.0,0.0,0.0,0.0,0.0,0.0,2.5679,2.6195,2.4378,2.0307,1.3857,0.509,-0.3845,-1.277,-1.8965,-2.2906,0.0,0.0,0.0,0.0,0.0,0.0,0.0,0.0,0.0,0.0,0.0,0.0,0.0,0.0,0.0,0.0,0.0,0.0,0.0,0.0,0.0,0.0,0.0,0.0,0.0,0.0,0.0,0.0,-2.2976,-2.2628,-2.2068,0.0,0.0,0.0,0.0,0.0,0.0,0.0,0.0,0.0,0.0,-3.0242,-3.1316,-3.2312,-3.3334,-3.4429,-3.461,-3.4617,-3.4591,-3.4378,-3.375,-3.2576,0.0,0.0,0.0,0.0,0.0,0.0,0.0,0.0,0.0,0.0,0.0,0.0,0.0,0.0,0.0,0.0,0.0,0.0,0.0,0.0,0.0,0.0,0.0,0.0,0.0,0.0,0.0,0.0,0.0,0.0,0.0,0.0,0.0,0.0,0.0,0.0,0.0,0.0,0.0,0.0,0.0,0.0,0.0,0.0,0.0,0.0,0.0,0.0,0.0,0.0,0.0,0.0,0.0,2.4684,2.6238,2.4624,2.109,1.5543,0.7026,-0.1984,-1.1337,-1.8109,-2.2818,-2.5319,0.0,0.0,0.0,0.0,0.0,0.0,0.0,0.0,0.0,0.0,0.0,0.0,0.0,0.0,0.0,0.0,0.0,0.0,0.0,0.0,0.0,0.0,0.0,0.0,0.0,0.0,-2.3724,-2.3632,-2.3744,0.0,0.0,0.0,0.0,0.0,0.0,0.0,0.0,0.0,0.0,-3.0611,-3.1594,-3.3498,-3.4012,-3.4441,-3.5299,-3.5396,-3.5322,-3.5258,-3.451,-3.3901,0.0,0.0,0.0,0.0,0.0,0.0,0.0,0.0,0.0,0.0,0.0,0.0,0.0,0.0,0.0,0.0,0.0,0.0,0.0,0.0,0.0,0.0,0.0,0.0,0.0,0.0,0.0,1.4661,1.5326,0.0,0.0,0.0,0.0,0.0,0.0,0.0,0.0,0.0,0.0,0.0,2.1741,2.2589,0.0,0.0,0.0,0.0,0.0,0.0,0.0,0.0,0.0,0.0,0.0,0.0,2.4928,2.627,2.5782,2.2868,1.7397,0.8959,-0.0,-0.9445,-1.6835,-2.2565,-2.6514,0.0,0.0,0.0,0.0,0.0,0.0,0.0,0.0,0.0,0.0,0.0,0.0,0.0,0.0,0.0,0.0,0.0,0.0,0.0,0.0,0.0,0.0,0.0,0.0,0.0,-2.284,0.0,0.0,0.0,0.0,0.0,0.0,0.0,0.0,0.0,0.0,0.0,-2.944,-3.056,-3.1435,-3.242,-3.368,-3.4347,-3.4816,0.0,0.0,0.0,0.0,0.0,0.0,0.0,0.0,0.0,0.0,0.0,0.0,0.0,0.0,-3.2163,-3.2298,-3.228,-3.2316,-3.2541,0.0,0.0,0.0,0.0,0.0,0.0,0.0,0.0,0.0,0.0,0.0,0.0,0.0,0.0,0.0,0.0,1.6483,0.0,0.0,0.0,0.0,0.0,0.0,0.0,0.0,2.1334,2.2149,2.2784,2.3628,2.3948,0.0,2.3785,2.3188,0.0,0.0,0.0,0.0,0.0,0.0,0.0,0.0,2.5465,2.6687,2.6796,2.4313,1.9043,1.0888,0.2015,-0.7411,-1.6973,-2.3634,-2.7032,-2.6716,-2.633,0.0,0.0,0.0,0.0,0.0,0.0,0.0,0.0,0.0,0.0,0.0,0.0,0.0,0.0,0.0,0.0,0.0,0.0,0.0,0.0,0.0,0.0,0.0,-2.1122,0.0,0.0,0.0,0.0,0.0,0.0,0.0,0.0,0.0,-2.8381,-2.9049,-2.9783,-3.0859,-3.1883,-3.287,-3.3804,0.0,0.0,0.0,0.0,0.0,0.0,0.0,-3.4358,-3.3973,-3.3959,-3.3903,-3.3576,-3.3717,-3.384,-3.3916,0.0,0.0,-3.3592,-3.351,-3.36,-3.3832,-3.3871,-3.4047,-3.4601,-3.4718,-3.4936,0.0,0.0,0.0,0.0,0.0,0.0,0.0,0.0,1.6864,1.7412,0.0,1.7622,0.0,0.0,0.0,0.0,0.0,0.0,0.0,0.0,2.2146,2.2922,2.3824,2.4276,2.4605,2.4815,2.4799,2.4453,2.3793,2.2678,0.0,0.0,0.0,0.0,0.0,0.0,2.6207,2.7375,2.756,2.5355,2.0643,1.2848,0.3976,-0.5982,-1.847,-2.5697,-2.6863,-2.764,-2.7466,-2.6178,-2.6285,0.0,0.0,0.0,0.0,0.0,0.0,0.0,0.0,0.0,0.0,0.0,0.0,0.0,0.0,0.0,0.0,0.0,0.0,0.0,0.0,-1.9251,0.0,0.0,0.0,0.0,0.0,0.0,0.0,0.0,0.0,0.0,-2.6852,-2.8367,-2.9663,-3.0904,0.0,0.0,0.0,0.0,-3.4207,-3.4269,-3.4279,-3.4316,-3.4363,-3.434,-3.434,-3.4476,0.0,0.0,-3.5034,-3.5235,-3.5364,-3.5463,-3.5521,-3.5435,-3.4672,-3.453,-3.4765,-3.5451,-3.5568,-3.5678,-3.57,-3.5646,-3.5724,1.9197,0.0,0.0,0.0,0.0,1.7303,1.7852,1.8441,1.8487,1.8788,1.9242,1.904,0.0,0.0,0.0,0.0,0.0,0.0,2.2009,2.2449,2.3083,2.3706,2.4317,2.471,2.5045,2.5208,2.5339,2.5265,2.5056,2.481,2.3761,2.2081,0.0,0.0,0.0,0.0,2.6537,2.7697,2.8037,2.6266,2.2371,1.4825,0.3501,-1.1747,-1.9686,-2.4846,-2.7035,-2.7606,-2.7866,-2.7848,-2.6972,0.0,0.0,0.0,0.0,0.0,0.0,0.0,0.0,0.0,0.0,0.0,0.0,0.0,0.0,0.0,0.0,0.0,0.0,0.0,-1.6941,-1.6224,-1.5711,0.0,0.0,0.0,0.0,0.0,0.0,0.0,0.0,0.0,-2.1396,-2.4798,-2.7583,0.0,0.0,-3.1639,-3.2871,-3.3341,-3.3625,-3.3778,0.0,0.0,0.0,-3.4221,-3.4293,-3.4539,-3.471,-3.4889,-3.5056,-3.5229,-3.5369,-3.5483,-3.5596,-3.5557,-3.5408,-3.5344,-3.5441,-3.5667,-3.5698,-3.571,-3.5704,-3.5724,-3.5724,2.1862,2.0102,1.9376,1.8956,1.8899,1.9149,1.9574,2.0087,2.0165,2.0257,2.0494,2.0473,2.0514,2.0534,2.0716,0.0,0.0,0.0,2.2799,2.329,2.3767,2.4271,2.4766,2.5233,2.554,2.5659,2.5791,2.5901,2.5921,2.6066,2.5499,2.437,0.0,0.0,2.47,2.6208,2.7505,2.8446,2.8629,2.7082,2.3685,1.3454,0.1278,-1.251,-1.8917,-2.353,-2.6454,-2.7464,-2.8103,-2.8422,-2.7809,-2.7231,0.0,0.0,0.0,0.0,0.0,0.0,0.0,0.0,0.0,0.0,0.0,-2.341,0.0,0.0,0.0,0.0,-1.7181,-1.5942,-1.4613,-1.3566,0.0,0.0,0.0,0.0,0.0,0.0,0.0,-0.9846,-1.2216,-1.4582,-1.6317,-1.9952,-2.3674,-2.7017,-2.8925,-3.0533,-3.1933,0.0,-3.3136,-3.353,-3.3753,-3.3972,-3.4221,-3.4298,-3.4458,-3.4713,-3.4927,-3.5035,-3.5155,-3.5304,-3.5407,-3.5528,-3.5589,-3.5654,-3.5695,-3.5699,-3.5708,-3.5669,-3.5667,-3.5657,-3.5665,-3.5646,-3.5646,2.4208,2.3807,2.2038,2.1091,2.0773,2.09,2.1173,2.1531,2.1878,2.1872,2.1681,2.1936,2.1952,2.1746,2.2189,0.0,0.0,2.3068,2.3436,2.3867,2.4241,2.4648,2.5185,2.5702,2.5999,2.601,2.6225,2.6383,2.6487,2.6674,2.6889,2.7063,2.6754,2.6475,2.6295,2.7697,2.8785,2.9446,2.9291,2.7618,2.4147,1.0146,-0.1441,-0.9902,-1.661,-2.1783,-2.5208,-2.7075,-2.8082,-2.8215,-2.8602,-2.8226,-2.6881,0.0,0.0,0.0,0.0,0.0,0.0,0.0,0.0,0.0,0.0,0.0,0.0,0.0,0.0,0.0,-1.3969,0.0,-1.2522,-1.0966,0.0,0.0,0.0,-1.1346,-1.1515,-0.9046,-0.6661,-0.4866,0.0,0.0,0.0,0.0,-1.8483,-2.4269,-2.7257,-2.9534,-3.1185,-3.2092,-3.2809,-3.3578,-3.3902,-3.4184,-3.4486,-3.4615,-3.4756,-3.4977,-3.5136,-3.5247,-3.5316,-3.5438,-3.554,-3.5589,-3.5678,-3.5718,-3.5698,-3.5718,-3.5679,-3.5637,-3.5631,-3.5616,-3.5628,-3.562,-3.5612,2.5398,2.5259,2.4817,2.3993,2.3038,2.3154,2.3443,2.3747,2.3714,2.3459,2.3098,2.3105,2.2989,2.2815,2.3054,2.3304,2.3623,2.3794,2.4105,2.4574,2.4799,2.5153,2.5589,2.5921,2.6154,2.6314,2.6556,2.6774,2.7021,2.7224,2.7495,2.7901,2.8139,2.8074,2.778,2.8584,2.9281,2.9847,2.9686,2.6422,1.985,1.0689,0.1912,-0.6395,-1.334,-1.8935,-2.3092,-2.5496,-2.7179,-2.8117,-2.8294,-2.806,-2.7412,-2.6979,0.0,0.0,0.0,0.0,0.0,0.0,0.0,0.0,0.0,-2.0958,-2.1286,0.0,-1.5428,0.0,-1.064,-0.9408,-0.8078,-0.6777,0.0,0.0,-0.6548,-0.7538,-0.7256,-0.2659,0.0646,0.1096,-0.1671,-0.4446,-0.6467,-0.9796,-1.3416,-1.7301,-2.3373,-2.8385,-3.0943,-3.2246,-3.3169,-3.3914,-3.4358,-3.468,-3.4895,-3.5109,-3.5238,-3.5297,-3.5379,-3.5461,-3.5514,-3.5608,-3.5681,-3.5731,-3.5773,-3.5776,-3.5784,-3.5782,-3.5763,-3.5736,-3.5699,-3.5669,-3.5669,-3.5689,-3.5689,2.6573,2.6573,2.6573,2.6172,2.5535,2.5051,2.5036,2.5315,2.5418,2.5071,2.4312,2.4053,2.3879,2.3822,2.3975,2.4199,2.4502,2.4542,2.4839,2.5192,2.5406,2.5647,2.5994,2.6297,2.6539,2.6725,2.7036,2.7321,2.7547,2.7862,2.8183,2.8567,2.895,2.9128,2.9077,2.9377,2.9767,3.0156,2.9065,2.551,1.9335,1.2286,0.4865,-0.2854,-0.9855,-1.5741,-2.0221,-2.3077,-2.531,-2.6935,-2.7471,-2.768,-2.7508,-2.7428,-2.6914,0.0,0.0,0.0,0.0,0.0,0.0,0.0,0.0,0.0,0.0,0.0,-1.2673,0.0,0.0,0.0,-0.3814,-0.2582,-0.1238,0.026,-0.0781,-0.1884,-0.2596,0.2457,0.6318,0.698,0.4107,0.1424,-0.0271,-0.3715,-0.8863,-1.5859,-2.0939,-2.5784,-3.0575,-3.2601,-3.3621,-3.4339,-3.4718,-3.5007,-3.5204,-3.5363,-3.5456,-3.5489,-3.5528,-3.5554,-3.5626,-3.5677,-3.5727,-3.5752,-3.5797,-3.5788,-3.5795,-3.5806,-3.5806,-3.5806,-3.5779,-3.5734,-3.5742,-3.5741,-3.5762,2.77,2.77,2.77,2.7784,2.7868,2.6879,2.6491,2.6587,2.6938,2.6505,2.5497,2.4868,2.4648,2.4768,2.4981,2.516,2.5329,2.5368,2.5556,2.5868,2.6033,2.6227,2.6453,2.6774,2.7004,2.7244,2.7595,2.7897,2.8102,2.8504,2.8828,2.9101,2.9493,2.9806,3.0056,3.0063,3.0156,3.0294,2.8146,2.4961,2.0711,1.4337,0.7643,0.0605,-0.6261,-1.2134,-1.6815,-2.0053,-2.2655,-2.4756,-2.6041,-2.6774,-2.6938,-2.7469,-2.7281,0.0,-2.6151,0.0,0.0,0.0,0.0,0.0,0.0,0.0,0.0,-1.2997,-0.8595,-0.4952,-0.312,-0.1423,0.0456,0.1757,0.3512,0.5879,0.5773,0.4556,0.2607,0.7158,1.121,1.2779,1.001,0.7561,0.6668,0.3472,-0.3283,-1.3185,-1.7001,-2.1023,-2.8497,-3.2006,-3.3957,-3.4622,-3.4879,-3.5009,-3.5173,-3.5312,-3.541,-3.5466,-3.5466,-3.5543,-3.5577,-3.5595,-3.563,-3.5636,-3.5666,-3.5697,-3.574,-3.5728,-3.5719,-3.5714,-3.57,-3.5718,-3.5771,-3.5806,-3.5789,2.8857,2.8856,2.8872,2.8965,2.9057,2.9009,2.8592,2.7932,2.8128,2.7752,2.6851,2.5878,2.5481,2.5577,2.5819,2.6016,2.6175,2.6229,2.6437,2.6707,2.669,2.6905,2.7192,2.7396,2.7654,2.784,2.8129,2.8428,2.8748,2.8953,2.9267,2.9655,2.9947,3.0194,3.0397,0.0,0.0,0.0,2.81,2.5343,2.1545,1.6237,1.0264,0.3618,-0.2393,0.0,-1.2736,-1.617,-1.9001,-2.1358,-2.2989,0.0,0.0,0.0,0.0,0.0,0.0,0.0,0.0,0.0,0.0,0.0,-1.0728,-1.0117,-1.5126,-0.576,0.0547,0.0127,0.1793,0.3663,0.5216,0.6556,0.7892,0.9154,0.9991,0.9646,0.7925,1.2381,1.6561,1.843,1.5866,1.3839,1.3666,1.1978,0.7417,-0.1184,-0.675,-1.3021,-2.0488,-2.8476,-3.363,-3.4245,-3.4347,-3.4574,-3.4652,-3.4768,-3.4836,-3.4952,-3.504,-3.5078,-3.5087,-3.5165,-3.5213,-3.5245,-3.5295,-3.5315,-3.5353,-3.5378,-3.5347,-3.5378,-3.5353,-3.5392,-3.5662,-3.5767,-3.5798,2.9848,0.0,2.9989,3.0074,0.0,3.0369,3.0194,2.9864,2.9548,2.8919,2.7964,2.6825,2.6351,2.6455,2.664,2.6822,2.6985,2.7049,2.7158,2.7391,2.7482,2.7601,2.7765,2.7974,2.8174,2.834,2.8646,2.8946,2.9245,2.9493,2.9744,3.0056,3.0288,3.045,3.0537,3.0409,3.0111,2.9603,2.8004,2.5588,2.2342,1.7848,1.2724,0.7048,0.0,0.0,0.0,0.0,0.0,0.0,0.0,0.0,0.0,0.0,0.0,-2.2158,-2.2388,-2.1729,-1.9819,-1.5193,-1.092,-0.755,-0.3854,-0.2977,-0.5951,0.2651,0.7409,0.5655,0.722,0.8914,1.0227,1.1552,1.2671,1.3495,1.4494,1.4443,1.3262,1.6484,2.0293,2.2589,2.0893,1.9238,1.9561,1.8045,1.3686,0.617,-0.01,-0.6968,-1.5759,-2.5082,-3.1432,-3.2449,-3.2917,-3.3149,-3.3262,-3.3456,-3.3631,-3.371,-3.3846,-3.398,-3.4055,-3.413,-3.4264,-3.4373,-3.441,-3.4429,-3.4486,-3.4544,-3.4602,-3.4583,-3.4584,-3.4585,-3.4779,-3.5121,-3.5426,3.0834,3.0874,3.0971,3.1167,3.1342,3.1359,3.1514,3.1737,0.0,0.0,0.0,2.7822,2.731,2.7296,2.7435,2.7601,2.7759,2.7816,2.7901,2.8084,2.8201,2.828,2.8332,2.8567,2.8764,2.8909,2.9204,2.9476,2.9712,2.9975,3.0171,3.0344,3.0522,3.0582,3.0497,3.0192,2.9755,2.9194,2.785,2.5763,2.302,1.9294,1.5073,1.0373,0.5655,0.1138,-0.3101,-0.6397,-0.937,-1.2118,-1.4098,-1.5712,-1.69,-1.7821,-1.828,-1.8169,-1.8157,-1.6558,-1.2887,-0.7791,-0.2497,0.2767,0.4023,0.4752,0.524,1.0802,1.339,1.1317,1.2666,1.41,1.5174,1.6362,1.7393,1.7993,1.8956,1.8935,1.7672,2.0099,2.336,2.6133,2.4993,2.3915,2.4245,2.3232,1.9386,1.1752,0.6235,-0.156,-1.2166,-2.1771,-2.8189,-2.9453,-3.0091,-3.0676,-3.1052,-3.1317,-3.1649,-3.1711,-3.2014,-3.2288,-3.243,-3.2617,-3.2802,-3.2912,-3.3066,-3.3111,-3.3183,-3.3272,-3.343,-3.343,-3.3449,-3.346,-3.3603,-3.3995,-3.4412,3.1752,3.188,3.1915,3.2039,3.2248,3.2369,3.2553,3.2773,3.1461,3.0472,2.9715,2.9195,2.8596,2.7974,2.8228,2.8358,2.8384,2.856,2.8676,0.0,2.8851,2.8968,2.9119,2.9283,2.9458,2.9655,2.9798,2.9989,3.019,3.0337,3.0489,3.0559,3.0639,3.0547,3.026,2.9875,2.9326,2.8631,2.7609,2.59,2.3448,2.0449,1.695,1.2913,0.9144,0.5409,0.1727,-0.1275,-0.4001,-0.6423,-0.9618,-1.1337,-1.131,-1.1944,-1.2508,-1.2917,-1.2752,-1.1711,-0.9546,-0.3595,0.4238,1.3505,1.4464,1.3723,1.2343,1.7176,1.9348,1.6951,1.7771,1.8951,1.9779,2.0553,2.1325,2.2043,2.2844,2.2855,2.1806,2.3835,2.635,2.8709,2.7894,2.7198,2.7742,2.8236,2.5921,1.9963,1.3365,0.6309,-0.7307,-1.8166,-2.394,-2.5527,-2.6394,-2.7026,-2.7433,-2.814,-2.8468,-2.8916,-2.9255,-2.9576,-2.9839,-3.0137,-3.0432,-3.0759,-3.092,-3.1115,-3.1237,-3.1497,-3.1566,-3.1566,-3.1583,-3.1809,-3.2246,-3.213,-3.2263,3.2631,3.2741,3.2791,3.2885,3.3069,3.3189,3.3411,3.3579,3.3012,3.1916,3.06,2.998,2.9337,2.8712,2.8828,2.8964,2.9092,2.9196,2.928,2.9343,2.9439,2.9531,2.9616,2.9763,2.9894,3.0056,3.0175,3.0317,3.0471,3.0541,3.0601,3.0605,3.0492,3.0278,2.9975,2.9492,2.8916,2.8216,2.7362,2.5932,2.3946,2.1425,1.8588,1.5401,1.2327,0.9223,0.6097,0.3528,0.1154,-0.1023,-0.3371,-0.4806,-0.513,-0.5697,-0.6117,-0.621,-0.5653,-0.3874,-0.0842,0.6993,1.4822,2.2135,2.272,2.2245,2.1258,2.3403,2.3829,2.1624,2.2184,2.2925,2.3569,2.4207,2.4829,2.5277,2.5868,2.591,2.5493,2.6658,2.8333,2.9674,2.9255,2.8822,2.9057,2.9524,2.8177,2.304,1.666,0.7705,-0.184,-0.868,-1.4782,-1.929,-2.1346,-2.2321,-2.3036,-2.3906,-2.4584,-2.5006,-2.5611,-2.6169,-2.6572,-2.7003,-2.7458,-2.7857,-2.8131,-2.8402,-2.8562,-2.892,-2.9124,-2.9199,-2.9258,-2.9548,-2.9779,-2.9655,-3.0179,3.3439,3.3524,3.3579,3.3688,3.3802,3.3963,3.4091,3.4269,3.4364,3.3411,3.1825,3.095,3.0219,2.964,2.9494,2.9514,2.9696,2.9748,2.9794,2.9832,2.9975,3.0021,3.0037,3.0155,3.026,3.0377,3.0451,3.0511,3.0609,3.0644,3.0606,3.0469,3.0229,2.9932,2.9602,2.9029,2.8458,2.7847,2.7006,2.5839,2.4358,2.2288,2.0073,1.7611,1.5115,1.2584,0.9952,0.787,0.5886,0.4014,0.2718,0.1614,0.0772,0.0576,0.0445,0.0506,0.1503,0.4209,0.9197,1.6788,2.3267,2.7462,2.8281,2.8386,2.8141,2.8147,2.7361,2.5695,2.5703,2.6216,2.6579,2.7083,2.7551,2.7797,2.8146,2.8188,2.8018,2.8725,2.9458,2.997,2.9746,2.9348,2.9118,2.9066,2.7446,2.3062,1.6086,0.9232,0.4309,0.0224,-0.5064,-1.0704,-1.4887,-1.6996,-1.8058,-1.9098,-1.9984,-2.0612,-2.1343,-2.1977,-2.2604,-2.3193,-2.375,-2.4245,-2.4706,-2.4973,-2.5346,-2.5805,-2.6076,-2.6127,-2.6279,-2.6583,-2.6857,-2.6594,-2.7485,3.4056,3.4128,3.42,3.4292,3.4445,3.4617,3.4717,3.4756,3.4923,3.4511,3.3541,3.2484,3.1599,3.0892,3.03,3.0071,3.0099,3.0164,3.022,3.0248,3.0375,3.044,3.044,3.0516,3.0594,3.0632,3.0657,3.0644,3.0645,3.0559,3.0382,3.0131,2.9878,2.9512,2.9042,2.8306,2.7736,2.7361,2.6573,2.5607,2.4498,2.3025,2.1227,1.9071,1.7257,1.528,1.3161,1.1502,0.9893,0.8576,0.7751,0.6843,0.6041,0.6715,0.6967,0.6324,0.7611,1.1272,1.7593,2.1995,2.5257,2.7791,2.9438,2.9981,2.9369,2.976,2.9516,2.8237,2.8195,2.8409,2.8707,2.8883,2.902,2.9126,2.9375,2.9641,2.9595,2.9746,2.9757,2.9473,2.9291,2.9004,2.8505,2.8176,2.6208,2.2052,1.7332,1.2523,0.8626,0.5214,0.2199,-0.1645,-0.6364,-1.0907,-1.2557,-1.3893,-1.4959,-1.5824,-1.6522,-1.7334,-1.8104,-1.886,-1.9495,-2.007,-2.0688,-2.1102,-2.1512,-2.1944,-2.2418,-2.2614,-2.293,-2.3436,-2.3633,-2.3215,-2.4028,3.4637,3.4698,3.4737,3.4868,3.4992,3.5073,3.5151,3.5225,3.5295,3.5193,3.487,3.3925,3.3024,3.218,3.1395,3.1086,3.1139,3.0703,3.0502,3.0547,3.0586,3.0609,3.0625,3.0632,3.0663,3.0698,3.0657,3.0609,3.0496,3.0259,2.9978,2.9702,2.9458,2.9116,2.8621,2.8031,2.749,2.7066,2.6264,2.5427,2.4521,2.3288,2.189,2.0367,1.8794,1.7225,1.5625,1.4218,1.2955,1.1806,1.1145,1.0567,0.9906,1.0443,1.0746,1.0854,1.3141,1.6256,2.0335,2.3096,2.5363,2.7271,2.881,2.9539,2.9245,2.9396,2.9315,2.9093,2.9235,2.9493,2.9576,2.9673,2.9739,2.9785,2.9847,2.997,3.0224,2.9796,2.9225,2.8531,2.87,2.8639,2.7752,2.6604,2.4626,2.1524,1.8314,1.5091,1.1979,0.9337,0.6945,0.4581,0.0904,-0.2923,-0.66,-0.9422,-1.0519,-1.1002,-1.1703,-1.2607,-1.3552,-1.4343,-1.4957,-1.565,-1.6386,-1.6997,-1.748,-1.7981,-1.8513,-1.8847,-1.9415,-1.9935,-2.0358,-2.0194,-2.1077,3.5452,3.5458,3.5326,3.5334,3.5425,3.5423,3.548,3.5573,3.5601,3.5643,3.5652,3.5073,3.4458,3.3685,3.2652,3.22,3.2155,3.1383,3.1001,3.1028,3.0811,3.0702,3.0661,3.0645,3.0634,3.0623,3.0535,3.0375,3.0155,2.9878,2.9568,2.9263,2.9027,2.8676,2.821,2.7689,2.7189,2.6657,2.5961,2.523,2.4502,2.3507,2.2423,2.1293,1.9978,1.8708,1.75,1.6434,1.5466,1.4585,1.3996,1.3562,1.3245,1.3348,1.3756,1.4685,1.7027,1.942,2.1476,2.3305,2.4965,2.6447,2.7756,2.8583,2.8823,2.8918,2.9153,2.9551,2.9826,2.9986,3.014,3.0137,3.0181,3.0325,3.026,3.028,3.0177,2.9663,2.8953,2.7911,2.818,2.815,2.7016,2.5401,2.355,2.1874,1.9555,1.7126,1.4749,1.2435,1.0381,0.859,0.6829,0.3516,-0.1452,-0.4273,-0.5651,-0.6414,-0.6899,-0.7869,-0.8946,-0.9832,-1.0578,-1.1363,-1.2069,-1.2663,-1.3182,-1.3761,-1.4571,-1.5099,-1.573,-1.6269,-1.6754,-1.7062,-1.7494,3.6714,3.6593,3.597,3.5687,3.5674,3.5733,3.5775,3.5766,3.5831,3.5853,3.5796,3.5794,3.578,3.5547,3.3973,3.3258,3.3131,3.2303,3.1933,3.1851,3.115,3.0704,3.0617,3.0528,3.0488,3.0491,3.0275,2.9999,2.9638,2.9439,2.9156,2.8837,2.8554,2.8192,2.7725,2.7238,2.6723,2.6158,2.5556,2.5013,2.4482,2.3767,2.2815,2.1813,2.0832,1.9851,1.885,1.8167,1.7446,1.6834,1.6306,1.6012,1.581,1.581,1.6367,1.7652,1.8907,2.0356,2.1918,2.3274,2.4521,2.5677,2.6705,2.755,2.8521,2.8877,2.9301,3.0044,2.9981,3.0155,3.0414,3.0298,3.049,3.0968,3.0954,3.0442,2.9692,2.9679,2.9123,2.8013,2.7757,2.7372,2.6171,2.4727,2.3398,2.2019,2.0287,1.8398,1.6564,1.4664,1.2998,1.1464,0.9734,0.7374,0.3003,0.0537,-0.0538,-0.1305,-0.2373,-0.3153,-0.4464,-0.5616,-0.637,-0.7127,-0.7705,-0.83,-0.8851,-0.9601,-1.0613,-1.1272,-1.1946,-1.2453,-1.3221,-1.3573,-1.4151,3.7518,3.7027,3.6732,3.6304,3.5849,3.5848,3.5862,3.5852,3.5877,3.5879,3.5852,3.586,3.5845,3.5778,3.5149,3.4566,3.4022,3.3165,3.2747,3.2672,3.2324,3.2119,3.1961,3.1394,3.1008,3.0825,3.0202,2.9658,2.9219,2.892,2.8615,2.8298,2.8002,2.7613,2.7192,2.6824,2.6401,2.5974,2.5384,2.4934,2.4498,2.3767,2.3098,2.2512,2.1527,2.0646,1.9863,1.9303,1.8721,1.8112,1.7818,1.7599,1.7446,1.7763,1.8466,1.9386,2.0694,2.1876,2.2951,2.4172,2.5284,2.6109,2.6598,2.724,2.8062,2.8625,2.9007,2.9162,2.9231,2.941,2.9836,3.0009,3.0134,3.0266,3.0077,2.9933,2.9706,2.9196,2.8421,2.7827,2.7291,2.6512,2.5776,2.4723,2.3457,2.2201,2.0749,1.9246,1.7842,1.6253,1.4846,1.3693,1.2451,1.0873,0.874,0.5692,0.3855,0.2934,0.2005,0.1079,-0.0077,-0.1232,-0.2072,-0.2916,-0.3534,-0.4382,-0.5056,-0.6291,-0.7116,-0.7735,-0.8341,-0.9255,-0.9862,-1.037,-1.1052,3.8355,3.7626,3.7556,3.7051,3.6328,3.6287,3.6124,3.5899,3.5874,3.5849,3.5819,3.5775,3.5714,3.5696,3.5611,3.5281,3.4675,3.3891,3.3477,3.3354,3.3048,3.2788,3.2555,3.1947,3.1561,3.1297,3.0563,2.9931,2.9552,2.9186,2.8754,2.8217,2.7866,2.7385,2.6791,2.6436,2.6082,2.5696,2.524,2.4806,2.4343,2.3767,2.329,2.2889,2.2156,2.141,2.0723,2.0246,1.9733,1.9267,1.9085,1.8999,1.9084,1.9707,2.0391,2.1095,2.2092,2.3059,2.3778,2.4813,2.5679,2.6243,2.6639,2.7132,2.7865,2.8437,2.8697,2.8754,2.8794,2.9008,2.9246,2.9441,2.9583,2.9761,2.9561,2.9627,3.0074,2.9165,2.8287,2.7561,2.6748,2.5992,2.5424,2.45,2.3408,2.2237,2.1049,1.989,1.868,1.7599,1.6507,1.5384,1.4378,1.3353,1.1911,0.9702,0.7454,0.6388,0.5172,0.4484,0.3793,0.2786,0.1936,0.1161,0.031,-0.0543,-0.1627,-0.2866,-0.3716,-0.4332,-0.5257,-0.6249,-0.6866,-0.7407,-0.8152,3.9266,3.8456,3.842,3.7901,3.7152,3.7099,3.6618,3.5944,3.5878,3.5834,3.5689,3.562,3.5535,3.5483,3.5331,3.5224,3.499,3.441,3.4077,3.3925,3.3177,3.2695,3.2503,3.2241,3.1871,3.1597,3.1249,3.0867,3.0471,3.0077,2.947,2.8682,2.8285,2.7623,2.6484,2.6333,2.5901,2.5509,2.5203,2.472,2.4135,2.3932,2.3629,2.3229,2.279,2.2244,2.1518,2.105,2.0677,2.0335,2.0182,2.0308,2.08,2.146,2.2187,2.2578,2.3239,2.3784,2.4341,2.5005,2.5619,2.6074,2.6534,2.7165,2.7793,2.8276,2.8667,2.8881,2.8944,2.9025,2.8948,2.8853,2.9013,2.9762,2.9593,2.9669,3.0009,2.9674,2.8676,2.7188,2.6212,2.5563,2.4865,2.4105,2.3207,2.2237,2.1376,2.0431,1.9431,1.8499,1.7619,1.6724,1.5745,1.4824,1.425,1.344,1.1415,0.9546,0.8174,0.7186,0.6576,0.5644,0.4953,0.4176,0.3333,0.2402,0.1164,0.0,-0.0621,-0.1319,-0.2333,-0.3269,-0.396,-0.457,-0.5428,4.0039,3.9253,3.9179,3.8633,3.7897,3.785,3.7317,3.645,3.643,3.6052,3.5495,3.5345,3.5258,3.5165,3.5051,3.4925,3.4775,3.4491,3.4453,3.4433,3.4074,3.3765,3.3499,3.2809,3.1961,3.1111,3.0707,3.0404,3.0113,2.9824,2.9334,2.8868,2.8549,2.8065,2.7367,2.7143,2.684,2.6487,2.615,2.579,2.5452,2.5138,2.4819,2.454,2.4272,2.3889,2.3399,2.2419,2.195,2.2009,2.189,2.1887,2.2126,2.2484,2.2897,2.3294,2.4149,2.4737,2.5103,2.5908,2.6468,2.6812,2.7244,2.758,2.7883,2.8132,2.8352,2.8431,2.8367,2.8255,2.8189,2.8012,2.8209,2.9011,2.8748,2.8683,2.8974,2.7786,2.6628,2.6122,2.5605,2.4991,2.435,2.3708,2.3005,2.2273,2.1514,2.0677,1.9966,1.9177,1.8509,1.7687,1.6872,1.6123,1.5471,1.4824,1.3491,1.1784,1.0587,0.9406,0.8878,0.8358,0.7664,0.6824,0.606,0.5054,0.3887,0.2879,0.2101,0.148,0.0622,-0.0234,-0.1014,-0.1869,-0.2721,4.0461,3.9945,3.989,3.9335,3.855,3.8491,3.7935,3.7102,3.7011,3.6473,3.5692,3.5472,3.5191,3.487,3.4693,3.4548,3.442,3.4298,3.4274,3.4348,3.433,3.4184,3.3949,3.3131,3.2296,3.1535,3.1137,3.081,3.0456,3.0158,2.9748,2.9211,2.8871,2.8375,2.7802,2.7515,2.7222,2.695,2.6585,2.6289,2.6047,2.574,2.5458,2.5191,2.5029,2.4817,2.4654,2.3747,2.321,2.3137,2.3002,2.3012,2.3083,2.3555,2.3892,2.4283,2.4905,2.5544,2.5797,2.6399,2.7003,2.7144,2.7386,2.7575,2.766,2.7775,2.7825,2.774,2.766,2.7494,2.7408,2.7174,2.7297,2.7735,2.76,2.7593,2.7647,2.6279,2.5313,2.5162,2.4921,2.4492,2.4028,2.3424,2.2848,2.2297,2.1651,2.1008,2.0366,1.9715,1.9044,1.8385,1.7638,1.7019,1.6603,1.5965,1.5259,1.4004,1.2677,1.1582,1.0771,1.0335,0.9723,0.8666,0.7749,0.6984,0.5893,0.5132,0.4356,0.3895,0.3196,0.2261,0.1325,0.0703,-0.0156,4.0535,4.0481,4.0469,3.989,3.9097,3.9045,3.8497,3.77,3.7547,3.6975,3.6211,3.5819,3.5356,3.4701,3.4498,3.4303,3.4124,3.3876,3.3707,3.3662,3.3689,3.3662,3.3447,3.2906,3.2521,3.2327,3.2074,3.1792,3.1268,3.1002,3.0572,2.9636,2.9247,2.8681,2.8017,2.7498,2.7336,2.7136,2.6731,2.6459,2.6213,2.595,2.5682,2.5442,2.5277,2.5278,2.5354,2.5071,2.4465,2.3632,2.3743,2.3861,2.4107,2.4664,2.5065,2.5315,2.5701,2.5946,2.6258,2.6525,2.6794,2.6884,2.7026,2.7181,2.7167,2.7167,2.7167,2.7093,2.6989,2.687,2.6683,2.6457,2.639,2.6283,2.6578,2.6697,2.6562,2.5397,2.4732,2.453,2.4292,2.4008,2.3819,2.3271,2.2787,2.242,2.1851,2.121,2.0688,2.0118,1.9462,1.8865,1.8259,1.7716,1.7226,1.6742,1.6105,1.5313,1.4212,1.3346,1.2352,1.1842,1.1329,1.0265,0.9357,0.867,0.7986,0.7141,0.6377,0.5755,0.506,0.4368,0.3591,0.281,0.2031,4.0266,4.0194,4.0082,3.9908,3.9658,3.9615,3.9034,3.8162,3.7985,3.7399,3.6534,3.5982,3.5502,3.4921,3.4823,3.4376,3.3743,3.3444,3.3232,3.3032,3.2957,3.2925,3.2798,3.2537,3.2231,3.202,3.1802,3.1449,3.1004,3.0861,3.0476,2.991,2.9589,2.9251,2.8764,2.8399,2.8217,2.8015,2.7699,2.7413,2.7252,2.7105,2.6966,2.6716,2.6541,2.6411,2.6213,2.5856,2.545,2.4998,2.4846,2.4886,2.5011,2.5217,2.5411,2.5633,2.5907,2.6071,2.6179,2.634,2.6447,2.65,2.6645,2.6669,2.6669,2.6669,2.6669,2.6578,2.6486,2.634,2.6218,2.5988,2.577,2.5439,2.5785,2.5993,2.5716,2.4894,2.4156,2.3916,2.393,2.3819,2.3522,2.3103,2.2665,2.242,2.1987,2.1498,2.1031,2.0518,1.9868,1.9407,1.8865,1.8395,1.793,1.7442,1.689,1.6385,1.5508,1.4712,1.373,1.2886,1.2144,1.1323,1.0795,1.011,0.9518,0.8836,0.8223,0.7456,0.6769,0.5996,0.5226,0.4448,0.3828,3.996,3.9854,3.9769,3.9698,3.9599,3.9508,3.9164,3.8637,3.8383,3.7784,3.699,3.6481,3.5933,3.5337,3.5223,3.4619,3.3687,3.3508,3.3137,3.2519,3.2266,3.2249,3.2266,3.2073,3.1748,3.1487,3.1295,3.0982,3.0617,3.0426,3.0172,2.981,2.9547,2.9321,2.895,2.87,2.8525,2.8348,2.8118,2.7855,2.779,2.7675,2.7473,2.7269,2.7203,2.6945,2.6472,2.6165,2.5853,2.5633,2.5411,2.5369,2.5494,2.555,2.5647,2.5729,2.5893,2.6056,2.6111,2.6165,2.6233,2.6286,2.6365,2.6418,2.6418,2.6351,2.6297,2.6258,2.6042,2.5948,2.5798,2.5578,2.523,2.4948,2.5157,2.5268,2.5124,2.4425,2.3903,2.3722,2.3623,2.3641,2.339,2.2982,2.2739,2.2494,2.2073,2.1686,2.1285,2.0786,2.027,1.9802,1.9351,1.8818,1.8444,1.8047,1.7653,1.7139,1.6475,1.5786,1.4984,1.398,1.3178,1.2586,1.207,1.1558,1.0881,1.0288,0.9679,0.8912,0.8237,0.7548,0.6773,0.5928,0.5309,3.9623,3.9433,3.9433,3.9324,3.9183,3.9073,3.8961,3.8884,3.8584,3.8096,3.7491,3.7158,3.649,3.5714,3.5616,3.5001,3.4035,3.3916,3.3161,3.2439,3.1834,3.1617,3.1821,3.1562,3.1334,3.11,3.0845,3.0535,3.0215,3.006,2.9798,2.9486,2.9213,2.8967,2.8779,2.8525,2.8396,2.825,2.8005,2.779,2.7725,2.7625,2.7488,2.7233,2.713,2.6855,2.6433,2.6179,2.6016,2.5729,2.5592,2.555,2.555,2.5633,2.5674,2.5729,2.5839,2.5948,2.6056,2.6056,2.6071,2.6165,2.6165,2.6233,2.6179,2.6056,2.5948,2.5811,2.5729,2.5522,2.5355,2.5131,2.4835,2.462,2.4571,2.4553,2.4482,2.4073,2.369,2.3585,2.3424,2.3403,2.3283,2.3042,2.2678,2.2616,2.2197,2.1749,2.1423,2.1042,2.0582,2.0129,1.9681,1.9239,1.8879,1.8592,1.8232,1.7824,1.7204,1.6553,1.6079,1.5218,1.4408,1.368,1.3098,1.2512,1.2003,1.1409,1.0905,1.0212,0.9448,0.8917,0.8228,0.7395,0.6626,3.9264,3.911,3.9045,3.896,3.8862,3.8676,3.8585,3.8491,3.83,3.8026,3.7747,3.7431,3.6791,3.6007,3.5936,3.5366,3.4331,3.4097,3.3561,3.2454,3.1382,3.1038,3.11,3.1032,3.0935,3.0716,3.0468,3.0172,2.9913,2.9694,2.947,2.9167,2.8936,2.87,2.8525,2.8332,2.8137,2.794,2.7855,2.7725,2.7675,2.7625,2.7488,2.7233,2.7041,2.6779,2.65,2.634,2.6179,2.6002,2.5784,2.5688,2.5729,2.5729,2.5729,2.5784,2.5839,2.5893,2.5893,2.5839,2.5784,2.5839,2.5798,2.5716,2.5758,2.5675,2.5578,2.5425,2.5258,2.5061,2.4835,2.4593,2.4421,2.4287,2.4236,2.4184,2.4138,2.3878,2.3539,2.3361,2.3352,2.333,2.3198,2.2921,2.2751,2.2629,2.2333,2.1886,2.1544,2.1325,2.1054,2.0709,2.0302,1.9931,1.9572,1.928,1.8794,1.8501,1.7918,1.7379,1.6881,1.6323,1.5429,1.4688,1.3977,1.3506,1.3149,1.2628,1.2071,1.1403,1.0709,1.0079,0.9418,0.8688,0.8018,3.8902,3.8725,3.8664,3.8572,3.8446,3.8303,3.8204,3.8104,3.7845,3.7685,3.7577,3.7323,3.6867,3.6355,3.6264,3.5684,3.4634,3.3945,3.3417,3.2722,3.1968,3.1482,3.0948,3.0839,3.0705,3.0415,3.0103,2.9798,2.9515,2.935,2.9167,2.8858,2.8668,2.8477,2.8299,2.8137,2.794,2.784,2.774,2.7675,2.761,2.7575,2.7473,2.7233,2.6937,2.6674,2.6394,2.634,2.6179,2.6002,2.5893,2.5839,2.5893,2.5839,2.5784,2.5784,2.5784,2.5743,2.5688,2.5647,2.5647,2.5578,2.5536,2.5536,2.5494,2.5424,2.5271,2.5145,2.4962,2.4721,2.4478,2.4319,2.4171,2.4034,2.394,2.3876,2.3841,2.3662,2.3446,2.3182,2.322,2.3185,2.3078,2.3058,2.2813,2.2788,2.2832,2.2464,2.2186,2.192,2.1775,2.1453,2.1061,2.064,2.0306,1.9899,1.9372,1.9053,1.8638,1.821,1.7742,1.7131,1.6426,1.5805,1.5161,1.4836,1.4494,1.3848,1.3278,1.2759,1.2093,1.1343,1.0712,1.0053,0.9454,3.8559,3.8336,3.8318,3.8219,3.8018,3.7881,3.7828,3.7739,3.741,3.722,3.7182,3.6987,3.6759,3.6557,3.644,3.5811,3.4866,3.3845,3.3275,3.3067,3.2536,3.1978,3.1455,3.1083,3.0768,3.0198,2.9762,2.9428,2.9167,2.9045,2.8858,2.8589,2.8429,2.8284,2.8137,2.794,2.779,2.7725,2.7675,2.761,2.756,2.756,2.7473,2.7181,2.6937,2.6659,2.6447,2.6326,2.6179,2.5948,2.5893,2.5879,2.5893,2.5893,2.5784,2.5674,2.5688,2.5647,2.5536,2.5494,2.5425,2.5439,2.5383,2.5438,2.5367,2.5143,2.4905,2.4845,2.4713,2.4699,2.4471,2.4491,2.43,2.4034,2.3837,2.3691,2.3779,2.3849,2.3984,2.3525,2.364,2.3728,2.3591,2.3505,2.3207,2.2973,2.3101,2.3059,2.2775,2.2538,2.2421,2.2037,2.1607,2.115,2.0757,2.0772,2.0282,1.9802,1.9412,1.9106,1.8658,1.8273,1.7703,1.694,1.638,1.6051,1.5578,1.4927,1.4421,1.4052,1.3447,1.2583,1.2,1.1484,1.0761,3.8119,3.8003,3.7985,3.7863,3.7685,3.7484,3.7427,3.7334,3.7027,3.6811,3.6713,3.6609,3.6461,3.6293,3.6148,3.5725,3.4959,3.4151,3.3591,3.3354,3.2763,3.2106,3.1819,3.1534,3.1133,3.0656,2.9943,2.9264,2.9061,2.8748,2.8745,2.8491,2.8284,2.8088,2.794,2.7806,2.774,2.7675,2.7625,2.756,2.756,2.7575,2.7473,2.7181,2.6922,2.6703,2.6529,2.6354,2.6233,2.6056,2.5825,2.5812,2.5855,2.5869,2.5716,2.5522,2.5536,2.5494,2.5439,2.5313,2.5188,2.5061,2.5073,2.5013,2.501,2.4882,2.4762,2.4562,2.4748,2.4875,2.5058,2.4931,2.486,2.4495,2.4053,2.3887,2.4493,2.5129,2.5358,2.4633,2.4544,2.4406,2.4192,2.4041,2.3903,2.3801,2.3814,2.367,2.3423,2.3214,2.3014,2.2571,2.2092,2.1577,2.1136,2.1375,2.1206,2.0681,2.0272,2.0033,1.9764,1.95,1.8999,1.8059,1.7336,1.6801,1.6308,1.5862,1.5506,1.5065,1.441,1.3759,1.3234,1.2606,1.1879,3.7774,3.7613,3.7594,3.7484,3.7317,3.7143,3.7009,3.6873,3.665,3.6485,3.636,3.6191,3.6019,3.5888,3.5728,3.5412,3.4908,3.4378,3.4021,3.3713,3.334,3.2626,3.2303,3.2151,3.1599,3.0958,3.0105,2.9793,2.9713,2.9255,2.8984,2.8728,2.8301,2.794,2.779,2.774,2.772,2.7655,2.7604,2.7604,2.7604,2.7503,2.735,2.7196,2.6995,2.6833,2.6892,2.6866,2.6901,2.6933,2.6777,2.6635,2.6493,2.6353,2.6031,2.5534,2.5354,2.5285,2.5215,2.5032,2.5027,2.5222,2.5132,2.4964,2.4932,2.5004,2.5017,2.484,2.4858,2.5148,2.5242,2.5256,2.5027,2.4822,2.4486,2.448,2.4925,2.5848,2.5886,2.5577,2.5084,2.482,2.4707,2.4566,2.4589,2.453,2.457,2.4311,2.409,2.3914,2.379,2.327,2.2767,2.2237,2.1745,2.1678,2.1807,2.1359,2.0896,2.0654,2.042,2.0089,1.9612,1.8893,1.8297,1.7733,1.7327,1.6954,1.6492,1.6031,1.5496,1.4948,1.4388,1.3729,1.2996,3.7449,3.7279,3.722,3.7143,3.6952,3.6771,3.665,3.6509,3.6301,3.6131,3.6036,3.5817,3.5639,3.5458,3.5228,3.4947,3.4562,3.4317,3.4086,3.3935,3.3783,3.3256,3.2827,3.2661,3.2379,3.1384,3.0942,3.0658,3.0233,2.9776,2.949,2.9215,2.851,2.8197,2.8252,2.8321,2.803,2.8015,2.7964,2.7979,2.7927,2.7721,2.7565,2.7512,2.7263,2.7285,2.7467,2.7469,2.7456,2.7523,2.7429,2.7294,2.7203,2.7023,2.644,2.5663,2.5486,2.5358,2.5283,2.5222,2.5373,2.5515,2.5542,2.5258,2.5169,2.5465,2.5814,2.5512,2.5397,2.5512,2.5691,2.5445,2.5393,2.5313,2.5278,2.5202,2.5418,2.592,2.6375,2.5963,2.5485,2.5335,2.5335,2.5331,2.539,2.5215,2.5241,2.4969,2.4699,2.4694,2.4519,2.4042,2.3486,2.2952,2.2499,2.2018,2.1959,2.1578,2.1205,2.0896,2.0664,2.042,1.9934,1.9556,1.9321,1.881,1.8461,1.7951,1.7371,1.6927,1.6593,1.6026,1.539,1.4792,1.4269,3.7069,3.6851,3.6869,3.6731,3.6568,3.6426,3.6318,3.6191,3.5993,3.58,3.5667,3.5458,3.5274,3.5088,3.4739,3.4448,3.4201,3.4,3.3813,3.3607,3.3466,3.3245,3.2939,3.2718,3.2571,3.1874,3.1873,3.1282,3.0601,3.0129,2.9887,2.9667,2.9509,2.9455,2.9124,2.9094,2.934,2.931,2.928,2.9197,2.9005,2.8813,2.8704,2.8569,2.8277,2.8095,2.8054,2.8011,2.7907,2.767,2.7506,2.7272,2.7037,2.6722,2.6573,2.6364,2.6324,2.6324,2.617,2.5955,2.5914,2.5915,2.5906,2.5821,2.5842,2.596,2.6207,2.6024,2.5906,2.6019,2.6257,2.6299,2.6307,2.6219,2.6088,2.6108,2.6221,2.607,2.6414,2.6496,2.595,2.605,2.6138,2.6214,2.6208,2.6015,2.5807,2.555,2.5272,2.5181,2.4897,2.4334,2.3897,2.3372,2.2841,2.2478,2.2187,2.1807,2.1425,2.1128,2.0896,2.0664,2.042,2.007,1.9863,1.9548,1.9063,1.8505,1.8112,1.7708,1.7229,1.6812,1.6378,1.5816,1.5318,3.6632,3.6626,3.6568,3.6444,3.6293,3.6105,3.5975,3.5861,3.5667,3.5487,3.5304,3.5135,3.4883,3.4546,3.425,3.4,3.3813,3.3658,3.345,3.324,3.3065,3.2888,3.2726,3.2516,3.2321,3.2247,3.2064,3.1697,3.1046,3.0652,3.0392,3.0292,2.9952,2.9574,2.9714,2.9609,2.9564,2.9549,2.9564,2.9495,2.9347,2.9182,2.9072,2.892,2.8597,2.8555,2.861,2.8446,2.8478,2.8432,2.8326,2.8064,2.7939,2.7687,2.7484,2.737,2.7293,2.691,2.629,2.6224,2.6209,2.6242,2.6206,2.6207,2.6335,2.6411,2.6447,2.6333,2.6291,2.6375,2.6539,2.6521,2.6521,2.6521,2.6521,2.6521,2.6521,2.6521,2.6521,2.6521,2.6521,2.6521,2.6521,2.6427,2.6389,2.6308,2.6032,2.58,2.5508,2.5276,2.4897,2.449,2.4127,2.3751,2.315,2.2703,2.2327,2.2025,2.1655,2.1272,2.1138,2.0896,2.0586,2.042,2.0186,1.9863,1.9469,1.9063,1.8665,1.8273,1.7878,1.7465,1.6976,1.6566,1.5899,3.6276,3.6335,3.6233,3.6148,3.6053,3.5817,3.5622,3.5487,3.535,3.5165,3.4977,3.4804,3.4464,3.405,3.3848,3.3658,3.345,3.3256,3.3096,3.2904,3.2765,3.2602,3.2437,3.221,3.2114,3.2094,3.1955,3.1694,3.1516,3.1246,3.0945,3.0945,3.0518,3.0208,3.0118,3.0193,3.0253,3.0253,3.0223,3.0082,2.9885,2.9743,2.9574,2.9318,2.9088,2.9014,2.9223,2.9007,2.9058,2.908,2.8848,2.8602,2.836,2.8126,2.8009,2.7814,2.7683,2.7288,2.6737,2.6489,2.6453,2.6544,2.6528,2.6604,2.6591,2.6539,2.6458,2.6445,2.6458,2.6471,2.6521,2.6533,2.6521,2.6521,2.6521,2.6521,2.6521,2.6521,2.6521,2.6521,2.6521,2.6521,2.6521,2.6521,2.6452,2.6452,2.6314,2.6037,2.5746,2.5382,2.504,2.4634,2.4273,2.3897,2.3446,2.2927,2.2628,2.2252,2.1873,2.1502,2.1282,2.1061,2.0741,2.0586,2.043,2.0186,1.9942,1.9539,1.9143,1.8834,1.8434,1.8031,1.7546,1.7139,1.6566,3.5932,3.5861,3.5975,3.5888,3.5667,3.5605,3.5441,3.5135,3.4977,3.4835,3.4691,3.4349,3.4,3.3694,3.3503,3.3346,3.3293,3.3058,3.2827,3.2648,3.2508,3.2327,3.2231,3.2079,3.1966,3.1898,3.1799,3.167,3.1597,3.1492,3.1375,3.1405,3.112,3.1285,3.1183,3.1046,3.1076,3.1091,3.1106,3.0994,3.085,3.0748,3.0646,3.0366,3.0079,3.0011,2.9979,2.9524,2.9213,2.9162,2.8894,2.8638,2.8379,2.8183,2.7987,2.7855,2.7669,2.7366,2.7038,2.7012,2.7154,2.7124,2.7002,2.6773,2.6645,2.6602,2.6533,2.6521,2.6521,2.6521,2.6521,2.6521,2.6521,2.6521,2.6521,2.6521,2.6521,2.6521,2.6521,2.6521,2.6521,2.6521,2.6521,2.6521,2.6521,2.6452,2.6314,2.6037,2.5758,2.5394,2.5123,2.4778,2.4418,2.4043,2.3666,2.3298,2.2852,2.2478,2.2101,2.1797,2.1502,2.1282,2.0974,2.0829,2.0664,2.0498,2.0255,1.9863,1.9539,1.9311,1.8913,1.8434,1.7951,1.7465,1.6902,3.5667,3.5611,3.5594,3.5549,3.5503,3.5258,3.5071,3.4947,3.4739,3.4546,3.43,3.3832,3.3555,3.3398,3.3203,3.2989,3.2866,3.2757,3.2594,3.2428,3.2287,3.2191,3.2094,3.194,3.1826,3.1784,3.167,3.1597,3.1524,3.1467,3.1467,3.1467,3.1467,3.1452,3.1452,3.1467,3.1467,3.1467,3.1467,3.1366,3.1146,3.1087,3.0955,3.0642,3.0294,3.0111,2.9974,2.9477,2.9226,2.9022,2.8688,2.843,2.8249,2.8052,2.7855,2.7656,2.7469,2.7335,2.7281,2.7281,2.7201,2.6943,2.682,2.6696,2.6589,2.6521,2.6521,2.6521,2.6521,2.6521,2.6521,2.6521,2.6521,2.6521,2.6521,2.6521,2.6521,2.6521,2.6521,2.6521,2.6521,2.6521,2.6521,2.6521,2.6521,2.6452,2.6245,2.6037,2.5828,2.5548,2.5265,2.4992,2.4634,2.4345,2.397,2.3519,2.3065,2.2703,2.2327,2.2025,2.1731,2.1502,2.1282,2.1051,2.0829,2.0664,2.0498,2.0177,1.9863,1.9636,1.9231,1.8904,1.8345,1.7789,1.7383,3.5503,3.5446,3.5245,3.5261,3.5291,3.4994,3.4787,3.4643,3.4431,3.4201,3.3848,3.345,3.3256,3.315,3.292,3.2718,3.2594,3.2484,3.2358,3.2191,3.2094,3.2038,3.194,3.1784,3.167,3.167,3.1597,3.1467,3.1467,3.1467,3.1467,3.1467,3.1467,3.1467,3.1467,3.1467,3.1467,3.1467,3.1467,3.1366,3.1146,3.1087,3.0955,3.0582,3.028,3.0111,2.9927,2.954,2.9176,2.8958,2.8624,2.8249,2.8066,2.7934,2.7723,2.7523,2.7323,2.7268,2.7134,2.7066,2.6998,2.6726,2.6602,2.6533,2.6521,2.6521,2.6521,2.6521,2.6521,2.6521,2.6521,2.6521,2.6521,2.6521,2.6521,2.6521,2.6521,2.6521,2.6521,2.6521,2.6521,2.6521,2.6521,2.6521,2.6521,2.6452,2.6327,2.6119,2.598,2.5758,2.5465,2.5194,2.4921,2.4562,2.4273,2.374,2.3298,2.2927,2.2553,2.2252,2.1959,2.1731,2.1512,2.1282,2.1051,2.0896,2.0664,2.042,2.0186,1.9872,1.9548,1.9063,1.8754,1.8273,1.7951,3.545,3.5291,3.5077,3.4982,3.5048,3.4899,3.4627,3.4331,3.4279,3.3989,3.362,3.3429,3.3285,3.3084,3.2974,3.2878,3.2665,3.2476,3.2364,3.23,3.2319,3.2022,3.1862,3.1865,3.1749,3.1584,3.1482,3.1467,3.1467,3.1467,3.1467,3.1467,3.1467,3.1467,3.1467,3.1467,3.1467,3.1467,3.1467,3.1366,3.1146,3.1087,3.0881,3.0568,3.028,3.0111,2.9927,2.9477,2.9113,2.9035,2.8573,2.8249,2.8079,2.7868,2.7656,2.7323,2.7335,2.7134,2.6794,2.6726,2.6658,2.6589,2.6533,2.6521,2.6521,2.6521,2.6521,2.6521,2.6521,2.6521,2.6521,2.6521,2.6521,2.6521,2.6521,2.6521,2.6521,2.6521,2.6521,2.6521,2.6521,2.6521,2.6521,2.6521,2.6521,2.6452,2.6327,2.6201,2.6131,2.591,2.5618,2.5324,2.5052,2.4778,2.4418,2.397,2.3519,2.315,2.2777,2.2478,2.2176,2.1959,2.1731,2.1512,2.1205,2.0974,2.0819,2.0741,2.042,2.0108,1.9618,1.9222,1.8993,1.8763,1.8434,3.6152,3.6422,3.6307,3.604,3.5638,3.4725,3.4511,3.4743,3.483,3.4784,3.4597,3.4391,3.411,3.3867,3.3675,3.3472,3.3371,3.3373,3.3271,3.3064,3.296,3.3021,3.2781,3.2421,3.2139,3.2063,3.1854,3.1629,3.1467,3.1616,3.1526,3.1467,3.1719,3.1467,3.1467,3.1467,3.1467,3.1467,3.1467,3.1366,3.1146,3.1087,3.0955,3.0582,3.0294,3.0111,3.005,2.9415,2.9162,2.9035,2.8573,2.8197,2.8013,2.7868,2.7523,2.7268,2.7214,2.6943,2.6671,2.6602,2.6521,2.6559,2.6533,2.6533,2.6521,2.6521,2.6521,2.6521,2.6521,2.6521,2.6521,2.6521,2.6521,2.6521,2.6521,2.6521,2.6521,2.6521,2.6521,2.6521,2.6521,2.6634,2.6603,2.6791,2.6816,2.6741,2.6696,2.6357,2.6226,2.5992,2.5758,2.5465,2.5253,2.4921,2.4562,2.4189,2.3813,2.3519,2.3075,2.2703,2.2402,2.2176,2.1883,2.1665,2.1359,2.1051,2.0896,2.0741,2.0576,2.0264,1.9854,1.9618,1.939,1.9152,1.8993,3.6688,3.6951,3.6711,3.6519,3.6092,3.5234,3.5017,3.5187,3.5197,3.5162,3.4992,3.4705,3.4457,3.4281,3.4193,3.3999,3.3804,3.3804,3.3744,3.3653,3.3577,3.3426,3.3291,3.311,3.2901,3.2721,3.2497,3.2258,3.2347,3.2258,3.2302,3.2332,3.2183,3.2347,3.2198,3.1958,3.1467,3.1467,3.1467,3.1351,3.119,3.1087,3.0955,3.0582,3.0355,3.0111,2.9927,2.954,2.9099,2.8922,2.86,2.8158,2.8027,2.7749,2.7403,2.7214,2.6943,2.684,2.6785,2.6861,2.6974,2.7118,2.681,2.6559,2.6521,2.6521,2.6521,2.6521,2.6571,2.6571,2.6527,2.6515,2.6553,2.6553,2.6622,2.6634,2.6553,2.6565,2.7019,2.6968,2.6999,2.7024,2.6954,2.7092,2.7268,2.718,2.708,2.6784,2.642,2.6268,2.6045,2.5834,2.5503,2.5218,2.4837,2.4418,2.4116,2.3824,2.3457,2.3001,2.2703,2.2402,2.2111,2.1731,2.1502,2.1205,2.0974,2.0741,2.0576,2.0411,2.0245,2.001,1.9794,1.9548,1.939,3.7001,3.6913,3.6478,3.6314,3.6265,3.6228,3.5854,3.5379,3.5273,3.5123,3.4818,3.4719,3.4618,3.4302,3.4136,3.4046,3.4,3.3985,3.3892,3.3815,3.398,3.3814,3.3754,3.3619,3.3529,3.3514,3.332,3.3051,3.341,3.317,3.32,3.329,3.302,3.3035,3.2811,3.2482,3.2003,3.2003,3.193,3.1827,3.1634,3.1412,3.1291,3.1003,3.0682,3.0497,3.0282,2.9848,2.9489,2.9114,2.8671,2.8383,2.8106,2.7815,2.7413,2.7114,2.6904,2.7012,2.7205,2.7306,2.7482,2.7632,2.7118,2.6716,2.6653,2.6816,2.6866,2.6841,2.6866,2.6741,2.6653,2.6703,2.6753,2.6753,2.681,2.6741,2.6659,2.6942,2.7582,2.7784,2.7817,2.788,2.7758,2.7821,2.7733,2.767,2.7557,2.7369,2.7014,2.6756,2.6532,2.6353,2.5995,2.5564,2.5182,2.4987,2.4553,2.4328,2.3796,2.3372,2.3001,2.2724,2.2327,2.2025,2.1731,2.1349,2.0974,2.0819,2.0644,2.0489,2.0401,2.0255,2.0029,1.9794,1.9627,3.79,3.8182,3.7887,3.7609,3.7367,3.7049,3.6564,3.6043,3.6126,3.6119,3.5968,3.5753,3.5415,3.5304,3.5193,3.5037,3.5003,3.4985,3.5015,3.4876,3.4711,3.4861,3.4741,3.4427,3.4262,3.4038,3.3844,3.3679,3.3544,3.3559,3.3589,3.3455,3.3436,3.3453,3.3484,3.3442,3.3171,3.2901,3.2856,3.2571,3.2357,3.2281,3.2097,3.1787,3.1444,3.1268,3.1126,3.0625,3.0311,3.0221,2.9673,2.9305,2.9305,2.8986,2.8651,2.8216,2.7957,2.7745,2.7846,2.7871,2.7996,2.8172,2.7821,2.7733,2.7632,2.7679,2.7641,2.7503,2.7394,2.7331,2.7318,2.7344,2.7344,2.7344,2.7318,2.721,2.7164,2.7448,2.8091,2.8702,2.8733,2.8398,2.8373,2.8298,2.821,2.816,2.8072,2.7946,2.772,2.7376,2.7071,2.689,2.6686,2.6251,2.6056,2.5846,2.5312,2.4802,2.4323,2.3806,2.3411,2.3037,2.2682,2.2347,2.2056,2.1588,2.0984,2.0858,2.0937,2.0664,2.0566,2.0411,2.0264,2.0108,1.9872,3.8428,3.8567,3.8319,3.7992,3.761,3.7194,3.6703,3.6424,3.6569,3.6538,3.6352,3.6102,3.5879,3.5691,3.5563,3.5529,3.5415,3.5355,3.537,3.537,3.5489,3.5415,3.5265,3.5115,3.4951,3.4696,3.4547,3.4457,3.4233,3.4262,3.4337,3.4367,3.3958,3.4003,3.4307,3.452,3.452,3.419,3.3767,3.3404,3.3173,3.3048,3.2767,3.2571,3.2234,3.2105,3.1974,3.1341,3.1005,3.0828,3.0225,2.9834,2.9641,2.9306,2.9035,2.8541,2.8252,2.8245,2.836,2.8423,2.8549,2.8687,2.8737,2.8775,2.8773,2.8819,2.8407,2.8107,2.8119,2.8059,2.8084,2.8097,2.8084,2.8072,2.7936,2.7813,2.7913,2.8038,2.8648,2.9389,2.9365,2.8988,2.8825,2.875,2.88,2.8913,2.8976,2.8925,2.8561,2.8074,2.7715,2.7505,2.7287,2.7028,2.6916,2.6668,2.6115,2.5599,2.5205,2.4668,2.4013,2.3656,2.3371,2.2984,2.2507,2.2002,2.1577,2.135,2.1282,2.1016,2.083,2.0654,2.0479,2.0264,2.0108,3.8639,3.8408,3.7992,3.7626,3.7118,3.6846,3.6569,3.6492,3.6414,3.6336,3.6133,3.5816,3.5688,3.5638,3.5539,3.5554,3.5489,3.5489,3.5489,3.5489,3.5489,3.5489,3.5489,3.5459,3.531,3.5415,3.5385,3.5085,3.534,3.525,3.516,3.5489,3.5325,3.519,3.516,3.5205,3.516,3.4996,3.4364,3.3853,3.3499,3.3191,3.2976,3.2774,3.2529,3.2239,3.2056,3.1604,3.1062,3.0787,3.0481,3.0108,2.9771,2.9418,2.9117,2.8899,2.872,2.8749,2.8913,2.9001,2.9239,2.949,2.9767,2.9591,2.9479,2.9453,2.9074,2.8774,2.8699,2.8699,2.8712,2.8712,2.8699,2.8699,2.86,2.8575,2.8625,2.8775,2.9101,2.9669,2.9618,2.9352,2.9352,2.9289,2.9239,2.9553,2.9603,2.9566,2.934,2.8812,2.8525,2.8164,2.8076,2.7924,2.76,2.7312,2.684,2.6329,2.5942,2.5486,2.4876,2.4548,2.423,2.3673,2.3156,2.2818,2.2418,2.2198,2.1849,2.154,2.1263,2.1036,2.082,2.0712,2.0332,3.8448,3.8335,3.7786,3.7238,3.6831,3.66,3.6414,3.6274,3.6022,3.5879,3.5816,3.5752,3.5638,3.5539,3.5554,3.5489,3.5489,3.5489,3.5489,3.5489,3.5489,3.5489,3.5489,3.5489,3.5489,3.5489,3.5489,3.5489,3.5489,3.5489,3.5489,3.5489,3.5489,3.5489,3.5489,3.5489,3.5474,3.5444,3.5145,3.4579,3.4336,3.4339,3.4281,3.3906,3.3542,3.335,3.3093,3.2639,3.2346,3.2176,3.15,3.1076,3.0742,3.0245,3.0021,2.9883,2.9467,2.9403,2.9402,2.9478,2.9603,2.9679,2.9779,2.9779,2.9793,2.9757,2.9643,2.9454,2.9315,2.9302,2.9302,2.9289,2.9277,2.9289,2.9289,2.9289,2.9302,2.9453,2.9628,2.9691,2.9767,2.9779,2.9779,2.9779,2.9779,2.9767,2.9754,2.9729,2.9704,2.9402,2.9327,2.9037,2.8996,2.8867,2.8464,2.7973,2.7483,2.7085,2.6658,2.6198,2.5761,2.5341,2.493,2.4371,2.379,2.3535,2.3223,2.2807,2.2524,2.214,2.185,2.167,2.1599,2.1516,2.0994,3.8221,3.7918,3.7298,3.6892,3.66,3.6414,3.6211,3.5943,3.5752,3.5638,3.5589,3.5604,3.5554,3.5489,3.5489,3.5489,3.5489,3.5489,3.5489,3.5489,3.5489,3.5489,3.5489,3.5489,3.5489,3.5489,3.5489,3.5489,3.5489,3.5489,3.5489,3.5489,3.5489,3.5504,3.5504,3.5504,3.5534,3.5489,3.5564,3.5419,3.5075,3.4964,3.4817,3.4481,3.421,3.402,3.3744,3.3297,3.2917,3.2561,3.1882,3.1455,3.1044,3.0657,3.0482,3.0317,3.0088,2.9946,2.9869,2.9779,2.9779,2.9779,2.9779,2.9779,2.9779,2.9756,2.9756,2.9591,2.9591,2.9578,2.9578,2.9578,2.9578,2.9578,2.9578,2.9578,2.9578,2.9641,2.9729,2.9741,2.9779,2.9779,2.9779,2.9779,2.9779,2.9779,2.9779,2.9779,2.9779,2.9779,2.9779,2.9779,2.9599,2.9419,2.9065,2.8631,2.8222,2.7819,2.7382,2.696,2.6553,2.604,2.5514,2.5092,2.4713,2.448,2.4143,2.369,2.3196,2.2777,2.2554,2.2361,2.2317,2.2231,2.1752,3.7918,3.7314,3.6831,3.66,3.6414,3.6211,3.5943,3.5752,3.5688,3.5589,3.5489,3.5489,3.5489,3.5489,3.5489,3.5489,3.5489,3.5489,3.5489,3.5489,3.5489,3.5489,3.5489,3.5489,3.5489,3.5489,3.5489,3.5489,3.5489,3.5489,3.5489,3.5489,3.5519,3.5564,3.5609,3.5669,3.5774,3.5953,3.6013,3.5798,3.5451,3.5075,3.4831,3.4616,3.4346,3.4088,3.3813,3.3521,3.3086,3.2574,3.2082,3.1656,3.1286,3.0911,3.0685,3.0444,3.0228,3.0011,2.9869,2.9869,2.9792,2.9779,2.9792,2.9804,2.9829,2.9829,2.9829,2.9829,2.9829,2.9817,2.9817,2.9829,2.9829,2.9817,2.9817,2.9829,2.9829,2.9829,2.9829,2.9829,2.9829,2.9829,2.9829,2.9829,2.9829,2.9817,2.9817,2.9792,2.9779,2.9779,2.9779,2.9779,2.9689,2.9521,2.9431,2.9123,2.8699,2.8373,2.798,2.7705,2.7371,2.6759,2.6296,2.603,2.5738,2.5233,2.4898,2.446,2.4011,2.3596,2.3423,2.3286,2.3006,2.2794,2.2488,3.7524,3.7044,3.6677,3.6414,3.6211,3.5943,3.5752,3.5688,3.5589,3.5489,3.5489,3.5489,3.5489,3.5504,3.5489,3.5489,3.5489,3.5489,3.5489,3.5489,3.5609,3.5564,3.5624,3.5818,3.5564,3.5624,3.5714,3.5564,3.5863,3.5729,3.5549,3.5639,3.5594,3.5818,3.6282,3.6342,3.6462,3.6641,3.6821,3.6738,3.6432,3.5889,3.4957,3.4616,3.4346,3.4088,3.3813,3.3536,3.3086,3.2646,3.225,3.1864,3.1532,3.136,3.1057,3.0893,3.0573,3.0393,3.0276,3.0211,3.0159,3.003,3.003,2.998,3.0005,3.0018,3.0018,2.9993,2.998,2.9942,2.9942,2.998,2.9993,2.9967,2.9955,2.9967,2.998,2.9993,2.9993,2.9993,2.9993,3.0005,3.0005,3.0005,3.0005,3.0018,3.0043,3.003,3.008,2.9967,2.988,2.9917,2.9877,2.9611,2.9431,2.9419,2.9045,2.8779,2.8486,2.8087,2.7684,2.736,2.6951,2.6633,2.6229,2.5848,2.5449,2.5185,2.4924,2.4493,2.4335,2.4173,2.3815,2.3448,2.3063]}]]